[[{"header":{"parameterUnit":"m.s-1","parameterCategory":1,"la1":31.0,"la2":29.5877,"lo1":-88.7671,"lo2":-86.6584,"dy":0.0162,"dx":0.0185,"nx":115,"ny":88,"refTime":"2023-08-24T06:00:00:Z","depth":0,"parameterNumber":2,"parameterNumberName":"U-component_of_WINDS"},"data":[0.0,0.0,0.0,0.0,0.0,0.0,0.0,0.0,0.0,0.0,0.0,0.0,0.0,0.0,0.0,0.0,0.0,0.0,0.0,0.0,0.0,0.0,0.0,0.0,0.0,0.0,0.0,0.0,0.0,0.0,0.0,0.0,0.0,0.0,0.0,0.0,0.0,0.0,0.0,0.0,0.0,0.0,0.0,0.0,0.0,0.0,0.0,0.0,0.0,0.0,0.0,0.0,0.0,0.0,0.0,0.0,0.0,0.0,0.0,0.0,0.0,0.0,0.0,0.0,0.0,0.0,0.0,0.0,0.0,0.0,0.0,0.0,0.0,0.0,0.0,0.0,0.0,0.0,0.0,0.0,0.0,0.0,0.0,0.0,0.0,0.0,0.0,0.0,0.0,0.0,0.0,0.0,0.0,0.0,0.0,0.0,0.0,0.0,0.0,0.0,0.0,0.0,0.0,0.0,0.0,0.0,0.0,0.0,0.0,0.0,0.0,0.0,0.0,0.0,0.0,0.0,0.0,0.0,0.0,0.0,0.0,0.0,0.0,0.0,0.0,0.0,0.0,0.0,0.0,0.0,0.0,0.0,0.0,0.0,0.0,0.0,0.0,0.0,0.0,0.0,0.0,0.0,0.0,0.0,0.0,0.0,0.0,0.0,0.0,0.0,0.0,0.0,0.0,0.0,0.0,0.0,0.0,0.0,0.0,0.0,0.0,0.0,0.0,0.0,0.0,0.0,0.0,0.0,0.0,0.0,0.0,0.0,0.0,0.0,0.0,0.0,0.0,0.0,0.0,0.0,0.0,0.0,0.0,0.0,0.0,0.0,0.0,0.0,0.0,0.0,0.0,0.0,0.0,0.0,0.0,0.0,0.0,0.0,0.0,0.0,0.0,0.0,0.0,0.0,0.0,0.0,0.0,0.0,0.0,0.0,0.0,0.0,0.0,0.0,0.0,0.0,0.0,0.0,0.0,0.0,0.0,0.0,0.0,0.0,0.0,0.0,0.0,0.0,0.0,0.0,0.0,0.0,0.0,0.0,0.0,0.0,0.0,0.0,0.0,0.0,0.0,0.0,0.0,0.0,0.0,0.0,0.0,0.0,0.0,0.0,0.0,0.0,0.0,0.0,0.0,0.0,0.0,0.0,0.0,0.0,0.0,0.0,0.0,0.0,0.0,0.0,0.0,0.0,0.0,0.0,0.0,0.0,0.0,0.0,0.0,0.0,0.0,0.0,0.0,0.0,0.0,0.0,0.0,0.0,0.0,0.0,0.0,0.0,0.0,0.0,0.0,0.0,0.0,0.0,0.0,0.0,0.0,0.0,0.0,0.0,0.0,0.0,0.0,0.0,0.0,0.0,0.0,0.0,0.0,0.0,0.0,0.0,0.0,0.0,0.0,0.0,0.0,0.0,0.0,0.0,0.0,0.0,0.0,0.0,0.0,0.0,0.0,0.0,0.0,0.0,0.0,0.0,0.0,0.0,0.0,0.0,0.0,0.0,0.0,0.0,0.0,0.0,0.0,0.0,0.0,0.0,0.0,0.0,0.0,0.0,0.0,0.0,0.0,0.0,0.0,0.0,0.0,0.0,0.0,0.0,0.0,0.0,0.0,0.0,0.0,0.0,0.0,0.0,0.0,0.0,0.0,0.0,0.0,0.0,0.0,0.0,0.0,0.0,0.0,0.0,0.0,0.0,0.0,0.0,0.0,0.0,0.0,0.0,0.0,0.0,0.0,0.0,0.0,0.0,0.0,0.0,0.0,0.0,0.0,0.0,0.0,0.0,0.0,0.0,0.0,0.0,0.0,0.0,0.0,0.0,0.0,0.0,0.0,0.0,0.0,0.0,0.0,0.0,0.0,0.0,0.0,0.0,0.0,0.0,0.0,0.0,0.0,0.0,0.0,0.0,0.0,0.0,0.0,0.0,0.0,0.0,0.0,0.0,0.0,0.0,0.0,0.0,0.0,0.0,0.0,0.0,0.0,0.0,0.0,0.0,0.0,0.0,0.0,0.0,0.0,0.0,0.0,0.0,0.0,0.0,0.0,0.0,0.0,0.0,0.0,0.0,0.0,0.0,0.0,0.0,0.0,0.0,0.0,0.0,0.0,0.0,0.0,0.0,0.0,0.0,0.0,0.0,0.0,0.0,0.0,0.0,0.0,0.0,0.0,0.0,0.0,0.0,0.0,0.0,0.0,0.0,0.0,0.0,0.0,0.0,0.0,0.0,0.0,0.0,0.0,0.0,0.0,0.0,0.0,0.0,0.0,0.0,0.0,0.0,0.0,0.0,0.0,0.0,0.0,0.0,0.0,0.0,0.0,0.0,0.0,0.0,0.0,0.0,0.0,0.0,0.0,0.0,0.0,0.0,0.0,0.0,0.0,0.0,0.0,0.0,0.0,0.0,0.0,0.0,0.0,0.0,0.0,0.0,0.0,0.0,0.0,0.0,0.0,0.0,0.0,0.0,0.0,0.0,0.0,0.0,0.0,0.0,0.0,0.0,0.0,0.0,0.0,0.0,0.0,0.0,0.0,0.0,0.0,0.0,0.0,0.0,0.0,0.0,0.0,0.0,0.0,0.0,0.0,0.0,0.0,0.0,0.0,0.0,0.0,0.0,0.0,0.0,0.0,0.0,0.0,0.0,0.0,0.0,0.0,0.0,0.0,0.0,0.0,0.0,0.0,0.0,0.0,0.0,0.0,0.0,0.0,0.0,0.0,0.0,0.0,0.0,0.0,0.0,0.0,0.0,0.0,0.0,0.0,0.0,0.0,0.0,0.0,0.0,0.0,0.0,0.0,0.0,0.0,0.0,0.0,0.0,0.0,0.0,0.0,0.0,0.0,0.0,0.0,0.0,0.0,0.0,0.0,0.0,0.0,0.0,0.0,0.0,0.0,0.0,0.0,0.0,0.0,0.0,0.0,0.0,0.0,0.0,0.0,0.0,0.0,0.0,0.0,0.0,0.0,0.0,0.0,0.0,0.0,0.0,0.0,0.0,0.0,0.0,0.0,0.0,0.0,0.0,0.0,0.0,0.0,0.0,0.0,0.0,0.0,0.0,0.0,0.0,0.0,0.0,0.0,0.0,0.0,0.0,0.0,0.0,0.0,0.0,0.0,0.0,0.0,0.0,0.0,0.0,0.0,0.0,0.0,0.0,0.0,0.0,0.0,0.0,0.0,0.0,0.0,0.0,0.0,0.0,0.0,0.0,0.0,0.0,0.0,0.0,0.0,0.0,0.0,0.0,0.0,0.0,0.0,0.0,0.0,0.0,0.0,0.0,0.0,0.0,0.0,0.0,0.0,0.0,0.0,0.0,0.0,0.0,0.0,0.0,0.0,0.0,0.0,0.0,0.0,0.0,0.0,0.0,0.0,0.0,0.0,0.0,0.0,0.0,0.0,0.0,0.0,0.0,0.0,0.0,0.0,0.0,0.0,0.0,0.0,0.0,0.0,0.0,0.0,0.0,0.0,0.0,0.0,0.0,0.0,0.0,0.0,0.0,0.0,0.0,0.0,0.0,0.0,0.0,0.0,0.0,0.0,0.0,0.0,0.0,0.0,0.0,0.0,0.0,0.0,0.0,0.0,0.0,0.0,0.0,0.0,0.0,0.0,0.0,0.0,0.0,0.0,0.0,0.0,0.0,0.0,0.0,0.0,0.0,0.0,0.0,0.0,0.0,0.0,0.0,0.0,0.0,0.0,0.0,0.0,0.0,0.0,0.0,0.0,0.0,0.0,0.0,0.0,0.0,0.0,0.0,0.0,0.0,0.0,0.0,0.0,0.0,0.0,0.0,0.0,0.0,0.0,0.0,0.0,0.0,0.0,0.0,0.0,0.0,0.0,0.0,0.0,0.0,0.0,0.0,0.0,0.0,0.0,0.0,0.0,0.0,0.0,0.0,0.0,0.0,0.0,0.0,0.0,0.0,0.0,0.0,0.0,0.0,0.0,0.0,0.0,0.0,0.0,0.0,0.0,0.0,0.0,0.0,0.0,0.0,0.0,0.0,0.0,0.0,0.0,0.0,0.0,0.0,0.0,0.0,0.0,0.0,0.0,0.0,0.0,0.0,0.0,0.0,0.0,0.0,0.0,0.0,0.0,0.0,0.0,0.0,0.0,0.0,0.0,0.0,0.0,0.0,0.0,0.0,0.0,0.0,0.0,0.0,0.0,0.0,0.0,0.0,0.0,0.0,0.0,0.0,0.0,0.0,0.0,0.0,0.0,0.0,0.0,0.0,0.0,0.0,0.0,0.0,0.0,0.0,0.0,0.0,0.0,0.0,-0.037,0.0,0.0,0.0,0.0,0.0,0.0,0.0,0.0,0.0,0.0,0.0,0.0,0.0,0.0,0.0,0.0,0.0,0.0,0.0,0.0,0.0,0.0,0.0,0.0,0.0,0.0,0.0,0.0,0.0,0.0,0.0,0.0,0.0,0.0,0.0,0.0,0.0,0.0,0.0,0.0,0.0,0.0,0.0,0.0,0.0,0.0,0.0,0.0,0.0,0.0,0.0,0.0,0.0,0.0,0.0,0.0,0.0,0.0,0.0,0.0,0.0,0.0,0.0,0.0,0.0,0.0,0.0,0.0,0.0,0.0,0.0,0.0,0.0,0.0,0.0,0.0,0.0,0.0,0.0,0.0,0.0,0.0,0.0,0.0,0.0,0.0,0.0,0.0,0.0,0.0,0.0,0.0,0.0,0.0,0.0,0.0,0.0,0.0,0.0,0.0,0.0,0.0,0.0,0.0,0.0,0.0,0.0,0.0,0.0,0.0,-0.1522,-0.1143,-0.0403,0.0,0.0,0.0,0.0,0.0,0.0,0.0,0.0,0.0,0.0,0.0,0.0,0.0,0.0,0.0,0.0,0.0,0.0,0.0,0.0,0.0,0.0,0.0,0.0,0.0,0.0,0.0,0.0,0.0,0.0,0.0,0.0,0.0,0.0,0.0,0.0,0.0,0.0,0.0,0.0,0.0,0.0,0.0,0.0,0.0,0.0,0.0,0.0,0.0,0.0,0.0,0.0,0.0,0.0,0.0,0.0,0.0,0.0,0.0,0.0,0.0,0.0,0.0,0.0,0.0,0.0,0.0,0.0,0.0,0.0,0.0,0.0,0.0,0.0,0.0,0.0,0.0,0.0,0.0,0.0,0.0,0.0,0.0,0.0,0.0,0.0,0.0,0.0,0.0,0.0,0.0,0.0,0.0,0.0,0.0,0.0,0.0,0.0,0.0,0.0,0.0,0.0,0.0,0.0,0.0,0.0,0.0,0.0,0.0,0.0,0.0,0.0,0.0,0.0,-0.0838,-0.0285,0.0,0.0,0.0,0.0,0.0,0.0,0.0,0.0,0.0,0.0,0.0,0.0,0.0,0.0,0.0,0.0,0.0,0.0,0.0,0.0,0.0,0.0,0.0,0.0,0.0,0.0,0.0,0.0,0.0,0.0,0.0,0.0,0.0,0.0,0.0,0.0,0.0,0.0,0.0,0.0,0.0,0.0,0.0,0.0,0.0,0.0,0.0,0.0,0.0,0.0,0.0,0.0,0.0,0.0,0.0,0.0,0.0,0.0,0.0,0.0,0.0,0.0,0.0,0.0,0.0,0.0,0.0,0.0,0.0,0.0,0.0,0.0,0.0,0.0,0.0,0.0,0.0,0.0,0.0,0.0,0.0,0.0,0.0,0.0,0.0,0.0,0.0,0.0,0.0,0.0,0.0,0.0,0.0,0.0,0.0,0.0,0.0,0.0,0.0,0.0,0.0,0.0,0.0,0.0,0.0,0.0,0.0,0.0,0.0,0.0,0.0,-0.1485,-0.1941,-0.179,0.0,0.0,0.0,0.0,0.0,0.0,0.0,0.0,0.0,0.0,0.0,0.0,0.0,0.0,0.0,0.0,0.0,0.0,0.0,0.0,0.0,0.0,0.0,0.0,0.0,0.0,0.0,0.0,0.0,0.0,0.0,0.0,0.0,0.0,0.0,0.0,0.0,0.0,0.0,0.0,0.0,0.0,0.0,0.0,0.0,0.0,0.0,0.0,0.0,0.0,0.0,0.0,0.0,0.0,0.0,0.0,0.0,0.0,0.0,0.0,0.0,0.0,0.0,0.0,0.0,0.0,0.0,0.0,0.0,0.0,0.0,0.0,0.0,0.0,0.0,0.0,0.0,0.0,0.0,0.0,0.0,0.0,0.0,0.0,0.0,0.0,0.0,0.0,0.0,0.0,0.0,0.0,0.0,0.0,0.0,0.0,0.0,0.0,0.0,0.0,0.0,0.0,0.0,0.0,0.0,0.0,0.0,0.0,0.0,0.0,0.0,0.0,-0.1336,-0.1761,-0.1963,-0.1417,0.0,0.0,0.0,0.0,0.0,0.0,0.0,0.0,0.0,0.0,0.0,0.0,0.0,0.0,0.0,0.0,0.0,0.0,0.0,0.0,0.0,0.0,0.0,0.0,0.0,0.0,0.0,0.0,0.0,0.0,0.0,0.0,0.0,0.0,0.0,0.0,0.0,0.0,0.0,0.0,0.0,0.0,0.0,0.0,0.0,0.0,0.0,0.0,0.0,0.0,0.0,0.0,0.0,0.0,0.0,0.0,0.0,0.0,0.0,0.0,0.0,0.0,0.0,0.0,0.0,0.0,0.0,0.0,0.0,0.0,0.0,0.0,0.0,0.0,0.0,0.0,0.0,0.0,0.0,0.0,0.0,0.0,0.0,0.0,0.0,0.0,0.0,0.0,0.0,0.0,0.0,0.0,0.0,0.0,0.0,0.0,0.0,0.0,0.0,0.0,0.0,0.0,0.0,0.0,0.0,0.0,0.0,0.0,0.0,0.0,-0.1005,-0.1213,-0.1603,-0.1854,-0.1558,-0.0676,0.0,0.0,0.0,0.0,0.0,0.0,0.0,0.0,0.0,0.0,0.0,0.0,0.0,0.0,0.0,0.0,0.0,0.0,0.0,0.0,0.0,0.0,0.0,0.0,0.0,0.0,0.0,0.0,0.0,0.0,0.0,0.0,0.0,0.0,0.0,0.0,0.0,0.0,0.0,0.0,0.0,0.0,0.0,0.0,0.0,0.0,0.0,0.0,0.0,0.0,0.0,0.0,0.0,0.0,0.0,0.0,0.0,0.0,0.0,0.0,0.0,0.0,0.0,0.0,0.0,0.0,0.0,0.0,0.0,0.0,0.0,0.0,0.0,0.0,0.0,0.0,0.0,0.0,0.0,0.0,0.0,0.0,0.0,0.0,0.0,0.0,0.0,0.0,0.0,0.0,0.0,0.0,0.0,0.0,0.0,0.0,0.0,0.0,0.0,0.0,0.0,0.0,0.0,0.0,0.0,0.0,0.0,0.0,-0.1149,-0.0944,-0.1095,-0.1674,-0.1531,-0.1697,0.0,0.0,0.0,0.0,0.0,0.0,0.0,0.0,0.0,0.0,0.0,0.0,0.0,0.0,0.0,0.0,0.0,0.0,0.0,0.0,0.0,0.0,0.0,0.0,0.0,0.0,0.0,0.0,0.0,0.0,0.0,0.0,0.0,0.0,0.0,0.0,0.0,0.0,0.0,0.0,0.0,0.0,0.0,0.0,0.0,0.0,0.0,0.0,0.0,0.0,0.0,0.0,0.0,0.0,0.0,0.0,0.0,0.0,0.0,0.0,0.0,0.0,0.0,0.0,0.0,0.0,0.0,0.0,0.0,0.0,0.0,0.0,0.0,0.0,0.0,0.0,0.0,0.0,0.0,0.0,0.0,0.0,0.0,0.0,0.0,0.0,0.0,0.0,0.0,0.0,0.0,0.0,0.0,0.0,0.0,0.0,0.0,0.0,0.0,0.0,0.0,0.0,0.0,0.0,0.0,0.0,0.0,0.0,0.0,-0.0804,-0.0929,-0.1309,-0.191,-0.1515,-0.1549,0.0,0.0,0.0,0.0,0.0,0.0,0.0,0.0,0.0,0.0,0.0,0.0,0.0,0.0,0.0,0.0,0.0,0.0,0.0,0.0,0.0,0.0,0.0,0.0,0.0,0.0,0.0,0.0,0.0,0.0,0.0,0.0,0.0,0.0,0.0,0.0,0.0,0.0,0.0,0.0,0.0,0.0,0.0,0.0,0.0,0.0,0.0,0.0,0.0,0.0,0.0,0.0,0.0,0.0,0.0,0.0,0.0,0.0,0.0,0.0,0.0,0.0,0.0,0.0,0.0,0.0,0.0,0.0,0.0,0.0,0.0,0.0,0.0,0.0,0.0,0.0,0.0,0.0,0.0,0.0,0.0,0.0,0.0,0.0,0.0,0.0,0.0,0.0,0.0,0.0,0.0,0.0,0.0,0.0,0.0,0.0,0.0,0.0,0.0,0.0,0.0,0.0,0.0,0.0,0.0,0.0,0.0,0.0,0.0,-0.0642,0.0,-0.1394,-0.1792,-0.1512,-0.1512,0.0,0.0,0.0,0.0,0.0,0.0,0.0,0.0,0.0,0.0,0.0,0.0,0.0,0.0,0.0,0.0,0.0,0.0,0.0,0.0,0.0,0.0,0.0,0.0,0.0,0.0,0.0,0.0,0.0,0.0,0.0,0.0,0.0,0.0,0.0,0.0,0.0,0.0,0.0,0.0,0.0,0.0,0.0,0.0,0.0,0.0,0.0,0.0,0.0,0.0,0.0,0.0,0.0,0.0,0.0,0.0,0.0,0.0,0.0,0.0,0.0,0.0,0.0,0.0,0.0,0.0,0.0,0.0,0.0,0.0,0.0,0.0,0.0,0.0,0.0,0.0,0.0,0.0,0.0,0.0,0.0,0.0,0.0,0.0,0.0,0.0,0.0,0.0,0.0,0.0,0.0,0.0,0.0,0.0,0.0,0.0,0.0,0.0,0.0,0.0,0.0,0.0,0.0,0.0,0.0,0.0,0.0,0.0,-0.05,-0.0687,-0.1087,-0.1295,-0.1307,-0.1475,-0.1645,0.0,0.0,0.0,0.0,0.0,0.0,0.0,0.0,0.0,0.0,0.0,0.0,0.0,0.0,0.0,0.0,0.0,0.0,0.0,0.0,0.0,0.0,0.0,0.0,0.0,0.0,0.0,0.0,0.0,0.0,0.0,0.0,0.0,0.0,0.0,0.0,0.0,0.0,0.0,0.0,0.0,0.0,0.0,0.0,0.0,0.0,0.0,0.0,0.0,0.0,0.0,0.0,0.0,0.0,0.0,0.0,0.0,0.0,0.0,0.0,0.0,0.0,0.0,0.0,0.0,0.0,0.0,0.0,0.0,0.0,0.0,0.0,0.0,0.0,0.0,0.0,0.0,0.0,0.0,0.0,0.0,0.0,0.0,0.0,0.0,0.0,0.0,0.0,0.0,0.0,0.0,0.0,0.0,0.0,0.0,0.0,0.0,0.0,0.0,0.0,0.0,0.0,0.0,0.0,0.0,0.0,0.0,0.0,0.0,-0.0374,-0.0828,-0.1064,-0.1024,-0.1216,-0.1448,0.0,0.0,0.0,0.0,0.0,0.0,0.0,0.0,0.0,0.0,0.0,0.0,0.0,0.0,0.0,0.0,0.0,0.0,0.0,0.0,0.0,0.0,0.0,0.0,0.0,0.0,0.0,0.0,0.0,0.0,0.0,0.0,0.0,0.0,0.0,0.0,0.0,0.0,0.0,0.0,0.0,0.0,0.0,0.0,0.0,0.0,0.0,0.0,0.0,0.0,0.0,0.0,0.0,0.0,0.0,0.0,0.0,0.0,0.0,0.0,0.0,0.0,0.0,0.0,0.0,0.0,0.0,0.0,0.0,0.0,0.0,0.0,0.0,0.0,0.0,0.0,0.0,0.0,0.0,0.0,0.0,0.0,0.0,0.0,0.0,0.0,0.0,0.0,0.0,0.0,0.0,0.0,0.0,0.0,0.0,0.0,0.0,0.0,0.0,0.0,0.0,0.0,0.0,0.0,0.0,0.0,0.0,0.0,0.0,-0.2213,-0.2434,-0.2442,-0.2216,-0.2485,-0.2319,-0.1653,0.0,0.0,0.0,0.0,0.0,0.0,0.0,0.0,0.0,0.0,0.0,0.0,0.0,0.0,0.0,0.0,0.0,0.0,0.0,0.0,0.0,0.0,0.0,0.0,0.0,0.0,0.0,0.0,0.0,0.0,0.0,0.0,0.0,0.0,0.0,0.0,0.0,0.0,0.0,0.0,0.0,0.0,0.0,0.0,0.0,0.0,0.0,0.0,0.0,0.0,0.0,0.0,0.0,0.0,0.0,0.0,0.0,0.0,0.0,0.0,0.0,0.0,0.0,0.0,0.0,0.0,0.0,0.0,0.0,0.0,0.0,0.0,0.0,0.0,0.0,0.0,0.0,0.0,0.0,0.0,0.0,0.0,0.0,0.0,0.0,0.0,0.0,0.0,0.0,0.0,0.0,0.0,0.0,0.0,0.0,0.0,0.0,0.0,0.0,0.0,0.0,0.0,0.0,0.0,0.0,0.0,0.0,0.0,-0.5656,-0.5651,-0.5316,-0.47,-0.4942,-0.4036,0.0,0.0,0.0,0.0,0.0,0.0,0.0,0.0,0.0,0.0,0.0,0.0,0.0,0.0,0.0,0.0,0.0,0.0,0.0,0.0,0.0,0.0,0.0,0.0,0.0,0.0,0.0,0.0,0.0,0.0,0.0,0.0,0.0,0.0,0.0,0.0,0.0,0.0,0.0,0.0,0.0,0.0,0.0,0.0,0.0,0.0,0.0,0.0,0.0,0.0,0.0,0.0,0.0,0.0,0.0,0.0,0.0,0.0,0.0,0.0,0.0,0.0,0.0,0.0,0.0,0.0,0.0,0.0,0.0,0.0,0.0,0.0,0.0,0.0,0.0,0.0,0.0,0.0,0.0,0.0,0.0,0.0,0.0,0.0,0.0,0.0,0.0,0.0,0.0,0.0,0.0,0.0,0.0,0.0,0.0,0.0,0.0,0.0,0.0,0.0,0.0,0.0,0.0,0.0,0.0,0.0,0.0,0.0,0.0,-0.7683,-0.9631,-0.9801,-0.7982,-0.6245,-0.4901,0.0,0.0,0.0,0.0,0.0,0.0,0.0,0.0,0.0,0.0,0.0,0.0,0.0,0.0,0.0,0.0,0.0,0.0,0.0,0.0,0.0,0.0,0.0,0.0,0.0,0.0,0.0,0.0,0.0,0.0,0.0,0.0,0.0,0.0,0.0,0.0,0.0,0.0,0.0,0.0,0.0,0.0,0.0,0.0,0.0,0.0,0.0,0.0,0.0,0.0,0.0,0.0,0.0,0.0,0.0,0.0,0.0,0.0,0.0,0.0,0.0,0.0,0.0,0.0,0.0,0.0,0.0,0.0,0.0,0.0,0.0,0.0,0.0,0.0,0.0,0.0,0.0,0.0,0.0,0.0,0.0,0.0,0.0,0.0,0.0,0.0,0.0,0.0,0.0,0.0,0.0,0.0,0.0,0.0,0.0,0.0,0.0,0.0,0.0,0.0,0.0,0.0,0.0,0.0,0.0,0.0,0.0,0.0,-0.7246,-0.9263,-1.2361,-1.3531,-1.2431,-0.9094,-0.6568,0.0,0.0,0.0,0.0,0.0,0.0,0.0,0.0,0.0,0.0,0.0,0.0,0.0,0.0,0.0,0.0,0.0,0.0,0.0,0.0,0.0,0.0,0.0,0.0,0.0,0.0,0.0,0.0,0.0,0.0,0.0,0.0,0.0,0.0,0.0,0.0,0.0,0.0,0.0,0.0,0.0,0.0,0.0,0.0,0.0,0.0,0.0,0.0,0.0,0.0,0.0,0.0,0.0,0.0,0.0,0.0,0.0,0.0,0.0,0.0,0.0,0.0,0.0,0.0,0.0,0.0,0.0,0.0,0.0,0.0,0.0,0.0,0.0,0.0,0.0,0.0,0.0,0.0,0.0,0.0,0.0,0.0,0.0,0.0,0.0,0.0,0.0,0.0,0.0,0.0,0.0,0.0,0.0,0.0,0.0,0.0,0.0,0.0,0.0,0.0,0.0,0.0,0.0,0.0,0.0,0.0,0.0,0.0,-0.9054,-1.0525,-1.4118,-1.6255,-1.6584,-1.2313,-0.8588,0.0,0.0,0.0,0.0,0.0,0.0,0.0,0.0,0.0,0.0,0.0,0.0,0.0,0.0,0.0,0.0,0.0,0.0,0.0,0.0,0.0,0.0,0.0,0.0,0.0,0.0,0.0,0.0,0.0,0.0,0.0,0.0,0.0,0.0,0.0,0.0,0.0,0.0,0.0,0.0,0.0,0.0,0.0,0.0,0.0,0.0,0.0,0.0,0.0,0.0,0.0,0.0,0.0,0.0,0.0,0.0,0.0,0.0,0.0,0.0,0.0,0.0,0.0,0.0,0.0,0.0,0.0,0.0,0.0,0.0,0.0,0.0,0.0,0.0,0.0,0.0,0.0,0.0,0.0,0.0,0.0,0.0,0.0,0.0,0.0,0.0,0.0,0.0,0.0,0.0,0.0,0.0,0.0,0.0,0.0,0.0,0.0,0.0,0.0,0.0,0.0,0.0,0.0,0.0,0.0,0.0,0.0,0.0,-0.9858,-1.186,-1.4818,-1.6343,-1.6149,-1.2206,-0.945,0.0,0.0,0.0,0.0,0.0,0.0,0.0,0.0,0.0,0.0,0.0,0.0,0.0,0.0,0.0,0.0,0.0,0.0,0.0,0.0,0.0,0.0,0.0,0.0,0.0,0.0,0.0,0.0,0.0,0.0,0.0,0.0,0.0,0.0,0.0,0.0,0.0,0.0,0.0,0.0,0.0,0.0,0.0,0.0,0.0,0.0,0.0,0.0,-0.3152,0.0,0.0,0.0,0.0,0.0,0.0,0.0,0.0,0.0,0.0,0.0,0.0,0.0,0.0,0.0,0.0,0.0,0.0,0.0,0.0,0.0,0.0,0.0,0.0,0.0,0.0,0.0,0.0,0.0,0.0,0.0,0.0,0.0,0.0,0.0,0.0,0.0,0.0,0.0,0.0,0.0,0.0,0.0,0.0,0.0,0.0,0.0,0.0,0.0,0.0,0.0,0.0,0.0,0.0,0.0,0.0,0.0,0.0,0.0,-1.0135,-1.2443,-1.4871,-1.6066,-1.5789,-1.2829,-1.0542,0.0,0.0,0.0,0.0,0.0,0.0,0.0,0.0,0.0,0.0,0.0,0.0,0.0,0.0,0.0,0.0,0.0,0.0,0.0,0.0,0.0,0.0,0.0,0.0,0.0,0.0,0.0,0.0,0.0,0.0,0.0,0.0,0.0,0.0,0.0,0.0,0.0,0.0,0.0,0.0,0.0,0.0,0.0,0.0,0.0,0.0,0.0,0.0,0.0,0.0,0.0,0.0,0.0,0.0,0.0,0.0,0.0,0.0,0.0,0.0,0.0,0.0,0.0,0.0,0.0,0.0,0.0,0.0,0.0,0.0,0.0,0.0,0.0,0.0,0.0,0.0,0.0,0.0,0.0,0.0,0.0,0.0,0.0,0.0,0.0,0.0,0.0,0.0,0.0,0.0,0.0,0.0,0.0,0.0,0.0,0.0,0.0,0.0,0.0,0.0,0.0,0.0,0.0,0.0,0.0,0.0,0.0,-0.793,-1.0388,-1.2939,-1.4842,-1.5793,-1.5705,-1.3605,-1.1569,-0.9633,0.0,0.0,0.0,0.0,0.0,0.0,0.0,0.0,0.0,0.0,0.0,0.0,0.0,0.0,0.0,0.0,0.0,0.0,0.0,0.0,0.0,0.0,0.0,0.0,0.0,0.0,0.0,0.0,0.0,0.0,0.0,0.0,0.0,0.0,0.0,0.0,0.0,0.0,-0.1473,-0.1319,0.0,0.0,0.0,0.0,0.0,0.0,0.0,0.0,-0.2508,0.0,0.0,0.0,0.0,0.0,0.0,0.0,0.0,0.0,0.0,0.0,0.0,0.0,0.0,0.0,0.0,0.0,0.0,0.0,0.0,0.0,0.0,0.0,0.0,0.0,0.0,0.0,0.0,0.0,0.0,0.0,0.0,0.0,0.0,0.0,0.0,0.0,0.0,0.0,0.0,0.0,0.0,0.0,0.0,0.0,0.0,0.0,0.0,0.0,0.0,0.0,0.0,0.0,0.0,0.0,0.0,-0.7641,-0.9076,-1.1271,-1.4285,-1.5286,-1.564,-1.5225,-1.379,-1.2038,-0.9884,0.0,0.0,0.0,0.0,0.0,0.0,0.0,0.0,0.0,0.0,0.0,0.0,0.0,0.0,0.0,0.0,0.0,0.0,0.0,0.0,0.0,0.0,0.0,0.0,0.0,0.0,0.0,0.0,0.0,0.0,0.0,0.0,0.0,0.0,0.0,0.0,0.0,0.0,0.0,-0.186,-0.17,0.0,0.0,0.0,0.0,0.0,0.0,0.0,0.0,-0.3862,0.0,0.0,0.0,0.0,0.0,0.0,0.0,0.0,0.0,0.0,0.0,0.0,0.0,0.0,0.0,0.0,0.0,0.0,0.0,0.0,0.0,0.0,0.0,0.0,0.0,0.0,0.0,0.0,0.0,0.0,0.0,0.0,0.0,0.0,0.0,0.0,0.0,0.0,0.0,0.0,0.0,0.0,0.0,0.0,0.0,0.0,0.0,0.0,0.0,0.0,0.0,0.0,0.0,0.0,0.0,-0.8445,-0.9789,-1.1873,-1.4703,-1.5224,-1.5345,-1.5094,-1.3541,-1.1789,0.0,0.0,0.0,0.0,0.0,0.0,0.0,0.0,0.0,0.0,0.0,0.0,0.0,0.0,0.0,0.0,0.0,0.0,0.0,0.0,0.0,0.0,0.0,0.0,0.0,0.0,0.0,0.0,0.0,0.0,0.0,0.0,0.0,0.0,0.0,0.0,0.0,0.0,0.0,0.0,-0.2585,-0.2698,-0.3655,0.0,0.0,0.0,0.0,0.0,0.0,-0.3729,-0.3476,0.0,0.0,0.0,0.0,0.0,0.0,0.0,0.0,0.0,0.0,0.0,0.0,0.0,0.0,0.0,0.0,0.0,0.0,0.0,0.0,0.0,0.0,0.0,0.0,0.0,0.0,0.0,0.0,0.0,0.0,0.0,0.0,0.0,0.0,0.0,0.0,0.0,0.0,0.0,0.0,0.0,0.0,0.0,0.0,0.0,0.0,0.0,0.0,0.0,0.0,0.0,0.0,0.0,0.0,0.0,-0.8827,-1.0377,-1.2287,-1.4575,-1.4806,-1.4903,-1.4871,-1.2864,-1.1166,0.0,0.0,0.0,0.0,0.0,0.0,0.0,0.0,0.0,0.0,0.0,0.0,0.0,0.0,0.0,0.0,0.0,0.0,0.0,0.0,0.0,0.0,0.0,0.0,0.0,0.0,0.0,0.0,0.0,0.0,0.0,0.0,0.0,0.0,0.0,0.0,0.0,0.0,0.0,0.0,0.0,-0.3637,-0.45,-0.3926,0.0,0.0,0.0,0.0,-0.355,-0.3601,0.0,0.0,0.0,0.0,0.0,0.0,0.0,0.0,0.0,0.0,0.0,0.0,0.0,0.0,0.0,0.0,0.0,0.0,0.0,0.0,0.0,0.0,0.0,0.0,0.0,0.0,0.0,0.0,0.0,0.0,0.0,0.0,0.0,0.0,0.0,0.0,0.0,0.0,0.0,0.0,0.0,0.0,0.0,0.0,0.0,0.0,0.0,0.0,0.0,0.0,0.0,0.0,0.0,0.0,0.0,0.0,-0.9042,-1.0746,-1.2436,-1.3984,-1.4105,-1.4178,-1.4276,-1.1661,-1.0254,0.0,0.0,0.0,0.0,0.0,0.0,0.0,0.0,0.0,0.0,0.0,0.0,0.0,0.0,0.0,0.0,0.0,0.0,0.0,0.0,0.0,0.0,0.0,0.0,0.0,0.0,0.0,0.0,0.0,0.0,0.0,0.0,0.0,0.0,0.0,0.0,0.0,0.0,0.0,0.0,0.0,-0.3892,-0.4815,-0.3972,-0.3187,0.0,0.0,-0.5079,-0.5517,-0.6439,0.0,0.0,0.0,0.0,0.0,0.0,0.0,0.0,0.0,0.0,0.0,0.0,0.0,0.0,0.0,0.0,0.0,0.0,0.0,0.0,0.0,0.0,0.0,0.0,0.0,0.0,0.0,0.0,0.0,0.0,0.0,0.0,0.0,0.0,0.0,0.0,0.0,0.0,0.0,0.0,0.0,0.0,0.0,0.0,0.0,0.0,0.0,0.0,0.0,0.0,0.0,0.0,0.0,0.0,0.0,-0.7936,-0.9209,-1.1177,-1.2754,-1.3931,-1.402,-1.3882,-1.3686,-1.1274,-0.9896,0.0,0.0,0.0,0.0,0.0,0.0,0.0,0.0,0.0,0.0,0.0,0.0,0.0,0.0,0.0,0.0,0.0,0.0,0.0,0.0,0.0,0.0,0.0,0.0,0.0,0.0,0.0,0.0,0.0,0.0,0.0,0.0,0.0,0.0,0.0,0.0,0.0,0.0,0.0,0.0,0.0,0.0,-0.4941,-0.472,0.0,0.0,0.0,-0.5065,-0.43,0.0,0.0,0.0,0.0,0.0,0.0,0.0,0.0,0.0,0.0,0.0,0.0,0.0,0.0,0.0,0.0,0.0,0.0,0.0,0.0,0.0,0.0,0.0,0.0,0.0,0.0,0.0,0.0,0.0,0.0,0.0,0.0,0.0,0.0,0.0,0.0,0.0,0.0,0.0,0.0,0.0,0.0,0.0,0.0,0.0,0.0,0.0,0.0,0.0,0.0,0.0,0.0,0.0,0.0,0.0,0.0,0.0,-0.9323,-1.1464,-1.3057,-1.3884,-1.3915,-1.3693,-1.3218,-1.1233,0.0,0.0,0.0,0.0,0.0,0.0,0.0,0.0,0.0,0.0,0.0,0.0,0.0,0.0,0.0,0.0,0.0,0.0,0.0,0.0,0.0,0.0,0.0,0.0,0.0,0.0,0.0,-0.2514,0.0,0.0,0.0,0.0,0.0,0.0,0.0,0.0,0.0,0.0,0.0,0.0,0.0,0.0,-0.5426,-0.5111,-0.5372,-0.5596,0.0,0.0,-0.5118,-0.4318,-0.6334,-0.7238,0.0,0.0,0.0,0.0,0.0,0.0,0.0,0.0,0.0,0.0,0.0,0.0,0.0,0.0,0.0,0.0,0.0,0.0,0.0,0.0,0.0,0.0,0.0,0.0,0.0,0.0,0.0,0.0,0.0,0.0,0.0,0.0,0.0,0.0,0.0,0.0,0.0,0.0,0.0,0.0,0.0,0.0,0.0,0.0,0.0,0.0,0.0,0.0,0.0,0.0,0.0,0.0,0.0,0.0,0.0,-0.9332,-1.1657,-1.3159,-1.38,-1.3716,-1.345,-1.3073,-1.1626,-1.034,0.0,0.0,0.0,0.0,0.0,0.0,0.0,0.0,0.0,0.0,0.0,0.0,0.0,0.0,0.0,0.0,0.0,0.0,0.0,0.0,0.0,0.0,0.0,0.0,0.0,0.0,0.0,0.0,0.0,0.0,0.0,0.0,0.0,0.0,0.0,0.0,0.0,0.0,0.0,0.0,0.0,-0.5649,-0.5461,-0.5562,-0.6095,0.0,0.0,-0.5942,-0.751,-0.8806,-0.8982,-0.7008,0.0,0.0,0.0,0.0,0.0,0.0,0.0,0.0,0.0,0.0,0.0,0.0,0.0,0.0,0.0,0.0,0.0,0.0,0.0,0.0,0.0,0.0,0.0,0.0,0.0,0.0,0.0,0.0,0.0,0.0,0.0,0.0,0.0,0.0,0.0,0.0,0.0,0.0,0.0,0.0,0.0,0.0,0.0,0.0,0.0,0.0,0.0,0.0,0.0,0.0,0.0,0.0,0.0,-0.8268,-0.8947,-1.1538,-1.3144,-1.3647,-1.361,-1.3269,-1.248,-1.1432,-1.0086,0.0,0.0,0.0,0.0,0.0,0.0,0.0,0.0,0.0,0.0,0.0,0.0,0.0,0.0,0.0,0.0,0.0,0.0,0.0,0.0,0.0,0.0,0.0,0.0,0.0,0.0,0.0,0.0,-0.33,-0.3229,-0.2562,0.0,0.0,0.0,0.0,0.0,0.0,0.0,0.0,0.0,0.0,-0.5906,-0.694,-0.6974,0.0,0.0,-0.7431,-0.6906,-0.6484,-0.7751,-0.837,-0.7104,-0.5396,0.0,0.0,0.0,0.0,0.0,0.0,0.0,0.0,0.0,0.0,0.0,0.0,0.0,0.0,0.0,0.0,0.0,0.0,0.0,0.0,0.0,0.0,0.0,0.0,0.0,0.0,0.0,0.0,0.0,0.0,0.0,0.0,0.0,0.0,0.0,0.0,0.0,0.0,0.0,0.0,0.0,0.0,0.0,0.0,0.0,0.0,0.0,0.0,0.0,0.0,0.0,0.0,-0.8106,-0.8721,-1.1451,-1.3099,-1.361,-1.361,-1.3191,-1.2341,-1.1616,-1.0417,0.0,0.0,0.0,0.0,0.0,0.0,0.0,0.0,0.0,0.0,0.0,0.0,0.0,0.0,0.0,0.0,0.0,0.0,0.0,0.0,0.0,0.0,0.0,0.0,0.0,0.0,0.0,0.0,-0.277,-0.2399,-0.2445,0.0,0.0,0.0,0.0,0.0,0.0,0.0,0.0,0.0,0.0,-0.6395,-0.7264,-0.7189,-0.7132,-0.7391,-0.7098,-0.6581,-0.5741,-0.6671,-0.7295,-0.6661,0.0,0.0,0.0,0.0,0.0,0.0,0.0,0.0,0.0,0.0,0.0,0.0,0.0,0.0,0.0,0.0,0.0,0.0,0.0,0.0,0.0,0.0,0.0,0.0,0.0,0.0,0.0,0.0,0.0,0.0,-0.3835,0.0,0.0,0.0,0.0,0.0,0.0,0.0,0.0,0.0,0.0,0.0,0.0,0.0,0.0,0.0,0.0,0.0,0.0,0.0,0.0,0.0,0.0,-0.799,-0.869,-1.146,-1.3165,-1.36,-1.361,-1.3346,-1.2861,-1.2482,-1.1592,-1.0244,0.0,0.0,0.0,0.0,0.0,0.0,0.0,0.0,0.0,0.0,0.0,0.0,0.0,0.0,0.0,0.0,0.0,0.0,0.0,0.0,0.0,0.0,0.0,0.0,0.0,0.0,-0.269,-0.28,-0.2844,0.0,0.0,0.0,0.0,0.0,0.0,0.0,0.0,0.0,0.0,-0.5911,-0.7114,-0.6069,-0.5864,-0.6053,-0.6449,-0.5169,-0.4599,-0.5859,-0.5939,-0.5859,0.0,0.0,0.0,0.0,0.0,0.0,0.0,0.0,0.0,0.0,0.0,0.0,0.0,0.0,0.0,0.0,0.0,0.0,0.0,0.0,0.0,0.0,0.0,0.0,0.0,0.0,0.0,-0.7234,-0.6821,0.0,0.0,0.0,0.0,0.0,0.0,0.0,0.0,0.0,0.0,0.0,-0.8225,-0.8505,0.0,0.0,0.0,0.0,0.0,0.0,0.0,0.0,0.0,0.0,0.0,0.0,-0.8093,-0.8688,-1.1759,-1.3465,-1.36,-1.3515,-1.3252,-1.2857,-1.2284,-1.1223,-0.962,0.0,0.0,0.0,0.0,0.0,0.0,0.0,0.0,0.0,0.0,0.0,0.0,0.0,0.0,0.0,0.0,0.0,0.0,0.0,0.0,0.0,0.0,0.0,0.0,0.0,-0.2941,0.0,0.0,0.0,0.0,0.0,0.0,0.0,0.0,0.0,0.0,0.0,-0.4056,-0.5009,-0.5269,-0.5595,-0.6173,-0.6163,-0.6534,0.0,0.0,0.0,0.0,0.0,0.0,0.0,0.0,0.0,0.0,0.0,0.0,0.0,0.0,-0.4699,-0.3545,-0.4019,-0.4639,-0.4655,0.0,0.0,0.0,0.0,0.0,0.0,0.0,0.0,0.0,0.0,0.0,0.0,0.0,0.0,-0.9255,0.0,-0.878,0.0,0.0,0.0,0.0,0.0,0.0,0.0,0.0,-0.9238,-1.05,-1.1058,-1.1306,-1.1003,0.0,-0.9418,-0.7348,0.0,0.0,0.0,0.0,0.0,0.0,0.0,0.0,-0.8419,-0.8813,-1.2091,-1.3859,-1.3848,-1.3608,-1.3334,-1.3094,-1.2355,-1.1386,-1.0059,-0.9301,-0.8523,0.0,0.0,0.0,0.0,0.0,0.0,0.0,0.0,0.0,0.0,0.0,0.0,0.0,0.0,0.0,0.0,0.0,0.0,0.0,0.0,0.0,0.0,0.0,-0.3177,0.0,0.0,0.0,0.0,0.0,0.0,0.0,0.0,0.0,-0.3634,-0.4136,-0.492,-0.5903,-0.5827,-0.571,-0.5914,0.0,0.0,0.0,0.0,0.0,0.0,0.0,-0.4277,-0.3881,-0.4371,-0.5072,-0.6013,-0.6544,-0.6918,-0.7225,0.0,0.0,-0.5424,-0.5846,-0.6466,-0.6431,-0.6498,-0.6569,-0.6491,-0.6635,-0.6742,0.0,0.0,0.0,0.0,0.0,0.0,0.0,0.0,-1.2095,-1.0575,0.0,-1.0488,0.0,0.0,0.0,0.0,0.0,-0.8357,0.0,0.0,-1.4917,-1.6118,-1.4387,-1.4013,-1.3621,-1.3064,-1.0665,-0.9481,-0.9505,-0.9529,0.0,0.0,0.0,0.0,0.0,0.0,-0.899,-0.9258,-1.255,-1.4324,-1.4283,-1.3869,-1.3573,-1.3511,-1.2741,-1.2068,-1.1592,-1.0348,-0.9808,-1.0147,-0.8024,0.0,0.0,0.0,0.0,0.0,0.0,0.0,0.0,0.0,0.0,0.0,0.0,0.0,0.0,0.0,0.0,0.0,0.0,0.0,0.0,-0.4823,0.0,0.0,0.0,0.0,0.0,0.0,0.0,0.0,0.0,0.0,-0.3975,-0.4951,-0.5867,-0.6192,0.0,0.0,0.0,0.0,-0.5966,-0.3551,-0.3113,-0.3161,-0.3013,-0.4066,-0.5405,-0.6751,0.0,0.0,-0.9665,-0.8303,-0.7285,-0.7214,-0.8539,-0.8972,-0.7432,-0.7128,-0.7062,-0.7143,-0.7145,-0.6941,-0.7068,-0.7344,-0.7279,-1.8501,0.0,0.0,0.0,0.0,-1.3217,-1.3997,-1.5743,-1.5694,-1.4746,-1.3264,-1.3852,0.0,0.0,0.0,0.0,0.0,0.0,-1.0959,-1.338,-1.505,-1.631,-1.7207,-1.721,-1.6786,-1.599,-1.4891,-1.4336,-1.4234,-1.4503,-1.1621,-0.582,0.0,0.0,0.0,0.0,-0.9753,-1.1539,-1.3708,-1.4645,-1.4314,-1.408,-1.3593,-1.2924,-1.274,-1.2446,-1.1941,-1.1908,-1.1484,-1.0742,-1.0321,0.0,0.0,0.0,0.0,0.0,0.0,0.0,0.0,0.0,0.0,0.0,0.0,0.0,0.0,0.0,0.0,0.0,0.0,0.0,-0.544,-0.6242,-0.5773,0.0,0.0,0.0,0.0,0.0,0.0,0.0,0.0,0.0,-0.5769,-0.5305,-0.4969,0.0,0.0,-0.4323,-0.364,-0.472,-0.5814,-0.6318,-0.636,0.0,-0.7933,-0.7536,-0.7316,-0.7747,-0.9082,-1.0177,-1.0441,-1.0564,-1.0643,-1.0835,-1.0947,-1.0777,-1.0428,-1.0258,-1.021,-1.0226,-1.0185,-1.0217,-1.0233,-1.0253,-1.0239,-2.2817,-2.0518,-1.7421,-1.6542,-1.7151,-1.6522,-1.7148,-1.859,-1.8616,-1.7534,-1.5786,-1.6731,-1.4977,-1.1165,-1.0832,0.0,0.0,0.0,-1.3397,-1.6377,-1.659,-1.7412,-1.8648,-1.8737,-1.8289,-1.7489,-1.709,-1.6828,-1.6594,-1.5847,-1.3322,-0.902,0.0,0.0,-0.7564,-0.9492,-1.1249,-1.2693,-1.4387,-1.5132,-1.4852,-1.4389,-1.3805,-1.3052,-1.2894,-1.2713,-1.2446,-1.2528,-1.2317,-1.1737,-1.1361,-1.0296,0.0,0.0,0.0,0.0,0.0,0.0,0.0,0.0,0.0,0.0,0.0,-0.6337,0.0,0.0,0.0,0.0,-0.492,-0.5634,-0.6294,-0.652,0.0,0.0,0.0,0.0,0.0,0.0,0.0,-0.4342,-0.5584,-0.6597,-0.6798,-0.6129,-0.5817,-0.6315,-0.5889,-0.535,-0.4904,0.0,-0.7077,-0.7683,-0.7638,-0.7976,-0.9017,-0.8966,-0.8931,-0.9532,-1.0258,-1.0868,-1.1209,-1.1645,-1.1926,-1.2043,-1.1823,-1.1622,-1.1622,-1.1622,-1.1622,-1.1622,-1.1622,-1.1622,-1.1622,-1.1622,-1.1622,-2.6818,-2.618,-2.0572,-1.9322,-2.0876,-1.9956,-2.0092,-2.094,-2.0967,-1.9293,-1.6797,-1.9039,-1.7409,-1.295,-1.2517,0.0,-1.5367,-1.5073,-1.6459,-1.9218,-1.8971,-1.898,-1.9174,-1.904,-1.8614,-1.7952,-1.7689,-1.7479,-1.7246,-1.5029,-1.3797,-1.3724,-1.3734,-1.2377,-0.9987,-1.1748,-1.2878,-1.2995,-1.4627,-1.5574,-1.567,-1.478,-1.4107,-1.3683,-1.3217,-1.2944,-1.2923,-1.2586,-1.2609,-1.2882,-1.1671,-1.0647,-0.9969,0.0,0.0,0.0,0.0,0.0,0.0,0.0,0.0,0.0,0.0,0.0,0.0,0.0,0.0,0.0,-0.5504,0.0,-0.7548,-0.6357,0.0,0.0,0.0,-0.6072,-0.7374,-0.7468,-0.744,-0.741,0.0,0.0,-0.7394,-0.7389,-0.7874,-0.915,-0.9298,-0.8847,-0.7731,-0.8639,-0.912,-0.8034,-0.7941,-0.8012,-0.8497,-0.9254,-1.0316,-1.1567,-1.1831,-1.1738,-1.1963,-1.1781,-1.1626,-1.1655,-1.1645,-1.1622,-1.1622,-1.1622,-1.1622,-1.1622,-1.1622,-1.1622,-1.1622,-1.1622,-1.1622,-2.8685,-2.8762,-2.612,-2.4876,-2.4506,-2.3584,-2.3172,-2.3074,-2.2448,-2.1276,-1.9823,-2.0257,-1.94,-1.757,-1.7286,-1.7645,-1.8482,-1.8106,-1.8632,-1.9763,-1.9533,-1.9389,-1.9356,-1.8999,-1.8732,-1.8441,-1.8084,-1.792,-1.7909,-1.7189,-1.5924,-1.4218,-1.3902,-1.2461,-1.0061,-1.0543,-1.1653,-1.3131,-1.3584,-1.4474,-1.5781,-1.4945,-1.4411,-1.4296,-1.3741,-1.3455,-1.3445,-1.3351,-1.3388,-1.3596,-1.3145,-1.2318,-1.1008,-0.9328,0.0,0.0,0.0,0.0,0.0,0.0,0.0,0.0,0.0,-0.6708,-0.5547,0.0,-0.6043,0.0,-0.6044,-0.7735,-0.9231,-0.9125,0.0,0.0,-0.7387,-0.718,-0.7493,-0.8145,-0.8287,-0.7552,-0.8156,-0.8683,-0.9013,-0.9041,-0.953,-1.0777,-0.9193,-0.7829,-0.7645,-0.8783,-0.9566,-0.9507,-1.0197,-1.1042,-1.1135,-1.157,-1.1845,-1.2305,-1.2328,-1.2328,-1.2387,-1.2131,-1.1926,-1.1911,-1.1714,-1.1645,-1.1622,-1.1622,-1.1622,-1.174,-1.1677,-1.1622,-1.1622,-1.1622,-1.1622,-2.9077,-2.9214,-2.8325,-2.7501,-2.6805,-2.5873,-2.4934,-2.397,-2.3467,-2.2658,-2.1591,-2.1282,-2.0838,-2.0274,-1.9919,-1.9948,-2.0188,-1.9795,-1.9812,-2.0169,-1.9811,-1.9604,-1.946,-1.9263,-1.904,-1.8774,-1.8572,-1.8581,-1.8669,-1.8417,-1.7616,-1.6245,-1.5934,-1.441,-1.1731,-1.0626,-1.0683,-1.1913,-1.2859,-1.4194,-1.5825,-1.5185,-1.4407,-1.358,-1.2994,-1.2375,-1.1687,-1.1771,-1.1948,-1.2371,-1.2173,-1.1779,-1.1145,-0.9215,-0.7464,0.0,0.0,0.0,0.0,0.0,0.0,0.0,0.0,0.0,0.0,0.0,-0.7357,-0.6241,-0.7287,-0.8399,-0.9314,-0.9367,-0.9308,-0.9241,-0.9155,-0.9277,-0.9816,-1.0346,-1.0463,-0.9924,-1.0207,-1.0507,-1.0678,-1.064,-1.082,-1.1509,-1.0282,-0.9301,-0.9373,-1.0045,-1.052,-1.0752,-1.1312,-1.1882,-1.2072,-1.2094,-1.2094,-1.2094,-1.2094,-1.2094,-1.2087,-1.1955,-1.1823,-1.1816,-1.174,-1.1685,-1.1685,-1.1747,-1.1809,-1.1872,-1.1872,-1.1809,-1.1809,-1.1809,-1.1809,-2.8967,-2.8793,-2.8652,-2.8477,-2.8155,-2.7319,-2.5986,-2.4405,-2.4197,-2.3514,-2.2526,-2.2016,-2.1793,-2.1602,-2.1229,-2.1046,-2.0983,-2.0636,-2.0422,-2.0372,-2.0016,-1.9708,-1.9617,-1.9577,-1.9408,-1.904,-1.9112,-1.9282,-1.9479,-1.9233,-1.8834,-1.8396,-1.8153,-1.6514,-1.358,-1.1285,-1.0179,-1.0378,-1.2509,-1.4272,-1.5579,-1.4914,-1.3761,-1.2213,-1.1517,-1.0635,-0.9418,-0.9484,-0.9851,-1.0533,-1.0211,-1.0356,-1.1084,-0.874,-0.7119,0.0,-0.5677,0.0,0.0,0.0,0.0,0.0,0.0,0.0,0.0,-0.9191,-0.9221,-0.9212,-0.8942,-0.8862,-0.9169,-0.9141,-0.96,-1.0825,-1.1169,-1.1712,-1.2676,-1.2805,-1.2805,-1.2805,-1.2428,-1.2127,-1.2097,-1.1996,-1.1802,-1.1685,-1.1586,-1.141,-1.1538,-1.1531,-1.1476,-1.1622,-1.163,-1.1744,-1.1744,-1.1722,-1.1729,-1.1707,-1.1737,-1.1685,-1.1722,-1.1714,-1.1692,-1.17,-1.1817,-1.1872,-1.1872,-1.1996,-1.212,-1.212,-1.2127,-1.212,-1.2058,-1.2065,-1.2065,-2.9959,-2.9656,-2.9013,-2.8541,-2.8171,-2.7868,-2.7221,-2.6216,-2.4828,-2.3652,-2.2663,-2.2249,-2.203,-2.1888,-2.1602,-2.1361,-2.1131,-2.0772,-2.051,-2.0372,-2.0003,-1.9708,-1.9617,-1.946,-1.942,-1.934,-1.9756,-2.0012,-2.0068,-2.0353,-1.9246,-1.6868,-1.6545,-1.4997,-1.2206,0.0,0.0,0.0,-1.2657,-1.3946,-1.4241,-1.2145,-1.0862,-1.0612,-1.0048,0.0,-0.9653,-0.9645,-0.9744,-0.9942,-0.988,0.0,0.0,0.0,0.0,0.0,0.0,0.0,0.0,0.0,0.0,0.0,-0.898,-0.9307,-0.9073,-0.9089,-0.967,-1.0959,-1.0751,-1.1099,-1.2376,-1.2376,-1.2459,-1.2882,-1.2906,-1.2895,-1.2972,-1.2867,-1.2805,-1.2805,-1.2552,-1.2428,-1.2498,-1.2305,-1.2189,-1.2003,-1.1996,-1.1941,-1.1809,-1.1685,-1.1685,-1.1747,-1.1872,-1.2003,-1.2003,-1.2003,-1.1996,-1.2003,-1.1996,-1.2003,-1.2003,-1.2003,-1.1996,-1.2003,-1.1996,-1.2058,-1.2058,-1.2065,-1.212,-1.2243,-1.2243,-1.2243,-1.212,-1.2065,-1.2065,-3.0323,0.0,-2.9171,-2.8652,0.0,-2.8103,-2.7758,-2.7267,-2.5642,-2.4442,-2.358,-2.3259,-2.3026,-2.281,-2.2136,-2.1712,-2.1471,-2.1019,-2.0772,-2.0686,-2.0359,-2.0156,-2.0118,-1.9978,-2.0065,-2.0368,-2.0498,-2.0844,-2.1356,-2.1269,-2.0273,-1.8596,-1.8244,-1.71,-1.518,-1.4892,-1.4001,-1.235,-1.3532,-1.4646,-1.5602,-1.4162,-1.3022,-1.2395,-1.181,0.0,0.0,0.0,0.0,0.0,0.0,0.0,0.0,-1.175,0.0,-1.1684,-1.1027,-1.0924,-1.154,-1.1661,-1.1706,-1.1877,-1.1886,-1.1361,-1.0085,-1.0777,-1.1677,-1.2614,-1.2661,-1.2958,-1.3843,-1.3776,-1.367,-1.3674,-1.3588,-1.3415,-1.3172,-1.3111,-1.305,-1.3103,-1.2911,-1.2797,-1.2805,-1.256,-1.2367,-1.2251,-1.212,-1.2065,-1.1996,-1.1872,-1.1872,-1.1934,-1.1996,-1.2065,-1.2065,-1.2065,-1.2065,-1.2065,-1.2065,-1.2065,-1.2065,-1.2065,-1.2065,-1.2127,-1.2189,-1.2189,-1.2182,-1.2251,-1.2375,-1.2436,-1.2428,-1.2436,-1.2375,-1.2375,-1.2375,-3.0701,-3.0275,-2.9438,-2.8936,-2.8621,-2.8235,-2.7978,-2.7697,0.0,0.0,0.0,-2.4454,-2.4145,-2.3865,-2.281,-2.2197,-2.2068,-2.1524,-2.1189,-2.1059,-2.0983,-2.0858,-2.0767,-2.0666,-2.0926,-2.1445,-2.1245,-2.1619,-2.2643,-2.2116,-2.1606,-2.1117,-2.0637,-1.9843,-1.8768,-1.8667,-1.7432,-1.5038,-1.4727,-1.5416,-1.7005,-1.6319,-1.5383,-1.4174,-1.3651,-1.283,-1.1746,-1.1728,-1.123,-1.027,-1.1296,-1.2558,-1.3681,-1.2798,-1.2195,-1.2182,-1.2099,-1.2689,-1.4143,-1.3756,-1.4143,-1.5717,-1.4799,-1.3422,-1.1723,-1.2801,-1.3685,-1.3994,-1.4147,-1.4352,-1.4501,-1.4359,-1.413,-1.3881,-1.383,-1.3657,-1.3415,-1.3363,-1.3346,-1.3459,-1.3277,-1.3042,-1.305,-1.2805,-1.2621,-1.2428,-1.2313,-1.2189,-1.2182,-1.212,-1.212,-1.212,-1.2189,-1.2189,-1.2189,-1.2189,-1.2182,-1.2189,-1.2182,-1.2189,-1.2189,-1.2189,-1.2189,-1.2189,-1.2251,-1.2375,-1.2375,-1.2498,-1.2621,-1.2621,-1.2621,-1.2621,-1.2621,-1.2621,-1.256,-3.1645,-3.0787,-3.0337,-2.9674,-2.8826,-2.8527,-2.7883,-2.6947,-2.6479,-2.5983,-2.5433,-2.5198,-2.507,-2.4868,-2.3894,-2.3383,-2.3158,-2.2531,-2.1961,-2.138,-2.202,-2.1996,-2.1406,-2.1355,-2.1655,-2.2217,-2.2068,-2.2282,-2.2871,-2.3076,-2.2862,-2.2299,-2.1544,-2.0471,-1.9206,-1.8975,-1.8691,-1.8089,-1.6066,-1.5203,-1.5547,-1.3601,-1.255,-1.2541,-1.2337,-1.2076,-1.202,-1.2018,-1.1737,-1.1456,-1.1755,-1.2629,-1.417,-1.3992,-1.435,-1.551,-1.5382,-1.5235,-1.5195,-1.5277,-1.5372,-1.555,-1.5209,-1.467,-1.3942,-1.383,-1.4003,-1.4426,-1.4725,-1.4845,-1.4706,-1.4538,-1.4359,-1.4061,-1.389,-1.37,-1.3519,-1.3459,-1.3459,-1.3511,-1.3459,-1.3338,-1.3233,-1.305,-1.2867,-1.2736,-1.256,-1.2498,-1.2498,-1.2367,-1.2297,-1.2305,-1.2436,-1.2498,-1.2498,-1.2498,-1.2498,-1.2506,-1.2498,-1.2498,-1.2498,-1.2498,-1.2498,-1.2498,-1.2498,-1.256,-1.256,-1.256,-1.2621,-1.2621,-1.2621,-1.2621,-1.2621,-1.2621,-1.2621,-3.3032,-3.2348,-3.1186,-3.0364,-2.9876,-2.8967,-2.8229,-2.7695,-2.7549,-2.6947,-2.6168,-2.6042,-2.5961,-2.5741,-2.4882,-2.4317,-2.4075,-2.3752,-2.335,-2.2879,-2.3238,-2.3142,-2.2704,-2.2535,-2.2751,-2.3189,-2.2997,-2.3188,-2.3655,-2.3781,-2.3296,-2.239,-2.118,-2.0329,-1.9904,-1.9608,-1.9356,-1.9105,-1.781,-1.7115,-1.7167,-1.6247,-1.5738,-1.576,-1.5669,-1.5566,-1.5628,-1.5496,-1.5403,-1.5351,-1.5154,-1.5437,-1.6127,-1.5953,-1.6124,-1.6808,-1.6599,-1.6392,-1.6396,-1.6371,-1.6221,-1.5997,-1.5583,-1.5194,-1.4884,-1.4449,-1.4326,-1.4681,-1.481,-1.4898,-1.4991,-1.4902,-1.4725,-1.43,-1.424,-1.4061,-1.3821,-1.37,-1.3649,-1.364,-1.3571,-1.345,-1.3407,-1.3294,-1.3119,-1.2928,-1.2744,-1.2621,-1.2621,-1.2498,-1.2436,-1.249,-1.2567,-1.256,-1.2621,-1.2621,-1.2621,-1.2621,-1.2621,-1.2621,-1.2621,-1.2621,-1.2621,-1.2621,-1.2621,-1.2621,-1.2621,-1.2621,-1.2621,-1.2621,-1.2621,-1.2621,-1.2621,-1.2621,-1.2621,-3.4259,-3.3556,-3.2044,-3.1091,-3.0529,-2.9357,-2.87,-2.8477,-2.8414,-2.7865,-2.7052,-2.6973,-2.6861,-2.6639,-2.58,-2.5297,-2.5087,-2.4889,-2.4619,-2.4305,-2.451,-2.4427,-2.4058,-2.3799,-2.3864,-2.4135,-2.3819,-2.3877,-2.4368,-2.4234,-2.3563,-2.2405,-2.117,-2.0587,-2.0639,-2.0139,-1.9759,-1.9512,-1.921,-1.8999,-1.8999,-1.9052,-1.9052,-1.9011,-1.8827,-1.8786,-1.8667,-1.8518,-1.841,-1.8367,-1.8041,-1.7822,-1.7711,-1.7501,-1.7334,-1.7278,-1.6987,-1.6931,-1.7099,-1.6931,-1.6705,-1.6488,-1.6042,-1.5714,-1.5573,-1.5134,-1.4805,-1.4857,-1.4893,-1.5041,-1.5196,-1.5205,-1.5029,-1.4597,-1.4529,-1.4359,-1.407,-1.389,-1.383,-1.383,-1.3692,-1.3631,-1.3571,-1.3467,-1.3233,-1.2989,-1.2744,-1.2621,-1.2621,-1.2621,-1.2621,-1.2621,-1.2621,-1.2621,-1.2621,-1.2621,-1.2621,-1.2621,-1.2621,-1.2621,-1.2621,-1.2621,-1.2621,-1.2621,-1.2621,-1.2621,-1.2621,-1.2621,-1.2621,-1.2621,-1.2621,-1.2621,-1.2621,-1.2621,-1.2621,-3.4848,-3.3482,-3.2974,-3.1709,-3.0131,-2.9544,-2.912,-2.8685,-2.8465,-2.8306,-2.8161,-2.7978,-2.7784,-2.7545,-2.6668,-2.6253,-2.6189,-2.5842,-2.5415,-2.5017,-2.5716,-2.5706,-2.5091,-2.4763,-2.4898,-2.5135,-2.4408,-2.4254,-2.4751,-2.4452,-2.3918,-2.3227,-2.2518,-2.1836,-2.1237,-2.0527,-2.0029,-1.9747,-1.9759,-1.9643,-1.9512,-1.942,-1.942,-1.9512,-1.9146,-1.8999,-1.8987,-1.8721,-1.8506,-1.8422,-1.8367,-1.8139,-1.7767,-1.7656,-1.7545,-1.7334,-1.6987,-1.6751,-1.6694,-1.6751,-1.6807,-1.6751,-1.6595,-1.643,-1.644,-1.6306,-1.5848,-1.5243,-1.5204,-1.5342,-1.5352,-1.5254,-1.5088,-1.4715,-1.4597,-1.4359,-1.407,-1.401,-1.4001,-1.401,-1.395,-1.3959,-1.3881,-1.3631,-1.3338,-1.2989,-1.2805,-1.2683,-1.2621,-1.2621,-1.2629,-1.2629,-1.2621,-1.2621,-1.2621,-1.2621,-1.2621,-1.2621,-1.2621,-1.2621,-1.2621,-1.2621,-1.2621,-1.2621,-1.2621,-1.2621,-1.2621,-1.2621,-1.2621,-1.2621,-1.2621,-1.2621,-1.2621,-1.2567,-1.256,-3.5538,-3.4394,-3.3668,-3.2186,-3.0417,-3.0021,-2.9777,-2.9438,-2.9241,-2.9028,-2.8936,-2.8732,-2.8398,-2.8008,-2.7425,-2.7171,-2.7106,-2.6905,-2.6651,-2.6329,-2.6674,-2.6538,-2.6098,-2.5806,-2.5762,-2.5825,-2.5409,-2.5314,-2.5398,-2.4915,-2.4461,-2.4083,-2.3175,-2.2576,-2.2263,-2.1327,-2.0772,-2.055,-2.0233,-2.0016,-1.9914,-1.9759,-1.9604,-1.9565,-1.946,-1.9303,-1.9251,-1.904,-1.8881,-1.8786,-1.8625,-1.841,-1.815,-1.7986,-1.781,-1.7545,-1.7267,-1.7032,-1.6853,-1.6909,-1.6909,-1.6909,-1.6797,-1.6694,-1.6581,-1.6524,-1.627,-1.5796,-1.5668,-1.5604,-1.5478,-1.5439,-1.5323,-1.4834,-1.4725,-1.4666,-1.4327,-1.4207,-1.4207,-1.4139,-1.4079,-1.401,-1.395,-1.3821,-1.358,-1.3407,-1.3164,-1.2981,-1.2867,-1.2744,-1.2683,-1.2621,-1.2621,-1.2621,-1.2621,-1.2621,-1.2621,-1.2621,-1.2621,-1.2621,-1.2621,-1.2621,-1.2621,-1.2621,-1.2621,-1.2621,-1.2621,-1.2621,-1.2621,-1.2621,-1.2621,-1.2621,-1.2621,-1.2498,-1.2436,-3.5913,-3.48,-3.3596,-3.2456,-3.1374,-3.0792,-3.0509,-3.0445,-3.0038,-2.9722,-2.947,-2.9335,-2.9139,-2.8757,-2.8229,-2.789,-2.774,-2.7675,-2.7575,-2.7386,-2.7372,-2.7218,-2.6893,-2.6602,-2.6404,-2.6272,-2.615,-2.615,-2.6108,-2.5565,-2.5242,-2.5066,-2.4042,-2.3393,-2.312,-2.2115,-2.1394,-2.1004,-2.0565,-2.0372,-2.0271,-2.0105,-1.9965,-1.9759,-1.9708,-1.9604,-1.9512,-1.9356,-1.9198,-1.9105,-1.8934,-1.8721,-1.8572,-1.841,-1.8193,-1.7865,-1.7545,-1.7312,-1.719,-1.7078,-1.7011,-1.7078,-1.6976,-1.6864,-1.6807,-1.674,-1.6627,-1.6389,-1.6192,-1.5951,-1.5604,-1.5662,-1.5498,-1.5069,-1.5137,-1.5039,-1.4743,-1.4565,-1.4506,-1.4506,-1.4369,-1.4189,-1.4189,-1.4061,-1.389,-1.383,-1.3519,-1.3329,-1.3164,-1.3042,-1.2981,-1.285,-1.2858,-1.2805,-1.2621,-1.2621,-1.2621,-1.2621,-1.2621,-1.2621,-1.2621,-1.2621,-1.2621,-1.2621,-1.2621,-1.2621,-1.2621,-1.2621,-1.2621,-1.2621,-1.2621,-1.256,-1.2498,-1.2375,-1.2305,-3.5779,-3.4108,-3.2431,-3.2427,-3.3301,-3.1839,-3.1379,-3.1524,-3.0683,-3.0192,-3.0,-2.9895,-2.9964,-3.018,-2.909,-2.8281,-2.802,-2.802,-2.7905,-2.779,-2.779,-2.764,-2.735,-2.7034,-2.6811,-2.6683,-2.6472,-2.6351,-2.6351,-2.6254,-2.6254,-2.6133,-2.5272,-2.4501,-2.373,-2.2896,-2.1874,-2.1123,-2.0927,-2.0723,-2.0623,-2.0573,-2.0422,-2.0169,-1.9914,-1.9798,-1.9747,-1.9512,-1.942,-1.9368,-1.9368,-1.9263,-1.8987,-1.8946,-1.8655,-1.8159,-1.7854,-1.7656,-1.7468,-1.7234,-1.7134,-1.7267,-1.719,-1.7078,-1.7211,-1.7088,-1.6955,-1.6955,-1.6684,-1.6343,-1.5961,-1.5914,-1.5798,-1.5614,-1.5614,-1.5498,-1.5205,-1.5029,-1.498,-1.4911,-1.4775,-1.4656,-1.4656,-1.4359,-1.4189,-1.401,-1.3761,-1.3511,-1.3519,-1.345,-1.345,-1.339,-1.339,-1.3268,-1.2744,-1.2825,-1.2808,-1.2768,-1.2838,-1.2699,-1.2629,-1.2621,-1.2621,-1.2621,-1.2683,-1.2683,-1.2621,-1.2621,-1.2621,-1.2621,-1.2621,-1.256,-1.2498,-1.2367,-1.2243,-3.616,-3.4923,-3.328,-3.291,-3.3171,-3.25,-3.1941,-3.1483,-3.1424,-3.1033,-3.0558,-3.0793,-3.0964,-3.094,-3.0797,-3.0148,-2.9159,-2.8563,-2.8201,-2.8152,-2.8088,-2.794,-2.7755,-2.7458,-2.7306,-2.7167,-2.7078,-2.6959,-2.6907,-2.6893,-2.6736,-2.6443,-2.6136,-2.5721,-2.5173,-2.4393,-2.3485,-2.2614,-2.2096,-2.1569,-2.1073,-2.097,-2.0885,-2.0736,-2.0372,-2.0169,-2.0169,-2.0029,-1.9875,-1.9784,-1.9784,-1.972,-1.95,-1.9279,-1.8987,-1.856,-1.8236,-1.8018,-1.792,-1.7799,-1.7755,-1.781,-1.7744,-1.7579,-1.7479,-1.7423,-1.7312,-1.6965,-1.6899,-1.674,-1.6467,-1.6181,-1.5961,-1.573,-1.5672,-1.5614,-1.5362,-1.5245,-1.5254,-1.5254,-1.5137,-1.5029,-1.4902,-1.4793,-1.4675,-1.4488,-1.435,-1.4172,-1.4001,-1.3881,-1.3821,-1.37,-1.3571,-1.345,-1.3277,-1.3459,-1.3551,-1.34,-1.3333,-1.335,-1.3289,-1.3128,-1.3164,-1.3033,-1.2981,-1.2867,-1.2805,-1.2621,-1.2621,-1.2621,-1.2621,-1.256,-1.2498,-1.2367,-1.2243,-3.6344,-3.5715,-3.4213,-3.3845,-3.4112,-3.349,-3.299,-3.2559,-3.2591,-3.2083,-3.1472,-3.1667,-3.1805,-3.177,-3.1647,-3.1316,-3.0577,-2.9451,-2.8742,-2.846,-2.8381,-2.825,-2.8103,-2.7955,-2.779,-2.764,-2.7539,-2.7488,-2.7386,-2.7321,-2.7152,-2.6893,-2.6774,-2.6515,-2.6074,-2.5426,-2.4643,-2.3923,-2.315,-2.2427,-2.1944,-2.1663,-2.1423,-2.1229,-2.097,-2.0673,-2.0459,-2.0321,-2.022,-2.0093,-2.0093,-2.0029,-1.9901,-1.9656,-1.9356,-1.9093,-1.8774,-1.8494,-1.8356,-1.8247,-1.8084,-1.8127,-1.8139,-1.7975,-1.7744,-1.7767,-1.759,-1.7256,-1.7134,-1.7078,-1.6853,-1.6524,-1.6181,-1.6019,-1.5961,-1.5846,-1.5642,-1.5584,-1.5526,-1.5488,-1.5439,-1.5391,-1.5332,-1.5274,-1.5137,-1.4942,-1.4893,-1.4725,-1.4488,-1.4369,-1.4309,-1.4189,-1.4121,-1.4052,-1.4114,-1.4346,-1.4107,-1.3941,-1.3673,-1.376,-1.3839,-1.3666,-1.358,-1.3511,-1.3329,-1.3155,-1.2981,-1.2736,-1.2683,-1.2621,-1.2621,-1.256,-1.2498,-1.2375,-1.2251,-3.6164,-3.6474,-3.507,-3.5062,-3.5763,-3.4631,-3.4523,-3.4507,-3.4008,-3.3071,-3.2298,-3.2347,-3.2631,-3.2617,-3.1779,-3.1467,-3.1941,-3.0862,-2.969,-2.8826,-2.8763,-2.8683,-2.8429,-2.8429,-2.8284,-2.8137,-2.794,-2.779,-2.7775,-2.7675,-2.756,-2.7524,-2.7321,-2.6865,-2.6182,-2.5879,-2.525,-2.4519,-2.38,-2.3348,-2.3297,-2.2527,-2.203,-2.1793,-2.165,-2.1299,-2.0723,-2.0523,-2.0385,-2.0233,-2.0233,-2.0233,-2.0182,-2.0042,-1.9926,-1.9708,-1.9291,-1.9052,-1.8946,-1.8506,-1.8344,-1.8387,-1.8236,-1.8247,-1.8193,-1.8139,-1.803,-1.7755,-1.7579,-1.7401,-1.7123,-1.6864,-1.6705,-1.6581,-1.6431,-1.6249,-1.6114,-1.5989,-1.5884,-1.5788,-1.5798,-1.5856,-1.5856,-1.574,-1.5546,-1.5362,-1.5254,-1.5147,-1.4961,-1.4911,-1.497,-1.4911,-1.4784,-1.4606,-1.4934,-1.5223,-1.4771,-1.44,-1.4101,-1.3987,-1.4162,-1.41,-1.4028,-1.3872,-1.3752,-1.3519,-1.3155,-1.2981,-1.292,-1.2858,-1.2736,-1.2674,-1.2674,-1.2605,-1.2367,-3.6781,-3.6869,-3.5805,-3.5238,-3.5126,-3.462,-3.397,-3.3164,-3.3225,-3.3128,-3.2853,-3.322,-3.3724,-3.4143,-3.3933,-3.3489,-3.2923,-3.2528,-3.1475,-3.0016,-3.0103,-2.9856,-2.9215,-2.8951,-2.87,-2.8396,-2.825,-2.8201,-2.8201,-2.8103,-2.7989,-2.784,-2.769,-2.7434,-2.711,-2.6828,-2.622,-2.5146,-2.4612,-2.3961,-2.3034,-2.2669,-2.2402,-2.2296,-2.2217,-2.1983,-2.1698,-2.1118,-2.0799,-2.0662,-2.0675,-2.0612,-2.0461,-2.036,-2.0195,-1.9978,-1.9784,-1.9617,-1.9552,-1.9396,-1.9186,-1.9186,-1.9133,-1.8987,-1.8774,-1.8721,-1.8625,-1.8356,-1.829,-1.8116,-1.7733,-1.7501,-1.7234,-1.6797,-1.6658,-1.6602,-1.6566,-1.6545,-1.6467,-1.6363,-1.6259,-1.6202,-1.6077,-1.5972,-1.5788,-1.5672,-1.5556,-1.5498,-1.5313,-1.5205,-1.5156,-1.5147,-1.5098,-1.5098,-1.5252,-1.5338,-1.5204,-1.4909,-1.4669,-1.4457,-1.4553,-1.449,-1.4414,-1.43,-1.4121,-1.3881,-1.3519,-1.3277,-1.3155,-1.3155,-1.3155,-1.3086,-1.3025,-1.285,-1.2613,-3.7281,-3.7152,-3.6635,-3.587,-3.5089,-3.5016,-3.4242,-3.3136,-3.3373,-3.3349,-3.3152,-3.3404,-3.394,-3.4384,-3.4185,-3.399,-3.3736,-3.3738,-3.2921,-3.1608,-3.1145,-3.0766,-3.0061,-2.9563,-2.9182,-2.8842,-2.8668,-2.8525,-2.8493,-2.8348,-2.825,-2.8152,-2.8054,-2.7925,-2.7825,-2.7645,-2.7021,-2.6042,-2.5638,-2.4813,-2.3681,-2.3281,-2.3074,-2.2706,-2.2572,-2.2495,-2.2296,-2.1807,-2.1375,-2.1122,-2.1023,-2.0825,-2.0675,-2.0625,-2.0524,-2.0258,-2.0144,-2.0029,-1.9965,-1.9811,-1.9811,-1.9708,-1.9708,-1.9552,-1.9303,-1.9198,-1.9093,-1.8827,-1.8732,-1.856,-1.8224,-1.7788,-1.7567,-1.7523,-1.7043,-1.6949,-1.6999,-1.7062,-1.7122,-1.708,-1.6979,-1.6748,-1.6543,-1.63,-1.6097,-1.5894,-1.5846,-1.5788,-1.5662,-1.5488,-1.5439,-1.5449,-1.5449,-1.5449,-1.5391,-1.5449,-1.5508,-1.5436,-1.5314,-1.5144,-1.513,-1.4893,-1.4793,-1.4666,-1.4488,-1.43,-1.3932,-1.3692,-1.3519,-1.3571,-1.3571,-1.3329,-1.3147,-1.3033,-1.2858,-3.7595,-3.7449,-3.7411,-3.6821,-3.6017,-3.5834,-3.5267,-3.4559,-3.4466,-3.4097,-3.3607,-3.3656,-3.3873,-3.3857,-3.3395,-3.3642,-3.4586,-3.4353,-3.4028,-3.3444,-3.2512,-3.1638,-3.1161,-3.0435,-2.9895,-2.947,-2.9136,-2.892,-2.8763,-2.8589,-2.8444,-2.8444,-2.8396,-2.8348,-2.8186,-2.8186,-2.7738,-2.6955,-2.6612,-2.5764,-2.4582,-2.4252,-2.3834,-2.3008,-2.2949,-2.2844,-2.2663,-2.2449,-2.2077,-2.1506,-2.1229,-2.1059,-2.0987,-2.0938,-2.0825,-2.0524,-2.0347,-2.0296,-2.0182,-2.008,-1.9965,-2.0042,-1.9914,-1.9747,-1.9656,-1.9565,-1.9512,-1.9198,-1.9081,-1.8934,-1.8614,-1.8127,-1.8018,-1.8398,-1.7755,-1.7329,-1.7509,-1.7504,-1.7643,-1.7952,-1.7846,-1.7531,-1.7343,-1.6948,-1.6602,-1.6311,-1.6233,-1.6066,-1.5961,-1.5846,-1.5856,-1.5798,-1.574,-1.5682,-1.5624,-1.5634,-1.5693,-1.5606,-1.5566,-1.5505,-1.5434,-1.5262,-1.5098,-1.497,-1.4852,-1.4656,-1.4478,-1.4181,-1.4001,-1.3992,-1.3812,-1.345,-1.3338,-1.3285,-1.3042,-3.7966,-3.7897,-3.7631,-3.7058,-3.6346,-3.6256,-3.5812,-3.5119,-3.5084,-3.5137,-3.5331,-3.5363,-3.5515,-3.612,-3.5518,-3.5399,-3.5394,-3.549,-3.5287,-3.4823,-3.437,-3.3161,-3.2093,-3.1473,-3.082,-3.0109,-2.9793,-2.9605,-2.9412,-2.9091,-2.8889,-2.8795,-2.8668,-2.8477,-2.8348,-2.8365,-2.7979,-2.7287,-2.6611,-2.5925,-2.506,-2.4339,-2.3863,-2.3611,-2.3392,-2.3304,-2.3216,-2.2949,-2.2495,-2.1888,-2.1698,-2.152,-2.1277,-2.1291,-2.1158,-2.0875,-2.0712,-2.0662,-2.0523,-2.0434,-2.0409,-2.0347,-2.0181,-2.0233,-2.0067,-1.9926,-1.9926,-1.9811,-1.9708,-1.95,-1.9251,-1.9133,-1.9239,-1.9279,-1.8387,-1.7779,-1.795,-1.793,-1.8056,-1.8447,-1.8365,-1.819,-1.8012,-1.7637,-1.7249,-1.7021,-1.6717,-1.6358,-1.6284,-1.6077,-1.6019,-1.5914,-1.5856,-1.5856,-1.5856,-1.5856,-1.5808,-1.5702,-1.5673,-1.5625,-1.5537,-1.542,-1.5264,-1.5147,-1.5088,-1.4961,-1.4911,-1.4734,-1.4606,-1.4419,-1.4231,-1.3992,-1.3752,-1.364,-1.3285,-3.8442,-3.8328,-3.8101,-3.7548,-3.6829,-3.6708,-3.626,-3.563,-3.5424,-3.5572,-3.5863,-3.5741,-3.6076,-3.66,-3.6075,-3.5994,-3.6169,-3.6115,-3.604,-3.6058,-3.5873,-3.453,-3.2802,-3.215,-3.1558,-3.0601,-3.041,-3.0182,-2.9941,-2.9722,-2.9544,-2.947,-2.9335,-2.9121,-2.8873,-2.8513,-2.7983,-2.7163,-2.6548,-2.5874,-2.4921,-2.4612,-2.4268,-2.4,-2.3782,-2.3711,-2.3625,-2.3392,-2.2934,-2.2342,-2.2123,-2.1935,-2.1759,-2.1664,-2.1533,-2.1207,-2.0957,-2.0735,-2.0475,-2.0281,-2.0027,-1.9869,-1.9833,-1.9879,-1.9909,-1.9862,-1.9875,-2.0093,-2.0055,-1.9926,-1.9772,-1.9823,-1.9862,-1.9656,-1.8963,-1.8542,-1.8657,-1.8486,-1.8547,-1.8751,-1.8747,-1.8588,-1.8538,-1.8137,-1.7959,-1.7711,-1.7275,-1.7,-1.679,-1.6451,-1.6134,-1.6087,-1.6087,-1.6087,-1.6144,-1.6144,-1.6019,-1.5856,-1.5682,-1.5682,-1.5546,-1.5478,-1.543,-1.5313,-1.5323,-1.5264,-1.5205,-1.5088,-1.497,-1.4784,-1.4656,-1.441,-1.4052,-1.3821,-1.3519,-3.8942,-3.8759,-3.8658,-3.8212,-3.7534,-3.7338,-3.6984,-3.6297,-3.6109,-3.6013,-3.602,-3.5643,-3.6183,-3.6292,-3.6114,-3.6023,-3.7155,-3.6547,-3.6559,-3.6767,-3.6724,-3.554,-3.3459,-3.3163,-3.24,-3.1489,-3.111,-3.0833,-3.0567,-3.0417,-3.0349,-3.0162,-3.0146,-2.9973,-2.9432,-2.8874,-2.7953,-2.7265,-2.6714,-2.5975,-2.5124,-2.4967,-2.4702,-2.4254,-2.412,-2.3952,-2.3867,-2.3739,-2.3465,-2.2694,-2.2572,-2.2438,-2.2239,-2.2072,-2.1852,-2.156,-2.1164,-2.0832,-2.0449,-2.0114,-1.9601,-1.9522,-1.9389,-1.9243,-1.9772,-1.9855,-1.9948,-2.0308,-2.022,-2.0182,-2.0131,-2.008,-1.9978,-1.9862,-1.9488,-1.9376,-1.929,-1.9064,-1.9,-1.934,-1.9168,-1.8939,-1.8763,-1.862,-1.8527,-1.8648,-1.81,-1.767,-1.7382,-1.6958,-1.6597,-1.6316,-1.6316,-1.6374,-1.6374,-1.6374,-1.6192,-1.6019,-1.5798,-1.5682,-1.5488,-1.542,-1.542,-1.542,-1.5371,-1.5371,-1.5362,-1.5254,-1.5137,-1.5029,-1.4843,-1.4478,-1.4181,-1.3941,-1.37,-3.9272,-3.9146,-3.8989,-3.8781,-3.8564,-3.8486,-3.8297,-3.8113,-3.801,-3.7838,-3.7917,-3.7804,-3.7794,-3.7911,-3.7473,-3.7711,-3.7843,-3.7399,-3.7269,-3.7038,-3.7108,-3.6429,-3.5217,-3.4905,-3.3926,-3.2887,-3.2855,-3.2198,-3.1321,-3.1191,-3.1124,-3.0518,-3.0426,-3.0199,-2.9989,-2.9258,-2.8709,-2.8227,-2.7192,-2.63,-2.5749,-2.5217,-2.4842,-2.4467,-2.4343,-2.4177,-2.4024,-2.3994,-2.3909,-2.3696,-2.3465,-2.3025,-2.2527,-2.2582,-2.2326,-2.1738,-2.1648,-2.1545,-2.1295,-2.1043,-2.0894,-2.042,-2.0353,-2.0518,-2.0427,-2.0302,-2.038,-2.0498,-2.0385,-2.0283,-2.0233,-2.0182,-2.0131,-2.008,-1.9978,-1.9925,-1.9775,-1.9461,-1.9375,-1.9634,-1.975,-1.9805,-1.9776,-1.9422,-1.9347,-1.9377,-1.9011,-1.8403,-1.8013,-1.761,-1.7137,-1.6779,-1.6534,-1.6534,-1.6534,-1.6477,-1.6249,-1.6077,-1.5914,-1.574,-1.5546,-1.5478,-1.5478,-1.5478,-1.542,-1.542,-1.542,-1.541,-1.5303,-1.5137,-1.5029,-1.4725,-1.4419,-1.4181,-1.3881,-3.9521,-3.9477,-3.9298,-3.92,-3.9183,-3.911,-3.9082,-3.9073,-3.8921,-3.8862,-3.8822,-3.8713,-3.8603,-3.851,-3.8396,-3.8314,-3.8267,-3.8086,-3.788,-3.7667,-3.7559,-3.7235,-3.684,-3.633,-3.5451,-3.399,-3.3561,-3.29,-3.2295,-3.1918,-3.1635,-3.1112,-3.0942,-3.0781,-3.0476,-2.9666,-2.8936,-2.8282,-2.7378,-2.6545,-2.6002,-2.5641,-2.5169,-2.4871,-2.4655,-2.4492,-2.4317,-2.4343,-2.4302,-2.4261,-2.412,-2.3716,-2.3133,-2.3126,-2.2878,-2.2468,-2.2177,-2.2098,-2.186,-2.1485,-2.1156,-2.0887,-2.0813,-2.0838,-2.0786,-2.0703,-2.0744,-2.0818,-2.0699,-2.0511,-2.0448,-2.0347,-2.036,-2.0296,-2.0258,-2.0195,-2.0041,-1.9731,-1.9425,-1.965,-1.9648,-1.9713,-1.9703,-1.9785,-2.0014,-2.003,-1.9835,-1.9295,-1.8924,-1.8469,-1.7785,-1.7353,-1.6906,-1.6751,-1.6751,-1.6591,-1.6306,-1.6134,-1.5904,-1.5856,-1.573,-1.5662,-1.5604,-1.5536,-1.5478,-1.5478,-1.5478,-1.541,-1.5352,-1.5196,-1.5029,-1.4843,-1.4656,-1.4359,-1.4121,-3.9731,-3.9712,-3.9599,-3.9551,-3.9521,-3.9439,-3.9399,-3.9373,-3.9229,-3.9101,-3.9064,-3.8939,-3.8815,-3.8646,-3.8664,-3.8603,-3.8478,-3.8419,-3.8322,-3.8171,-3.8002,-3.7844,-3.7667,-3.7309,-3.668,-3.517,-3.467,-3.3997,-3.3188,-3.2735,-3.2377,-3.1903,-3.1634,-3.1351,-3.097,-3.0034,-2.9154,-2.8357,-2.7387,-2.6599,-2.6098,-2.5897,-2.568,-2.5307,-2.5153,-2.4918,-2.4791,-2.4751,-2.471,-2.4655,-2.4655,-2.4385,-2.4051,-2.3782,-2.3533,-2.3301,-2.2872,-2.2613,-2.2367,-2.1886,-2.1496,-2.0969,-2.0969,-2.1081,-2.1237,-2.1172,-2.1205,-2.1301,-2.1336,-2.1322,-2.1083,-2.118,-2.1105,-2.1016,-2.0849,-2.054,-2.0425,-2.0116,-1.9905,-1.9531,-1.9714,-1.9842,-1.9917,-1.9984,-2.0357,-2.0606,-2.0452,-2.01,-1.9692,-1.9264,-1.8567,-1.7824,-1.7345,-1.7022,-1.6976,-1.692,-1.6581,-1.6306,-1.6134,-1.6077,-1.6019,-1.5961,-1.5904,-1.5604,-1.5546,-1.5536,-1.5478,-1.541,-1.5362,-1.5264,-1.5147,-1.5079,-1.4834,-1.4597,-1.4369,-3.9845,-3.9781,-3.9758,-3.9708,-3.9674,-3.9607,-3.9514,-3.9476,-3.9388,-3.9335,-3.932,-3.9293,-3.9193,-3.912,-3.9221,-3.9082,-3.8833,-3.8762,-3.8621,-3.8446,-3.8318,-3.8219,-3.8086,-3.7966,-3.754,-3.7237,-3.6431,-3.5256,-3.4002,-3.3806,-3.3034,-3.2211,-3.1912,-3.1765,-3.117,-3.0202,-2.9355,-2.8668,-2.7666,-2.6818,-2.6378,-2.6189,-2.6046,-2.5668,-2.5556,-2.5422,-2.5301,-2.5262,-2.513,-2.4863,-2.4823,-2.4679,-2.4451,-2.4204,-2.3766,-2.3383,-2.3363,-2.331,-2.3227,-2.3051,-2.2834,-2.26,-2.2351,-2.2187,-2.2133,-2.1974,-2.2021,-2.2136,-2.2464,-2.2643,-2.2652,-2.2536,-2.2904,-2.3014,-2.2538,-2.1956,-2.1718,-2.1353,-2.0797,-2.0359,-2.0254,-2.0122,-2.0217,-2.0398,-2.0758,-2.1128,-2.1202,-2.0607,-1.9987,-1.9665,-1.9307,-1.8496,-1.7689,-1.7401,-1.7245,-1.719,-1.7022,-1.6694,-1.6524,-1.6467,-1.6363,-1.6316,-1.6192,-1.5951,-1.572,-1.5594,-1.5536,-1.542,-1.542,-1.5313,-1.5313,-1.5254,-1.502,-1.4725,-1.4547,-4.0039,-4.0019,-3.9975,-3.993,-3.9841,-3.9754,-3.9679,-3.962,-3.9577,-3.9527,-3.9469,-3.9444,-3.9399,-3.9346,-3.9373,-3.9293,-3.9147,-3.9036,-3.8902,-3.8766,-3.8615,-3.8491,-3.8346,-3.83,-3.786,-3.744,-3.7037,-3.6114,-3.4394,-3.3706,-3.3266,-3.2599,-3.2179,-3.1899,-3.1515,-3.0992,-2.9868,-2.9076,-2.8288,-2.7572,-2.6843,-2.664,-2.6435,-2.6227,-2.6049,-2.5885,-2.5754,-2.5605,-2.5476,-2.5285,-2.5169,-2.5052,-2.491,-2.4639,-2.4287,-2.3917,-2.3978,-2.4261,-2.4329,-2.4225,-2.3958,-2.4029,-2.3718,-2.3348,-2.3201,-2.3136,-2.3177,-2.3311,-2.3336,-2.3625,-2.3523,-2.3608,-2.3709,-2.3782,-2.3428,-2.3071,-2.2738,-2.2419,-2.1944,-2.1381,-2.0759,-2.0564,-2.0739,-2.0961,-2.1209,-2.1481,-2.1763,-2.1225,-2.0341,-2.0169,-1.9977,-1.9116,-1.8333,-1.8061,-1.7788,-1.7634,-1.7468,-1.719,-1.6965,-1.6909,-1.6864,-1.6807,-1.6581,-1.6296,-1.6056,-1.5826,-1.5536,-1.542,-1.542,-1.542,-1.5362,-1.5303,-1.5079,-1.4852,-1.4675,-4.0214,-4.0214,-4.0138,-4.0077,-3.9996,-3.9933,-3.9709,-3.9538,-3.9463,-3.9242,-3.9064,-3.9008,-3.8946,-3.8927,-3.8901,-3.8939,-3.9107,-3.888,-3.867,-3.8821,-3.8665,-3.8596,-3.8681,-3.8358,-3.7937,-3.7381,-3.657,-3.6091,-3.4888,-3.3901,-3.314,-3.274,-3.2521,-3.2051,-3.1474,-3.12,-3.0262,-2.9588,-2.8812,-2.8349,-2.7491,-2.7087,-2.6957,-2.6691,-2.6538,-2.6365,-2.6189,-2.6066,-2.5921,-2.5775,-2.5642,-2.553,-2.5416,-2.5146,-2.4966,-2.4831,-2.471,-2.4891,-2.4989,-2.4797,-2.4579,-2.4946,-2.464,-2.4417,-2.4427,-2.4492,-2.4587,-2.4592,-2.4768,-2.4768,-2.4776,-2.4589,-2.4535,-2.4526,-2.4413,-2.4055,-2.3794,-2.3459,-2.311,-2.2351,-2.1341,-2.1134,-2.1523,-2.1506,-2.1745,-2.192,-2.2196,-2.1754,-2.1049,-2.0902,-2.0551,-1.9695,-1.904,-1.8709,-1.8441,-1.8182,-1.8018,-1.7678,-1.7512,-1.7412,-1.7412,-1.7357,-1.7078,-1.674,-1.64,-1.6114,-1.5758,-1.542,-1.542,-1.542,-1.542,-1.5303,-1.5137,-1.5029,-1.4911,-4.0283,-4.0283,-4.0214,-4.0158,-4.0078,-4.0099,-3.9619,-3.8904,-3.8833,-3.8317,-3.7753,-3.764,-3.763,-3.7558,-3.7469,-3.785,-3.8075,-3.7882,-3.7853,-3.8278,-3.8328,-3.8506,-3.8894,-3.8284,-3.7757,-3.7156,-3.5983,-3.513,-3.4691,-3.4256,-3.3772,-3.3194,-3.2908,-3.2428,-3.1667,-3.1381,-3.0353,-2.98,-2.8561,-2.7629,-2.7296,-2.7213,-2.7149,-2.7021,-2.694,-2.6859,-2.6691,-2.659,-2.6453,-2.6262,-2.6243,-2.6156,-2.5997,-2.5815,-2.5721,-2.546,-2.5091,-2.4636,-2.4807,-2.4714,-2.4834,-2.525,-2.5075,-2.5387,-2.5514,-2.5682,-2.5726,-2.5833,-2.6156,-2.6292,-2.6263,-2.633,-2.6335,-2.6045,-2.5678,-2.5416,-2.512,-2.4426,-2.4033,-2.3548,-2.2598,-2.2417,-2.2512,-2.2351,-2.2294,-2.246,-2.2496,-2.2089,-2.1655,-2.1373,-2.1008,-2.0113,-1.9497,-1.9186,-1.8922,-1.8709,-1.8464,-1.8236,-1.8073,-1.7963,-1.7909,-1.7799,-1.7468,-1.7123,-1.6786,-1.6389,-1.5931,-1.5652,-1.5478,-1.542,-1.5478,-1.5371,-1.5205,-1.5088,-1.5029,-4.0326,-3.989,-4.0292,-4.0153,-3.9665,-3.9627,-3.9385,-3.8859,-3.8309,-3.7833,-3.7451,-3.737,-3.7286,-3.7184,-3.7178,-3.7408,-3.7634,-3.731,-3.7322,-3.7581,-3.7671,-3.7793,-3.781,-3.7573,-3.72,-3.6572,-3.5845,-3.5225,-3.4707,-3.4174,-3.3717,-3.3506,-3.3321,-3.29,-3.2133,-3.2038,-3.1135,-3.0016,-2.8703,-2.7842,-2.7595,-2.7535,-2.7491,-2.7386,-2.7341,-2.7247,-2.7135,-2.6989,-2.6808,-2.6624,-2.6522,-2.6487,-2.6349,-2.6156,-2.5997,-2.6085,-2.5742,-2.5484,-2.544,-2.506,-2.5205,-2.5321,-2.5261,-2.5179,-2.5953,-2.6551,-2.6807,-2.7028,-2.7221,-2.7323,-2.724,-2.7157,-2.7108,-2.6959,-2.6721,-2.6457,-2.6008,-2.5487,-2.4916,-2.4441,-2.3903,-2.3557,-2.3173,-2.2804,-2.2657,-2.2837,-2.2871,-2.26,-2.2034,-2.1495,-2.1066,-2.0395,-1.9942,-1.9552,-1.9344,-1.9133,-1.8958,-1.8744,-1.8595,-1.8487,-1.841,-1.8236,-1.7909,-1.7634,-1.7357,-1.6786,-1.6161,-1.5884,-1.5778,-1.5662,-1.5546,-1.5439,-1.5323,-1.5205,-1.5088,-3.9858,-3.9317,-4.0294,-4.0281,-3.9623,-3.9364,-3.9076,-3.8712,-3.7792,-3.723,-3.7009,-3.6862,-3.6901,-3.6994,-3.6862,-3.6786,-3.7049,-3.6857,-3.6892,-3.6906,-3.6936,-3.7046,-3.7134,-3.6979,-3.6468,-3.587,-3.5533,-3.512,-3.4674,-3.421,-3.3942,-3.378,-3.3698,-3.3168,-3.2757,-3.2502,-3.1873,-2.9926,-2.9089,-2.8469,-2.8071,-2.7933,-2.7876,-2.7777,-2.7707,-2.7617,-2.7526,-2.7386,-2.7147,-2.697,-2.6872,-2.6858,-2.6842,-2.6624,-2.6488,-2.6505,-2.628,-2.6125,-2.5929,-2.5667,-2.5576,-2.5677,-2.5884,-2.6174,-2.6638,-2.7211,-2.7624,-2.7905,-2.7819,-2.783,-2.774,-2.759,-2.7473,-2.7386,-2.7269,-2.7115,-2.6834,-2.622,-2.5494,-2.4775,-2.4317,-2.4132,-2.3701,-2.3193,-2.303,-2.3216,-2.3168,-2.3027,-2.2483,-2.1735,-2.131,-2.0857,-2.0623,-2.022,-1.994,-1.9731,-1.9511,-1.9226,-1.9143,-1.8976,-1.8857,-1.8649,-1.8344,-1.8073,-1.7799,-1.7412,-1.6853,-1.641,-1.6019,-1.5894,-1.5778,-1.5614,-1.5498,-1.5323,-1.5147,-3.8533,-3.8617,-4.0045,-4.0584,-4.041,-3.9702,-3.8884,-3.815,-3.7184,-3.6353,-3.5811,-3.5595,-3.6032,-3.6249,-3.6026,-3.5974,-3.6419,-3.5621,-3.5873,-3.6198,-3.6349,-3.6613,-3.6668,-3.6419,-3.6058,-3.591,-3.5394,-3.4956,-3.4727,-3.4604,-3.4386,-3.4245,-3.4055,-3.3379,-3.2886,-3.2658,-3.1751,-3.0214,-2.9489,-2.905,-2.8576,-2.8335,-2.8246,-2.8219,-2.8109,-2.8025,-2.794,-2.7748,-2.7595,-2.7474,-2.7352,-2.7355,-2.731,-2.7103,-2.6989,-2.6923,-2.6791,-2.6605,-2.636,-2.6085,-2.6124,-2.6661,-2.724,-2.7608,-2.7706,-2.8248,-2.8575,-2.8542,-2.8365,-2.8186,-2.7989,-2.7855,-2.774,-2.7675,-2.7625,-2.7423,-2.7225,-2.6975,-2.6184,-2.5226,-2.4745,-2.4609,-2.4218,-2.3645,-2.3358,-2.347,-2.3259,-2.307,-2.2598,-2.1936,-2.1728,-2.1433,-2.1335,-2.1054,-2.074,-2.0503,-2.0311,-1.9939,-1.9709,-1.9419,-1.9155,-1.8935,-1.8625,-1.8398,-1.8127,-1.7865,-1.7534,-1.7078,-1.6627,-1.6228,-1.6009,-1.5836,-1.5672,-1.5449,-1.5264,-3.8427,-3.8455,-3.9063,-3.9287,-3.9256,-3.8926,-3.8567,-3.8023,-3.6729,-3.5886,-3.5457,-3.5438,-3.5551,-3.5676,-3.5614,-3.5484,-3.5707,-3.5446,-3.5525,-3.5608,-3.5785,-3.5867,-3.5907,-3.5853,-3.553,-3.5511,-3.5134,-3.4982,-3.5038,-3.4908,-3.4849,-3.467,-3.4435,-3.4232,-3.3715,-3.2739,-3.1486,-3.0436,-2.9679,-2.9113,-2.8839,-2.8594,-2.851,-2.8414,-2.8345,-2.8264,-2.8191,-2.8081,-2.7961,-2.7829,-2.7748,-2.7724,-2.7682,-2.7483,-2.7341,-2.7279,-2.7152,-2.704,-2.6842,-2.6485,-2.6379,-2.6956,-2.794,-2.8725,-2.8576,-2.9066,-2.9194,-2.909,-2.8873,-2.8622,-2.835,-2.8235,-2.8152,-2.7989,-2.789,-2.774,-2.7565,-2.7345,-2.7006,-2.6081,-2.5452,-2.5096,-2.463,-2.4134,-2.3844,-2.3659,-2.3406,-2.3068,-2.2565,-2.2285,-2.2068,-2.1822,-2.1699,-2.1483,-2.1113,-2.1074,-2.1095,-2.0649,-2.0195,-1.9836,-1.9473,-1.9083,-1.8839,-1.8625,-1.8464,-1.8193,-1.7909,-1.7623,-1.7179,-1.6684,-1.6343,-1.6171,-1.5894,-1.5624,-1.5381,-3.7839,-3.8033,-3.8004,-3.8155,-3.8352,-3.811,-3.8013,-3.7743,-3.6416,-3.5678,-3.5574,-3.555,-3.5558,-3.5502,-3.5496,-3.547,-3.5515,-3.5449,-3.5402,-3.5432,-3.5407,-3.5335,-3.532,-3.5289,-3.5315,-3.5239,-3.5242,-3.5226,-3.5207,-3.5124,-3.5072,-3.502,-3.4908,-3.4753,-3.4223,-3.3187,-3.1859,-3.0887,-3.0035,-2.9322,-2.9095,-2.8892,-2.8845,-2.8725,-2.8669,-2.8587,-2.851,-2.8414,-2.8264,-2.8128,-2.8007,-2.7929,-2.7859,-2.7742,-2.7557,-2.7513,-2.7456,-2.7445,-2.7427,-2.7216,-2.7123,-2.7811,-2.8644,-2.9171,-2.9305,-2.9639,-2.9789,-2.9589,-2.9393,-2.915,-2.8826,-2.8716,-2.8558,-2.8446,-2.8186,-2.8039,-2.7864,-2.7659,-2.7429,-2.6969,-2.6393,-2.5848,-2.5438,-2.4908,-2.3894,-2.3596,-2.32,-2.2981,-2.2728,-2.2509,-2.2485,-2.2178,-2.1895,-2.1668,-2.1373,-2.1458,-2.1415,-2.0698,-2.0275,-2.0187,-1.9817,-1.94,-1.9035,-1.8839,-1.8679,-1.8518,-1.829,-1.8018,-1.7579,-1.7022,-1.674,-1.64,-1.6019,-1.5682,-1.5498,-3.6489,-3.7188,-3.7138,-3.7588,-3.8108,-3.7489,-3.7189,-3.7141,-3.623,-3.5766,-3.5699,-3.5747,-3.5728,-3.5689,-3.5658,-3.5618,-3.5585,-3.5581,-3.5526,-3.5451,-3.5451,-3.5424,-3.5391,-3.5359,-3.5325,-3.5316,-3.5321,-3.5345,-3.5311,-3.5266,-3.527,-3.5277,-3.5176,-3.4961,-3.4615,-3.3757,-3.2849,-3.2042,-3.108,-3.0215,-2.9649,-2.9342,-2.9144,-2.9097,-2.9007,-2.891,-2.8839,-2.8718,-2.8576,-2.844,-2.8246,-2.8164,-2.8126,-2.7922,-2.7824,-2.79,-2.7735,-2.7931,-2.8414,-2.8235,-2.851,-2.8946,-2.9711,-2.9989,-2.9878,-3.0094,-3.0293,-3.014,-2.9968,-2.975,-2.9512,-2.9287,-2.912,-2.8951,-2.87,-2.851,-2.8369,-2.8179,-2.801,-2.7756,-2.7243,-2.6736,-2.6336,-2.5682,-2.4253,-2.3478,-2.3054,-2.2832,-2.276,-2.2643,-2.2576,-2.2496,-2.2168,-2.206,-2.1887,-2.1918,-2.1639,-2.0879,-2.0467,-2.0461,-2.0196,-1.9748,-1.9405,-1.91,-1.8881,-1.8774,-1.8625,-1.8476,-1.792,-1.7357,-1.6909,-1.6524,-1.6144,-1.5798,-1.5672,-3.6079,-3.6316,-3.6329,-3.6465,-3.6779,-3.7026,-3.7113,-3.695,-3.6242,-3.5791,-3.5773,-3.5793,-3.5803,-3.5766,-3.5737,-3.5679,-3.5669,-3.5659,-3.5629,-3.5599,-3.5596,-3.5604,-3.5574,-3.5512,-3.5481,-3.5507,-3.5502,-3.5489,-3.5495,-3.5432,-3.543,-3.5422,-3.533,-3.4868,-3.4295,-3.3711,-3.3295,-3.2408,-3.1523,-3.0772,-3.0396,-2.9791,-2.9411,-2.9368,-2.9283,-2.9237,-2.9193,-2.9099,-2.8887,-2.8767,-2.8569,-2.8466,-2.8432,-2.8237,-2.8425,-2.8719,-2.8849,-2.9301,-2.9966,-3.0192,-3.0127,-3.0315,-3.0543,-3.0895,-3.093,-3.107,-3.0988,-3.0723,-3.0518,-3.0335,-3.0081,-2.9941,-2.9766,-2.9661,-2.9438,-2.9257,-2.9118,-2.8903,-2.8747,-2.8387,-2.7963,-2.7054,-2.6487,-2.5997,-2.4773,-2.3948,-2.3533,-2.2965,-2.2743,-2.2572,-2.2464,-2.2519,-2.2407,-2.2416,-2.2392,-2.2141,-2.2088,-2.1616,-2.1172,-2.0974,-2.0595,-2.0104,-1.9654,-1.93,-1.9105,-1.8975,-1.8786,-1.8518,-1.8084,-1.7645,-1.719,-1.6864,-1.6477,-1.6134,-1.5894,-3.5898,-3.5896,-3.5894,-3.5888,-3.5968,-3.6465,-3.669,-3.6567,-3.6067,-3.5833,-3.583,-3.5826,-3.5829,-3.5793,-3.5745,-3.5726,-3.5745,-3.5754,-3.5782,-3.5754,-3.5784,-3.5775,-3.5747,-3.5708,-3.5679,-3.5689,-3.5669,-3.5649,-3.5659,-3.5577,-3.5554,-3.5538,-3.547,-3.5166,-3.4664,-3.4397,-3.3753,-3.2811,-3.1855,-3.1181,-3.0658,-3.0208,-3.0057,-2.9979,-2.99,-2.982,-2.9686,-2.9471,-2.916,-2.9052,-2.8915,-2.8773,-2.8718,-2.8735,-2.884,-2.915,-2.9548,-2.9837,-3.0224,-3.0751,-3.061,-3.0904,-3.1443,-3.1657,-3.1614,-3.1542,-3.1389,-3.1196,-3.1061,-3.0845,-3.0642,-3.051,-3.03,-3.0199,-3.0027,-2.9837,-2.9601,-2.9435,-2.93,-2.8966,-2.8405,-2.7473,-2.6581,-2.5971,-2.5213,-2.4596,-2.4087,-2.3476,-2.2913,-2.2744,-2.2648,-2.269,-2.2533,-2.2391,-2.2301,-2.214,-2.2132,-2.2242,-2.185,-2.1355,-2.0848,-2.0305,-1.9868,-1.9522,-1.9328,-1.9146,-1.8893,-1.8572,-1.8302,-1.7975,-1.759,-1.7256,-1.6864,-1.6524,-1.6171,-3.5893,-3.5894,-3.5898,-3.5898,-3.5918,-3.5996,-3.5974,-3.5947,-3.5919,-3.588,-3.5891,-3.5879,-3.5859,-3.5795,-3.5803,-3.5811,-3.583,-3.5864,-3.5864,-3.5872,-3.5857,-3.5864,-3.5857,-3.5823,-3.5788,-3.5788,-3.5779,-3.5773,-3.581,-3.5745,-3.5708,-3.5679,-3.5599,-3.5438,-3.529,-3.4999,-3.4221,-3.3238,-3.2667,-3.1784,-3.0883,-3.0877,-3.0919,-3.0865,-3.0716,-3.064,-3.0395,-2.9922,-2.9465,-2.923,-2.906,-2.9012,-2.8938,-2.8815,-2.8761,-2.9003,-2.95,-2.9945,-3.003,-3.0599,-3.1034,-3.1455,-3.1793,-3.1898,-3.1893,-3.1875,-3.1765,-3.1579,-3.1411,-3.1312,-3.1173,-3.0935,-3.0692,-3.0568,-3.0443,-3.0199,-3.0011,-2.9821,-2.975,-2.9399,-2.8751,-2.7971,-2.7014,-2.6282,-2.5909,-2.5032,-2.4477,-2.4059,-2.3522,-2.3254,-2.3132,-2.2979,-2.2757,-2.2344,-2.2239,-2.227,-2.2117,-2.2218,-2.1928,-2.1491,-2.0952,-2.0592,-2.0309,-1.995,-1.9589,-1.9316,-1.9105,-1.8839,-1.8572,-1.8236,-1.7963,-1.759,-1.72,-1.6807,-1.6467,-3.5892,-3.5887,-3.589,-3.5918,-3.5966,-3.5972,-3.5957,-3.5891,-3.5888,-3.5899,-3.5896,-3.5892,-3.587,-3.5883,-3.5883,-3.5872,-3.5885,-3.5892,-3.5885,-3.5892,-3.5885,-3.5892,-3.5885,-3.5885,-3.5872,-3.5852,-3.5845,-3.5845,-3.5864,-3.5838,-3.5768,-3.5697,-3.5697,-3.5679,-3.563,-3.5554,-3.466,-3.3916,-3.3451,-3.2369,-3.1527,-3.16,-3.1613,-3.1355,-3.1172,-3.1102,-3.0843,-3.015,-2.9683,-2.9492,-2.9394,-2.9332,-2.9188,-2.9181,-2.9289,-3.0111,-3.098,-3.1701,-3.1074,-3.1864,-3.2322,-3.1835,-3.2165,-3.253,-3.2488,-3.2318,-3.2179,-3.1966,-3.1785,-3.1674,-3.1524,-3.1312,-3.1157,-3.1078,-3.0958,-3.0797,-3.0567,-3.0344,-3.0203,-2.9587,-2.899,-2.8478,-2.7561,-2.7227,-2.6805,-2.5676,-2.4969,-2.4687,-2.4148,-2.3879,-2.3509,-2.3329,-2.3167,-2.2752,-2.2572,-2.2559,-2.2315,-2.2127,-2.1945,-2.1762,-2.1394,-2.1067,-2.0753,-2.0361,-1.9888,-1.9565,-1.9368,-1.9105,-1.8827,-1.8602,-1.8278,-1.7909,-1.7534,-1.7123,-1.6797,-3.5591,-3.588,-3.5899,-3.5909,-3.5888,-3.56,-3.5425,-3.5441,-3.576,-3.5937,-3.5893,-3.589,-3.5882,-3.5887,-3.5887,-3.5884,-3.5896,-3.5884,-3.588,-3.5892,-3.5895,-3.5923,-3.5938,-3.5929,-3.5938,-3.5909,-3.5904,-3.5909,-3.5919,-3.5908,-3.5852,-3.582,-3.5801,-3.5787,-3.5772,-3.5632,-3.4969,-3.4187,-3.3492,-3.2813,-3.2334,-3.1999,-3.1718,-3.1522,-3.1359,-3.1314,-3.1172,-3.0389,-2.9929,-2.9805,-2.9734,-2.9662,-2.957,-2.9551,-2.9528,-3.0158,-3.0516,-3.0734,-3.0375,-3.0956,-3.1498,-3.1847,-3.2151,-3.2552,-3.2791,-3.2798,-3.2537,-3.2266,-3.2144,-3.2003,-3.1841,-3.1711,-3.1691,-3.1617,-3.1521,-3.1406,-3.1138,-3.0869,-3.0342,-2.9715,-2.9264,-2.8916,-2.8506,-2.8192,-2.7879,-2.718,-2.6663,-2.6364,-2.547,-2.4537,-2.3985,-2.357,-2.3437,-2.3187,-2.3038,-2.283,-2.2663,-2.2449,-2.2273,-2.2047,-2.1807,-2.1375,-2.0924,-2.0562,-2.0182,-1.9876,-1.948,-1.9331,-1.9093,-1.8821,-1.8466,-1.8031,-1.7713,-1.749,-1.718,-3.5113,-3.5872,-3.5898,-3.5892,-3.5788,-3.5124,-3.4822,-3.4803,-3.5656,-3.5909,-3.5798,-3.5859,-3.5898,-3.5916,-3.5916,-3.5916,-3.5895,-3.5895,-3.5894,-3.5877,-3.5893,-3.5911,-3.5948,-3.5971,-3.5945,-3.5987,-3.6005,-3.5974,-3.5999,-3.5991,-3.5965,-3.5994,-3.5916,-3.5899,-3.5895,-3.5836,-3.5243,-3.4439,-3.366,-3.2909,-3.2044,-3.1669,-3.1725,-3.1565,-3.1527,-3.1468,-3.123,-3.0729,-3.0122,-3.0095,-3.0052,-2.9992,-2.988,-2.9801,-2.9755,-2.987,-3.0169,-3.0032,-3.006,-3.0426,-3.095,-3.1315,-3.1605,-3.2507,-3.3057,-3.3136,-3.2876,-3.2702,-3.2603,-3.2419,-3.2248,-3.2127,-3.202,-3.1966,-3.1858,-3.1748,-3.1531,-3.1042,-3.0221,-2.9664,-2.9226,-2.8874,-2.8485,-2.8135,-2.7758,-2.7881,-2.7905,-2.7514,-2.645,-2.5134,-2.4626,-2.3998,-2.3716,-2.3553,-2.3216,-2.3024,-2.2979,-2.2799,-2.2586,-2.237,-2.2137,-2.1602,-2.1006,-2.0614,-2.0148,-1.9875,-1.9548,-1.9345,-1.9156,-1.9062,-1.8685,-1.8136,-1.7856,-1.7695,-1.7328,-3.4903,-3.5754,-3.5795,-3.5845,-3.5866,-3.569,-3.5541,-3.5605,-3.5807,-3.5498,-3.5162,-3.5558,-3.5882,-3.5834,-3.5834,-3.5855,-3.5897,-3.5895,-3.5898,-3.582,-3.5801,-3.5722,-3.5859,-3.5781,-3.5879,-3.5937,-3.5956,-3.6012,-3.6011,-3.6009,-3.6007,-3.6007,-3.5982,-3.5979,-3.596,-3.5907,-3.5467,-3.4761,-3.4379,-3.307,-3.1588,-3.2638,-3.3305,-3.2259,-3.1675,-3.1595,-3.1291,-3.0821,-3.0375,-3.0209,-3.0169,-3.0095,-2.9984,-2.9943,-2.988,-2.9926,-3.022,-3.0092,-3.0057,-3.0396,-3.1163,-3.1755,-3.2296,-3.3043,-3.3482,-3.3423,-3.3291,-3.3124,-3.3006,-3.283,-3.2669,-3.2519,-3.2385,-3.23,-3.2162,-3.2056,-3.1932,-3.1042,-3.0176,-2.9634,-2.9175,-2.882,-2.8443,-2.8092,-2.7671,-2.7644,-2.7894,-2.7564,-2.6414,-2.5316,-2.528,-2.4725,-2.4177,-2.387,-2.3538,-2.326,-2.326,-2.3068,-2.2844,-2.2632,-2.2463,-2.1983,-2.1403,-2.0609,-2.0048,-1.9976,-1.9739,-1.9162,-1.9057,-1.9283,-1.8921,-1.8425,-1.8077,-1.7891,-1.738,-3.3843,-3.4977,-3.5495,-3.5688,-3.5676,-3.5407,-3.5053,-3.4703,-3.4678,-3.4231,-3.3768,-3.4691,-3.5357,-3.5376,-3.5396,-3.565,-3.574,-3.5896,-3.5584,-3.5433,-3.5339,-3.532,-3.5361,-3.5382,-3.5712,-3.5792,-3.5953,-3.6014,-3.5879,-3.6015,-3.6015,-3.5937,-3.5937,-3.5917,-3.5918,-3.5915,-3.5657,-3.5306,-3.5087,-3.3815,-3.1802,-3.272,-3.2783,-3.1658,-3.1344,-3.1347,-3.1166,-3.0742,-3.0598,-3.0411,-3.0367,-3.0328,-3.0228,-3.0163,-3.0109,-3.0113,-3.0262,-3.0389,-3.0335,-3.0682,-3.1428,-3.1789,-3.188,-3.22,-3.275,-3.2736,-3.3093,-3.3003,-3.3314,-3.322,-3.319,-3.305,-3.2975,-3.288,-3.2598,-3.238,-3.1879,-3.1132,-3.0369,-2.973,-2.9384,-2.9155,-2.882,-2.8649,-2.8196,-2.7701,-2.7908,-2.7492,-2.6374,-2.5678,-2.5607,-2.5378,-2.4766,-2.4291,-2.3967,-2.3696,-2.3523,-2.3304,-2.3113,-2.2889,-2.2678,-2.231,-2.181,-2.109,-2.0597,-2.0588,-2.0239,-1.9582,-1.963,-1.9973,-1.9441,-1.87,-1.8385,-1.7922,-1.7171,-3.2532,-3.3962,-3.4936,-3.5241,-3.5118,-3.47,-3.3974,-3.3248,-3.3178,-3.276,-3.2252,-3.3596,-3.4191,-3.4392,-3.445,-3.4976,-3.5215,-3.5046,-3.4856,-3.4628,-3.4491,-3.4457,-3.4501,-3.4642,-3.4857,-3.5178,-3.5401,-3.538,-3.5274,-3.5296,-3.5296,-3.5613,-3.5673,-3.5615,-3.5671,-3.5558,-3.5172,-3.4821,-3.4569,-3.4433,-3.3545,-3.2762,-3.2225,-3.1559,-3.0945,-3.09,-3.0884,-3.0743,-3.071,-3.0622,-3.0537,-3.052,-3.0482,-3.0392,-3.0348,-3.0348,-3.026,-3.0218,-3.0104,-3.0204,-3.0684,-3.0928,-3.0916,-3.1298,-3.1977,-3.2379,-3.2748,-3.2927,-3.322,-3.3378,-3.3323,-3.3358,-3.3273,-3.328,-3.2973,-3.2608,-3.1906,-3.1238,-3.0615,-2.9909,-2.9467,-2.9248,-2.8973,-2.8832,-2.8518,-2.8041,-2.7609,-2.7075,-2.659,-2.622,-2.5972,-2.5709,-2.5218,-2.4791,-2.4385,-2.412,-2.3894,-2.3653,-2.348,-2.3157,-2.2844,-2.2495,-2.21,-2.1625,-2.1246,-2.0968,-2.0705,-2.0187,-2.0364,-2.0545,-1.9734,-1.8955,-1.858,-1.7987,-1.6925,-3.2025,-3.3127,-3.4013,-3.4013,-3.3569,-3.3971,-3.3743,-3.304,-3.2966,-3.2532,-3.1942,-3.2019,-3.2682,-3.3433,-3.3452,-3.3751,-3.4004,-3.4023,-3.3829,-3.3499,-3.3638,-3.3573,-3.3658,-3.392,-3.3626,-3.3854,-3.4225,-3.4296,-3.4355,-3.4062,-3.3838,-3.4004,-3.3949,-3.3934,-3.3903,-3.3929,-3.405,-3.3916,-3.3821,-3.36,-3.3415,-3.3084,-3.3626,-3.3025,-3.221,-3.1991,-3.1685,-3.1061,-3.0812,-3.0684,-3.0678,-3.0658,-3.063,-3.0599,-3.0554,-3.0519,-3.0404,-3.0362,-3.0317,-3.0302,-3.0682,-3.1087,-3.124,-3.1565,-3.2036,-3.2295,-3.2447,-3.2289,-3.2508,-3.2654,-3.2668,-3.2776,-3.28,-3.3092,-3.3069,-3.2571,-3.1959,-3.1457,-3.0907,-2.9991,-2.9136,-2.8701,-2.8161,-2.8075,-2.8133,-2.7759,-2.7656,-2.7161,-2.6703,-2.6493,-2.6349,-2.6016,-2.5626,-2.5114,-2.4664,-2.4517,-2.4313,-2.4078,-2.3794,-2.3419,-2.3054,-2.2723,-2.2303,-2.2009,-2.1471,-2.1052,-2.079,-2.0776,-2.0607,-2.0549,-1.9865,-1.9216,-1.8792,-1.8144,-1.713]},{"header":{"parameterUnit":"m.s-1","parameterCategory":1,"la1":31.0,"la2":29.5877,"lo1":-88.7671,"lo2":-86.6584,"dy":0.0162,"dx":0.0185,"nx":115,"ny":88,"refTime":"2023-08-24T06:00:00:Z","depth":0,"parameterNumber":3,"parameterNumberName":"V-component_of_WINDS"},"data":[0.0,0.0,0.0,0.0,0.0,0.0,0.0,0.0,0.0,0.0,0.0,0.0,0.0,0.0,0.0,0.0,0.0,0.0,0.0,0.0,0.0,0.0,0.0,0.0,0.0,0.0,0.0,0.0,0.0,0.0,0.0,0.0,0.0,0.0,0.0,0.0,0.0,0.0,0.0,0.0,0.0,0.0,0.0,0.0,0.0,0.0,0.0,0.0,0.0,0.0,0.0,0.0,0.0,0.0,0.0,0.0,0.0,0.0,0.0,0.0,0.0,0.0,0.0,0.0,0.0,0.0,0.0,0.0,0.0,0.0,0.0,0.0,0.0,0.0,0.0,0.0,0.0,0.0,0.0,0.0,0.0,0.0,0.0,0.0,0.0,0.0,0.0,0.0,0.0,0.0,0.0,0.0,0.0,0.0,0.0,0.0,0.0,0.0,0.0,0.0,0.0,0.0,0.0,0.0,0.0,0.0,0.0,0.0,0.0,0.0,0.0,0.0,0.0,0.0,0.0,0.0,0.0,0.0,0.0,0.0,0.0,0.0,0.0,0.0,0.0,0.0,0.0,0.0,0.0,0.0,0.0,0.0,0.0,0.0,0.0,0.0,0.0,0.0,0.0,0.0,0.0,0.0,0.0,0.0,0.0,0.0,0.0,0.0,0.0,0.0,0.0,0.0,0.0,0.0,0.0,0.0,0.0,0.0,0.0,0.0,0.0,0.0,0.0,0.0,0.0,0.0,0.0,0.0,0.0,0.0,0.0,0.0,0.0,0.0,0.0,0.0,0.0,0.0,0.0,0.0,0.0,0.0,0.0,0.0,0.0,0.0,0.0,0.0,0.0,0.0,0.0,0.0,0.0,0.0,0.0,0.0,0.0,0.0,0.0,0.0,0.0,0.0,0.0,0.0,0.0,0.0,0.0,0.0,0.0,0.0,0.0,0.0,0.0,0.0,0.0,0.0,0.0,0.0,0.0,0.0,0.0,0.0,0.0,0.0,0.0,0.0,0.0,0.0,0.0,0.0,0.0,0.0,0.0,0.0,0.0,0.0,0.0,0.0,0.0,0.0,0.0,0.0,0.0,0.0,0.0,0.0,0.0,0.0,0.0,0.0,0.0,0.0,0.0,0.0,0.0,0.0,0.0,0.0,0.0,0.0,0.0,0.0,0.0,0.0,0.0,0.0,0.0,0.0,0.0,0.0,0.0,0.0,0.0,0.0,0.0,0.0,0.0,0.0,0.0,0.0,0.0,0.0,0.0,0.0,0.0,0.0,0.0,0.0,0.0,0.0,0.0,0.0,0.0,0.0,0.0,0.0,0.0,0.0,0.0,0.0,0.0,0.0,0.0,0.0,0.0,0.0,0.0,0.0,0.0,0.0,0.0,0.0,0.0,0.0,0.0,0.0,0.0,0.0,0.0,0.0,0.0,0.0,0.0,0.0,0.0,0.0,0.0,0.0,0.0,0.0,0.0,0.0,0.0,0.0,0.0,0.0,0.0,0.0,0.0,0.0,0.0,0.0,0.0,0.0,0.0,0.0,0.0,0.0,0.0,0.0,0.0,0.0,0.0,0.0,0.0,0.0,0.0,0.0,0.0,0.0,0.0,0.0,0.0,0.0,0.0,0.0,0.0,0.0,0.0,0.0,0.0,0.0,0.0,0.0,0.0,0.0,0.0,0.0,0.0,0.0,0.0,0.0,0.0,0.0,0.0,0.0,0.0,0.0,0.0,0.0,0.0,0.0,0.0,0.0,0.0,0.0,0.0,0.0,0.0,0.0,0.0,0.0,0.0,0.0,0.0,0.0,0.0,0.0,0.0,0.0,0.0,0.0,0.0,0.0,0.0,0.0,0.0,0.0,0.0,0.0,0.0,0.0,0.0,0.0,0.0,0.0,0.0,0.0,0.0,0.0,0.0,0.0,0.0,0.0,0.0,0.0,0.0,0.0,0.0,0.0,0.0,0.0,0.0,0.0,0.0,0.0,0.0,0.0,0.0,0.0,0.0,0.0,0.0,0.0,0.0,0.0,0.0,0.0,0.0,0.0,0.0,0.0,0.0,0.0,0.0,0.0,0.0,0.0,0.0,0.0,0.0,0.0,0.0,0.0,0.0,0.0,0.0,0.0,0.0,0.0,0.0,0.0,0.0,0.0,0.0,0.0,0.0,0.0,0.0,0.0,0.0,0.0,0.0,0.0,0.0,0.0,0.0,0.0,0.0,0.0,0.0,0.0,0.0,0.0,0.0,0.0,0.0,0.0,0.0,0.0,0.0,0.0,0.0,0.0,0.0,0.0,0.0,0.0,0.0,0.0,0.0,0.0,0.0,0.0,0.0,0.0,0.0,0.0,0.0,0.0,0.0,0.0,0.0,0.0,0.0,0.0,0.0,0.0,0.0,0.0,0.0,0.0,0.0,0.0,0.0,0.0,0.0,0.0,0.0,0.0,0.0,0.0,0.0,0.0,0.0,0.0,0.0,0.0,0.0,0.0,0.0,0.0,0.0,0.0,0.0,0.0,0.0,0.0,0.0,0.0,0.0,0.0,0.0,0.0,0.0,0.0,0.0,0.0,0.0,0.0,0.0,0.0,0.0,0.0,0.0,0.0,0.0,0.0,0.0,0.0,0.0,0.0,0.0,0.0,0.0,0.0,0.0,0.0,0.0,0.0,0.0,0.0,0.0,0.0,0.0,0.0,0.0,0.0,0.0,0.0,0.0,0.0,0.0,0.0,0.0,0.0,0.0,0.0,0.0,0.0,0.0,0.0,0.0,0.0,0.0,0.0,0.0,0.0,0.0,0.0,0.0,0.0,0.0,0.0,0.0,0.0,0.0,0.0,0.0,0.0,0.0,0.0,0.0,0.0,0.0,0.0,0.0,0.0,0.0,0.0,0.0,0.0,0.0,0.0,0.0,0.0,0.0,0.0,0.0,0.0,0.0,0.0,0.0,0.0,0.0,0.0,0.0,0.0,0.0,0.0,0.0,0.0,0.0,0.0,0.0,0.0,0.0,0.0,0.0,0.0,0.0,0.0,0.0,0.0,0.0,0.0,0.0,0.0,0.0,0.0,0.0,0.0,0.0,0.0,0.0,0.0,0.0,0.0,0.0,0.0,0.0,0.0,0.0,0.0,0.0,0.0,0.0,0.0,0.0,0.0,0.0,0.0,0.0,0.0,0.0,0.0,0.0,0.0,0.0,0.0,0.0,0.0,0.0,0.0,0.0,0.0,0.0,0.0,0.0,0.0,0.0,0.0,0.0,0.0,0.0,0.0,0.0,0.0,0.0,0.0,0.0,0.0,0.0,0.0,0.0,0.0,0.0,0.0,0.0,0.0,0.0,0.0,0.0,0.0,0.0,0.0,0.0,0.0,0.0,0.0,0.0,0.0,0.0,0.0,0.0,0.0,0.0,0.0,0.0,0.0,0.0,0.0,0.0,0.0,0.0,0.0,0.0,0.0,0.0,0.0,0.0,0.0,0.0,0.0,0.0,0.0,0.0,0.0,0.0,0.0,0.0,0.0,0.0,0.0,0.0,0.0,0.0,0.0,0.0,0.0,0.0,0.0,0.0,0.0,0.0,0.0,0.0,0.0,0.0,0.0,0.0,0.0,0.0,0.0,0.0,0.0,0.0,0.0,0.0,0.0,0.0,0.0,0.0,0.0,0.0,0.0,0.0,0.0,0.0,0.0,0.0,0.0,0.0,0.0,0.0,0.0,0.0,0.0,0.0,0.0,0.0,0.0,0.0,0.0,0.0,0.0,0.0,0.0,0.0,0.0,0.0,0.0,0.0,0.0,0.0,0.0,0.0,0.0,0.0,0.0,0.0,0.0,0.0,0.0,0.0,0.0,0.0,0.0,0.0,0.0,0.0,0.0,0.0,0.0,0.0,0.0,0.0,0.0,0.0,0.0,0.0,0.0,0.0,0.0,0.0,0.0,0.0,0.0,0.0,0.0,0.0,0.0,0.0,0.0,0.0,0.0,0.0,0.0,0.0,0.0,0.0,0.0,0.0,0.0,0.0,0.0,0.0,0.0,0.0,0.0,0.0,0.0,0.0,0.0,0.0,0.0,0.0,0.0,0.0,0.0,0.0,0.0,0.0,0.0,0.0,0.0,0.0,0.0,0.0,0.0,0.0,0.0,0.0,0.0,0.0,0.0,0.0,0.0,0.0,0.0,0.0,0.0,0.0,0.0,0.0,0.0,0.0,0.0,0.0,0.0,0.0,0.0,0.0,0.0,0.0,0.0,0.0,0.0,0.0,0.0,0.0,0.0,0.0,0.0,0.0,0.0,-0.0598,0.0,0.0,0.0,0.0,0.0,0.0,0.0,0.0,0.0,0.0,0.0,0.0,0.0,0.0,0.0,0.0,0.0,0.0,0.0,0.0,0.0,0.0,0.0,0.0,0.0,0.0,0.0,0.0,0.0,0.0,0.0,0.0,0.0,0.0,0.0,0.0,0.0,0.0,0.0,0.0,0.0,0.0,0.0,0.0,0.0,0.0,0.0,0.0,0.0,0.0,0.0,0.0,0.0,0.0,0.0,0.0,0.0,0.0,0.0,0.0,0.0,0.0,0.0,0.0,0.0,0.0,0.0,0.0,0.0,0.0,0.0,0.0,0.0,0.0,0.0,0.0,0.0,0.0,0.0,0.0,0.0,0.0,0.0,0.0,0.0,0.0,0.0,0.0,0.0,0.0,0.0,0.0,0.0,0.0,0.0,0.0,0.0,0.0,0.0,0.0,0.0,0.0,0.0,0.0,0.0,0.0,0.0,0.0,0.0,0.0,-0.4516,-0.3797,-0.1327,0.0,0.0,0.0,0.0,0.0,0.0,0.0,0.0,0.0,0.0,0.0,0.0,0.0,0.0,0.0,0.0,0.0,0.0,0.0,0.0,0.0,0.0,0.0,0.0,0.0,0.0,0.0,0.0,0.0,0.0,0.0,0.0,0.0,0.0,0.0,0.0,0.0,0.0,0.0,0.0,0.0,0.0,0.0,0.0,0.0,0.0,0.0,0.0,0.0,0.0,0.0,0.0,0.0,0.0,0.0,0.0,0.0,0.0,0.0,0.0,0.0,0.0,0.0,0.0,0.0,0.0,0.0,0.0,0.0,0.0,0.0,0.0,0.0,0.0,0.0,0.0,0.0,0.0,0.0,0.0,0.0,0.0,0.0,0.0,0.0,0.0,0.0,0.0,0.0,0.0,0.0,0.0,0.0,0.0,0.0,0.0,0.0,0.0,0.0,0.0,0.0,0.0,0.0,0.0,0.0,0.0,0.0,0.0,0.0,0.0,0.0,0.0,0.0,0.0,-0.2417,-0.0728,0.0,0.0,0.0,0.0,0.0,0.0,0.0,0.0,0.0,0.0,0.0,0.0,0.0,0.0,0.0,0.0,0.0,0.0,0.0,0.0,0.0,0.0,0.0,0.0,0.0,0.0,0.0,0.0,0.0,0.0,0.0,0.0,0.0,0.0,0.0,0.0,0.0,0.0,0.0,0.0,0.0,0.0,0.0,0.0,0.0,0.0,0.0,0.0,0.0,0.0,0.0,0.0,0.0,0.0,0.0,0.0,0.0,0.0,0.0,0.0,0.0,0.0,0.0,0.0,0.0,0.0,0.0,0.0,0.0,0.0,0.0,0.0,0.0,0.0,0.0,0.0,0.0,0.0,0.0,0.0,0.0,0.0,0.0,0.0,0.0,0.0,0.0,0.0,0.0,0.0,0.0,0.0,0.0,0.0,0.0,0.0,0.0,0.0,0.0,0.0,0.0,0.0,0.0,0.0,0.0,0.0,0.0,0.0,0.0,0.0,0.0,-0.4897,-0.4714,-0.4459,0.0,0.0,0.0,0.0,0.0,0.0,0.0,0.0,0.0,0.0,0.0,0.0,0.0,0.0,0.0,0.0,0.0,0.0,0.0,0.0,0.0,0.0,0.0,0.0,0.0,0.0,0.0,0.0,0.0,0.0,0.0,0.0,0.0,0.0,0.0,0.0,0.0,0.0,0.0,0.0,0.0,0.0,0.0,0.0,0.0,0.0,0.0,0.0,0.0,0.0,0.0,0.0,0.0,0.0,0.0,0.0,0.0,0.0,0.0,0.0,0.0,0.0,0.0,0.0,0.0,0.0,0.0,0.0,0.0,0.0,0.0,0.0,0.0,0.0,0.0,0.0,0.0,0.0,0.0,0.0,0.0,0.0,0.0,0.0,0.0,0.0,0.0,0.0,0.0,0.0,0.0,0.0,0.0,0.0,0.0,0.0,0.0,0.0,0.0,0.0,0.0,0.0,0.0,0.0,0.0,0.0,0.0,0.0,0.0,0.0,0.0,0.0,-0.4899,-0.4805,-0.4768,-0.326,0.0,0.0,0.0,0.0,0.0,0.0,0.0,0.0,0.0,0.0,0.0,0.0,0.0,0.0,0.0,0.0,0.0,0.0,0.0,0.0,0.0,0.0,0.0,0.0,0.0,0.0,0.0,0.0,0.0,0.0,0.0,0.0,0.0,0.0,0.0,0.0,0.0,0.0,0.0,0.0,0.0,0.0,0.0,0.0,0.0,0.0,0.0,0.0,0.0,0.0,0.0,0.0,0.0,0.0,0.0,0.0,0.0,0.0,0.0,0.0,0.0,0.0,0.0,0.0,0.0,0.0,0.0,0.0,0.0,0.0,0.0,0.0,0.0,0.0,0.0,0.0,0.0,0.0,0.0,0.0,0.0,0.0,0.0,0.0,0.0,0.0,0.0,0.0,0.0,0.0,0.0,0.0,0.0,0.0,0.0,0.0,0.0,0.0,0.0,0.0,0.0,0.0,0.0,0.0,0.0,0.0,0.0,0.0,0.0,0.0,-0.4938,-0.4911,-0.486,-0.4475,-0.3303,-0.1299,0.0,0.0,0.0,0.0,0.0,0.0,0.0,0.0,0.0,0.0,0.0,0.0,0.0,0.0,0.0,0.0,0.0,0.0,0.0,0.0,0.0,0.0,0.0,0.0,0.0,0.0,0.0,0.0,0.0,0.0,0.0,0.0,0.0,0.0,0.0,0.0,0.0,0.0,0.0,0.0,0.0,0.0,0.0,0.0,0.0,0.0,0.0,0.0,0.0,0.0,0.0,0.0,0.0,0.0,0.0,0.0,0.0,0.0,0.0,0.0,0.0,0.0,0.0,0.0,0.0,0.0,0.0,0.0,0.0,0.0,0.0,0.0,0.0,0.0,0.0,0.0,0.0,0.0,0.0,0.0,0.0,0.0,0.0,0.0,0.0,0.0,0.0,0.0,0.0,0.0,0.0,0.0,0.0,0.0,0.0,0.0,0.0,0.0,0.0,0.0,0.0,0.0,0.0,0.0,0.0,0.0,0.0,0.0,-0.4926,-0.497,-0.4939,-0.4794,-0.3742,-0.3518,0.0,0.0,0.0,0.0,0.0,0.0,0.0,0.0,0.0,0.0,0.0,0.0,0.0,0.0,0.0,0.0,0.0,0.0,0.0,0.0,0.0,0.0,0.0,0.0,0.0,0.0,0.0,0.0,0.0,0.0,0.0,0.0,0.0,0.0,0.0,0.0,0.0,0.0,0.0,0.0,0.0,0.0,0.0,0.0,0.0,0.0,0.0,0.0,0.0,0.0,0.0,0.0,0.0,0.0,0.0,0.0,0.0,0.0,0.0,0.0,0.0,0.0,0.0,0.0,0.0,0.0,0.0,0.0,0.0,0.0,0.0,0.0,0.0,0.0,0.0,0.0,0.0,0.0,0.0,0.0,0.0,0.0,0.0,0.0,0.0,0.0,0.0,0.0,0.0,0.0,0.0,0.0,0.0,0.0,0.0,0.0,0.0,0.0,0.0,0.0,0.0,0.0,0.0,0.0,0.0,0.0,0.0,0.0,0.0,-0.5073,-0.5012,-0.4927,-0.4726,-0.3727,-0.3628,0.0,0.0,0.0,0.0,0.0,0.0,0.0,0.0,0.0,0.0,0.0,0.0,0.0,0.0,0.0,0.0,0.0,0.0,0.0,0.0,0.0,0.0,0.0,0.0,0.0,0.0,0.0,0.0,0.0,0.0,0.0,0.0,0.0,0.0,0.0,0.0,0.0,0.0,0.0,0.0,0.0,0.0,0.0,0.0,0.0,0.0,0.0,0.0,0.0,0.0,0.0,0.0,0.0,0.0,0.0,0.0,0.0,0.0,0.0,0.0,0.0,0.0,0.0,0.0,0.0,0.0,0.0,0.0,0.0,0.0,0.0,0.0,0.0,0.0,0.0,0.0,0.0,0.0,0.0,0.0,0.0,0.0,0.0,0.0,0.0,0.0,0.0,0.0,0.0,0.0,0.0,0.0,0.0,0.0,0.0,0.0,0.0,0.0,0.0,0.0,0.0,0.0,0.0,0.0,0.0,0.0,0.0,0.0,0.0,-0.5136,0.0,-0.4944,-0.4793,-0.4126,-0.4043,0.0,0.0,0.0,0.0,0.0,0.0,0.0,0.0,0.0,0.0,0.0,0.0,0.0,0.0,0.0,0.0,0.0,0.0,0.0,0.0,0.0,0.0,0.0,0.0,0.0,0.0,0.0,0.0,0.0,0.0,0.0,0.0,0.0,0.0,0.0,0.0,0.0,0.0,0.0,0.0,0.0,0.0,0.0,0.0,0.0,0.0,0.0,0.0,0.0,0.0,0.0,0.0,0.0,0.0,0.0,0.0,0.0,0.0,0.0,0.0,0.0,0.0,0.0,0.0,0.0,0.0,0.0,0.0,0.0,0.0,0.0,0.0,0.0,0.0,0.0,0.0,0.0,0.0,0.0,0.0,0.0,0.0,0.0,0.0,0.0,0.0,0.0,0.0,0.0,0.0,0.0,0.0,0.0,0.0,0.0,0.0,0.0,0.0,0.0,0.0,0.0,0.0,0.0,0.0,0.0,0.0,0.0,0.0,-0.6014,-0.513,-0.506,-0.5052,-0.5008,-0.49,-0.4846,0.0,0.0,0.0,0.0,0.0,0.0,0.0,0.0,0.0,0.0,0.0,0.0,0.0,0.0,0.0,0.0,0.0,0.0,0.0,0.0,0.0,0.0,0.0,0.0,0.0,0.0,0.0,0.0,0.0,0.0,0.0,0.0,0.0,0.0,0.0,0.0,0.0,0.0,0.0,0.0,0.0,0.0,0.0,0.0,0.0,0.0,0.0,0.0,0.0,0.0,0.0,0.0,0.0,0.0,0.0,0.0,0.0,0.0,0.0,0.0,0.0,0.0,0.0,0.0,0.0,0.0,0.0,0.0,0.0,0.0,0.0,0.0,0.0,0.0,0.0,0.0,0.0,0.0,0.0,0.0,0.0,0.0,0.0,0.0,0.0,0.0,0.0,0.0,0.0,0.0,0.0,0.0,0.0,0.0,0.0,0.0,0.0,0.0,0.0,0.0,0.0,0.0,0.0,0.0,0.0,0.0,0.0,0.0,0.0,-0.5182,-0.5623,-0.5603,-0.5034,-0.4971,-0.4928,0.0,0.0,0.0,0.0,0.0,0.0,0.0,0.0,0.0,0.0,0.0,0.0,0.0,0.0,0.0,0.0,0.0,0.0,0.0,0.0,0.0,0.0,0.0,0.0,0.0,0.0,0.0,0.0,0.0,0.0,0.0,0.0,0.0,0.0,0.0,0.0,0.0,0.0,0.0,0.0,0.0,0.0,0.0,0.0,0.0,0.0,0.0,0.0,0.0,0.0,0.0,0.0,0.0,0.0,0.0,0.0,0.0,0.0,0.0,0.0,0.0,0.0,0.0,0.0,0.0,0.0,0.0,0.0,0.0,0.0,0.0,0.0,0.0,0.0,0.0,0.0,0.0,0.0,0.0,0.0,0.0,0.0,0.0,0.0,0.0,0.0,0.0,0.0,0.0,0.0,0.0,0.0,0.0,0.0,0.0,0.0,0.0,0.0,0.0,0.0,0.0,0.0,0.0,0.0,0.0,0.0,0.0,0.0,0.0,-0.7411,-0.7547,-0.7298,-0.6529,-0.6431,-0.5888,-0.4905,0.0,0.0,0.0,0.0,0.0,0.0,0.0,0.0,0.0,0.0,0.0,0.0,0.0,0.0,0.0,0.0,0.0,0.0,0.0,0.0,0.0,0.0,0.0,0.0,0.0,0.0,0.0,0.0,0.0,0.0,0.0,0.0,0.0,0.0,0.0,0.0,0.0,0.0,0.0,0.0,0.0,0.0,0.0,0.0,0.0,0.0,0.0,0.0,0.0,0.0,0.0,0.0,0.0,0.0,0.0,0.0,0.0,0.0,0.0,0.0,0.0,0.0,0.0,0.0,0.0,0.0,0.0,0.0,0.0,0.0,0.0,0.0,0.0,0.0,0.0,0.0,0.0,0.0,0.0,0.0,0.0,0.0,0.0,0.0,0.0,0.0,0.0,0.0,0.0,0.0,0.0,0.0,0.0,0.0,0.0,0.0,0.0,0.0,0.0,0.0,0.0,0.0,0.0,0.0,0.0,0.0,0.0,0.0,-1.1344,-1.0798,-1.0158,-0.9376,-0.8962,-0.7631,0.0,0.0,0.0,0.0,0.0,0.0,0.0,0.0,0.0,0.0,0.0,0.0,0.0,0.0,0.0,0.0,0.0,0.0,0.0,0.0,0.0,0.0,0.0,0.0,0.0,0.0,0.0,0.0,0.0,0.0,0.0,0.0,0.0,0.0,0.0,0.0,0.0,0.0,0.0,0.0,0.0,0.0,0.0,0.0,0.0,0.0,0.0,0.0,0.0,0.0,0.0,0.0,0.0,0.0,0.0,0.0,0.0,0.0,0.0,0.0,0.0,0.0,0.0,0.0,0.0,0.0,0.0,0.0,0.0,0.0,0.0,0.0,0.0,0.0,0.0,0.0,0.0,0.0,0.0,0.0,0.0,0.0,0.0,0.0,0.0,0.0,0.0,0.0,0.0,0.0,0.0,0.0,0.0,0.0,0.0,0.0,0.0,0.0,0.0,0.0,0.0,0.0,0.0,0.0,0.0,0.0,0.0,0.0,0.0,-1.5243,-1.6269,-1.5385,-1.2469,-1.0602,-0.9073,0.0,0.0,0.0,0.0,0.0,0.0,0.0,0.0,0.0,0.0,0.0,0.0,0.0,0.0,0.0,0.0,0.0,0.0,0.0,0.0,0.0,0.0,0.0,0.0,0.0,0.0,0.0,0.0,0.0,0.0,0.0,0.0,0.0,0.0,0.0,0.0,0.0,0.0,0.0,0.0,0.0,0.0,0.0,0.0,0.0,0.0,0.0,0.0,0.0,0.0,0.0,0.0,0.0,0.0,0.0,0.0,0.0,0.0,0.0,0.0,0.0,0.0,0.0,0.0,0.0,0.0,0.0,0.0,0.0,0.0,0.0,0.0,0.0,0.0,0.0,0.0,0.0,0.0,0.0,0.0,0.0,0.0,0.0,0.0,0.0,0.0,0.0,0.0,0.0,0.0,0.0,0.0,0.0,0.0,0.0,0.0,0.0,0.0,0.0,0.0,0.0,0.0,0.0,0.0,0.0,0.0,0.0,0.0,-1.5023,-1.6973,-1.959,-1.978,-1.7427,-1.3936,-1.1205,0.0,0.0,0.0,0.0,0.0,0.0,0.0,0.0,0.0,0.0,0.0,0.0,0.0,0.0,0.0,0.0,0.0,0.0,0.0,0.0,0.0,0.0,0.0,0.0,0.0,0.0,0.0,0.0,0.0,0.0,0.0,0.0,0.0,0.0,0.0,0.0,0.0,0.0,0.0,0.0,0.0,0.0,0.0,0.0,0.0,0.0,0.0,0.0,0.0,0.0,0.0,0.0,0.0,0.0,0.0,0.0,0.0,0.0,0.0,0.0,0.0,0.0,0.0,0.0,0.0,0.0,0.0,0.0,0.0,0.0,0.0,0.0,0.0,0.0,0.0,0.0,0.0,0.0,0.0,0.0,0.0,0.0,0.0,0.0,0.0,0.0,0.0,0.0,0.0,0.0,0.0,0.0,0.0,0.0,0.0,0.0,0.0,0.0,0.0,0.0,0.0,0.0,0.0,0.0,0.0,0.0,0.0,0.0,-1.6419,-1.7692,-2.1432,-2.3215,-2.2618,-1.7749,-1.3611,0.0,0.0,0.0,0.0,0.0,0.0,0.0,0.0,0.0,0.0,0.0,0.0,0.0,0.0,0.0,0.0,0.0,0.0,0.0,0.0,0.0,0.0,0.0,0.0,0.0,0.0,0.0,0.0,0.0,0.0,0.0,0.0,0.0,0.0,0.0,0.0,0.0,0.0,0.0,0.0,0.0,0.0,0.0,0.0,0.0,0.0,0.0,0.0,0.0,0.0,0.0,0.0,0.0,0.0,0.0,0.0,0.0,0.0,0.0,0.0,0.0,0.0,0.0,0.0,0.0,0.0,0.0,0.0,0.0,0.0,0.0,0.0,0.0,0.0,0.0,0.0,0.0,0.0,0.0,0.0,0.0,0.0,0.0,0.0,0.0,0.0,0.0,0.0,0.0,0.0,0.0,0.0,0.0,0.0,0.0,0.0,0.0,0.0,0.0,0.0,0.0,0.0,0.0,0.0,0.0,0.0,0.0,0.0,-1.7693,-2.0034,-2.2818,-2.389,-2.317,-1.8528,-1.5122,0.0,0.0,0.0,0.0,0.0,0.0,0.0,0.0,0.0,0.0,0.0,0.0,0.0,0.0,0.0,0.0,0.0,0.0,0.0,0.0,0.0,0.0,0.0,0.0,0.0,0.0,0.0,0.0,0.0,0.0,0.0,0.0,0.0,0.0,0.0,0.0,0.0,0.0,0.0,0.0,0.0,0.0,0.0,0.0,0.0,0.0,0.0,0.0,-1.2882,0.0,0.0,0.0,0.0,0.0,0.0,0.0,0.0,0.0,0.0,0.0,0.0,0.0,0.0,0.0,0.0,0.0,0.0,0.0,0.0,0.0,0.0,0.0,0.0,0.0,0.0,0.0,0.0,0.0,0.0,0.0,0.0,0.0,0.0,0.0,0.0,0.0,0.0,0.0,0.0,0.0,0.0,0.0,0.0,0.0,0.0,0.0,0.0,0.0,0.0,0.0,0.0,0.0,0.0,0.0,0.0,0.0,0.0,0.0,-1.8097,-2.0709,-2.29,-2.3819,-2.3298,-1.9755,-1.6789,0.0,0.0,0.0,0.0,0.0,0.0,0.0,0.0,0.0,0.0,0.0,0.0,0.0,0.0,0.0,0.0,0.0,0.0,0.0,0.0,0.0,0.0,0.0,0.0,0.0,0.0,0.0,0.0,0.0,0.0,0.0,0.0,0.0,0.0,0.0,0.0,0.0,0.0,0.0,0.0,0.0,0.0,0.0,0.0,0.0,0.0,0.0,0.0,0.0,0.0,0.0,0.0,0.0,0.0,0.0,0.0,0.0,0.0,0.0,0.0,0.0,0.0,0.0,0.0,0.0,0.0,0.0,0.0,0.0,0.0,0.0,0.0,0.0,0.0,0.0,0.0,0.0,0.0,0.0,0.0,0.0,0.0,0.0,0.0,0.0,0.0,0.0,0.0,0.0,0.0,0.0,0.0,0.0,0.0,0.0,0.0,0.0,0.0,0.0,0.0,0.0,0.0,0.0,0.0,0.0,0.0,0.0,-1.5819,-1.8268,-2.091,-2.2638,-2.3414,-2.3284,-2.095,-1.8335,-1.5491,0.0,0.0,0.0,0.0,0.0,0.0,0.0,0.0,0.0,0.0,0.0,0.0,0.0,0.0,0.0,0.0,0.0,0.0,0.0,0.0,0.0,0.0,0.0,0.0,0.0,0.0,0.0,0.0,0.0,0.0,0.0,0.0,0.0,0.0,0.0,0.0,0.0,0.0,-1.2924,-1.3098,0.0,0.0,0.0,0.0,0.0,0.0,0.0,0.0,-1.4789,0.0,0.0,0.0,0.0,0.0,0.0,0.0,0.0,0.0,0.0,0.0,0.0,0.0,0.0,0.0,0.0,0.0,0.0,0.0,0.0,0.0,0.0,0.0,0.0,0.0,0.0,0.0,0.0,0.0,0.0,0.0,0.0,0.0,0.0,0.0,0.0,0.0,0.0,0.0,0.0,0.0,0.0,0.0,0.0,0.0,0.0,0.0,0.0,0.0,0.0,0.0,0.0,0.0,0.0,0.0,0.0,-1.6479,-1.725,-1.9134,-2.2209,-2.3095,-2.3187,-2.2572,-2.1133,-1.9078,-1.6368,0.0,0.0,0.0,0.0,0.0,0.0,0.0,0.0,0.0,0.0,0.0,0.0,0.0,0.0,0.0,0.0,0.0,0.0,0.0,0.0,0.0,0.0,0.0,0.0,0.0,0.0,0.0,0.0,0.0,0.0,0.0,0.0,0.0,0.0,0.0,0.0,0.0,0.0,0.0,-1.4372,-1.4923,0.0,0.0,0.0,0.0,0.0,0.0,0.0,0.0,-1.6086,0.0,0.0,0.0,0.0,0.0,0.0,0.0,0.0,0.0,0.0,0.0,0.0,0.0,0.0,0.0,0.0,0.0,0.0,0.0,0.0,0.0,0.0,0.0,0.0,0.0,0.0,0.0,0.0,0.0,0.0,0.0,0.0,0.0,0.0,0.0,0.0,0.0,0.0,0.0,0.0,0.0,0.0,0.0,0.0,0.0,0.0,0.0,0.0,0.0,0.0,0.0,0.0,0.0,0.0,0.0,-1.6937,-1.7843,-1.9662,-2.2426,-2.2784,-2.275,-2.2377,-2.0852,-1.8958,0.0,0.0,0.0,0.0,0.0,0.0,0.0,0.0,0.0,0.0,0.0,0.0,0.0,0.0,0.0,0.0,0.0,0.0,0.0,0.0,0.0,0.0,0.0,0.0,0.0,0.0,0.0,0.0,0.0,0.0,0.0,0.0,0.0,0.0,0.0,0.0,0.0,0.0,0.0,0.0,-1.6794,-1.7034,-1.6834,0.0,0.0,0.0,0.0,0.0,0.0,-1.6818,-1.6353,0.0,0.0,0.0,0.0,0.0,0.0,0.0,0.0,0.0,0.0,0.0,0.0,0.0,0.0,0.0,0.0,0.0,0.0,0.0,0.0,0.0,0.0,0.0,0.0,0.0,0.0,0.0,0.0,0.0,0.0,0.0,0.0,0.0,0.0,0.0,0.0,0.0,0.0,0.0,0.0,0.0,0.0,0.0,0.0,0.0,0.0,0.0,0.0,0.0,0.0,0.0,0.0,0.0,0.0,0.0,-1.7138,-1.8342,-2.005,-2.223,-2.2264,-2.22,-2.2151,-2.0289,-1.8492,0.0,0.0,0.0,0.0,0.0,0.0,0.0,0.0,0.0,0.0,0.0,0.0,0.0,0.0,0.0,0.0,0.0,0.0,0.0,0.0,0.0,0.0,0.0,0.0,0.0,0.0,0.0,0.0,0.0,0.0,0.0,0.0,0.0,0.0,0.0,0.0,0.0,0.0,0.0,0.0,0.0,-1.8712,-1.8745,-1.8873,0.0,0.0,0.0,0.0,-1.8053,-1.7504,0.0,0.0,0.0,0.0,0.0,0.0,0.0,0.0,0.0,0.0,0.0,0.0,0.0,0.0,0.0,0.0,0.0,0.0,0.0,0.0,0.0,0.0,0.0,0.0,0.0,0.0,0.0,0.0,0.0,0.0,0.0,0.0,0.0,0.0,0.0,0.0,0.0,0.0,0.0,0.0,0.0,0.0,0.0,0.0,0.0,0.0,0.0,0.0,0.0,0.0,0.0,0.0,0.0,0.0,0.0,0.0,-1.8036,-1.9188,-2.0394,-2.1636,-2.172,-2.1626,-2.1467,-1.9311,-1.794,0.0,0.0,0.0,0.0,0.0,0.0,0.0,0.0,0.0,0.0,0.0,0.0,0.0,0.0,0.0,0.0,0.0,0.0,0.0,0.0,0.0,0.0,0.0,0.0,0.0,0.0,0.0,0.0,0.0,0.0,0.0,0.0,0.0,0.0,0.0,0.0,0.0,0.0,0.0,0.0,0.0,-1.892,-1.9492,-1.9741,-1.9566,0.0,0.0,-2.0372,-2.0238,-1.9964,0.0,0.0,0.0,0.0,0.0,0.0,0.0,0.0,0.0,0.0,0.0,0.0,0.0,0.0,0.0,0.0,0.0,0.0,0.0,0.0,0.0,0.0,0.0,0.0,0.0,0.0,0.0,0.0,0.0,0.0,0.0,0.0,0.0,0.0,0.0,0.0,0.0,0.0,0.0,0.0,0.0,0.0,0.0,0.0,0.0,0.0,0.0,0.0,0.0,0.0,0.0,0.0,0.0,0.0,0.0,-1.6923,-1.8171,-1.9166,-2.0312,-2.1554,-2.1589,-2.1376,-2.0874,-1.8951,-1.7671,0.0,0.0,0.0,0.0,0.0,0.0,0.0,0.0,0.0,0.0,0.0,0.0,0.0,0.0,0.0,0.0,0.0,0.0,0.0,0.0,0.0,0.0,0.0,0.0,0.0,0.0,0.0,0.0,0.0,0.0,0.0,0.0,0.0,0.0,0.0,0.0,0.0,0.0,0.0,0.0,0.0,0.0,-2.0386,-2.0859,0.0,0.0,0.0,-2.1301,-2.0451,0.0,0.0,0.0,0.0,0.0,0.0,0.0,0.0,0.0,0.0,0.0,0.0,0.0,0.0,0.0,0.0,0.0,0.0,0.0,0.0,0.0,0.0,0.0,0.0,0.0,0.0,0.0,0.0,0.0,0.0,0.0,0.0,0.0,0.0,0.0,0.0,0.0,0.0,0.0,0.0,0.0,0.0,0.0,0.0,0.0,0.0,0.0,0.0,0.0,0.0,0.0,0.0,0.0,0.0,0.0,0.0,0.0,-1.82,-1.9269,-2.0397,-2.1584,-2.1634,-2.1289,-2.055,-1.8975,0.0,0.0,0.0,0.0,0.0,0.0,0.0,0.0,0.0,0.0,0.0,0.0,0.0,0.0,0.0,0.0,0.0,0.0,0.0,0.0,0.0,0.0,0.0,0.0,0.0,0.0,0.0,-0.7624,0.0,0.0,0.0,0.0,0.0,0.0,0.0,0.0,0.0,0.0,0.0,0.0,0.0,0.0,-2.1171,-2.129,-2.1749,-2.2035,0.0,0.0,-2.195,-2.1225,-2.1732,-2.1634,0.0,0.0,0.0,0.0,0.0,0.0,0.0,0.0,0.0,0.0,0.0,0.0,0.0,0.0,0.0,0.0,0.0,0.0,0.0,0.0,0.0,0.0,0.0,0.0,0.0,0.0,0.0,0.0,0.0,0.0,0.0,0.0,0.0,0.0,0.0,0.0,0.0,0.0,0.0,0.0,0.0,0.0,0.0,0.0,0.0,0.0,0.0,0.0,0.0,0.0,0.0,0.0,0.0,0.0,0.0,-1.8217,-1.979,-2.0957,-2.1661,-2.1738,-2.142,-2.0619,-1.9446,-1.8184,0.0,0.0,0.0,0.0,0.0,0.0,0.0,0.0,0.0,0.0,0.0,0.0,0.0,0.0,0.0,0.0,0.0,0.0,0.0,0.0,0.0,0.0,0.0,0.0,0.0,0.0,0.0,0.0,0.0,0.0,0.0,0.0,0.0,0.0,0.0,0.0,0.0,0.0,0.0,0.0,0.0,-2.2041,-2.2109,-2.2104,-2.255,0.0,0.0,-2.2571,-2.364,-2.371,-2.3247,-2.2058,0.0,0.0,0.0,0.0,0.0,0.0,0.0,0.0,0.0,0.0,0.0,0.0,0.0,0.0,0.0,0.0,0.0,0.0,0.0,0.0,0.0,0.0,0.0,0.0,0.0,0.0,0.0,0.0,0.0,0.0,0.0,0.0,0.0,0.0,0.0,0.0,0.0,0.0,0.0,0.0,0.0,0.0,0.0,0.0,0.0,0.0,0.0,0.0,0.0,0.0,0.0,0.0,0.0,-1.763,-1.8344,-1.9883,-2.1036,-2.1735,-2.1781,-2.1234,-2.0069,-1.9311,-1.8102,0.0,0.0,0.0,0.0,0.0,0.0,0.0,0.0,0.0,0.0,0.0,0.0,0.0,0.0,0.0,0.0,0.0,0.0,0.0,0.0,0.0,0.0,0.0,0.0,0.0,0.0,0.0,0.0,-1.0878,-1.1448,-1.0774,0.0,0.0,0.0,0.0,0.0,0.0,0.0,0.0,0.0,0.0,-2.1853,-2.3244,-2.2989,0.0,0.0,-2.3747,-2.3315,-2.299,-2.4035,-2.4137,-2.2027,-2.1843,0.0,0.0,0.0,0.0,0.0,0.0,0.0,0.0,0.0,0.0,0.0,0.0,0.0,0.0,0.0,0.0,0.0,0.0,0.0,0.0,0.0,0.0,0.0,0.0,0.0,0.0,0.0,0.0,0.0,0.0,0.0,0.0,0.0,0.0,0.0,0.0,0.0,0.0,0.0,0.0,0.0,0.0,0.0,0.0,0.0,0.0,0.0,0.0,0.0,0.0,0.0,0.0,-1.7684,-1.8388,-1.9933,-2.1064,-2.1781,-2.1781,-2.1213,-2.004,-1.9429,-1.8319,0.0,0.0,0.0,0.0,0.0,0.0,0.0,0.0,0.0,0.0,0.0,0.0,0.0,0.0,0.0,0.0,0.0,0.0,0.0,0.0,0.0,0.0,0.0,0.0,0.0,0.0,0.0,0.0,-1.052,-1.0711,-1.1501,0.0,0.0,0.0,0.0,0.0,0.0,0.0,0.0,0.0,0.0,-2.2121,-2.3758,-2.3515,-2.3512,-2.4556,-2.4155,-2.3531,-2.3026,-2.4053,-2.4238,-2.2308,0.0,0.0,0.0,0.0,0.0,0.0,0.0,0.0,0.0,0.0,0.0,0.0,0.0,0.0,0.0,0.0,0.0,0.0,0.0,0.0,0.0,0.0,0.0,0.0,0.0,0.0,0.0,0.0,0.0,0.0,-0.8319,0.0,0.0,0.0,0.0,0.0,0.0,0.0,0.0,0.0,0.0,0.0,0.0,0.0,0.0,0.0,0.0,0.0,0.0,0.0,0.0,0.0,0.0,-1.7737,-1.8425,-1.995,-2.1069,-2.1764,-2.1781,-2.1462,-2.0683,-1.9975,-1.901,-1.7743,0.0,0.0,0.0,0.0,0.0,0.0,0.0,0.0,0.0,0.0,0.0,0.0,0.0,0.0,0.0,0.0,0.0,0.0,0.0,0.0,0.0,0.0,0.0,0.0,0.0,0.0,-1.0218,-1.0634,-1.1409,0.0,0.0,0.0,0.0,0.0,0.0,0.0,0.0,0.0,0.0,-2.2256,-2.3089,-2.3466,-2.3518,-2.4055,-2.5627,-2.406,-2.3121,-2.4404,-2.4043,-2.3499,0.0,0.0,0.0,0.0,0.0,0.0,0.0,0.0,0.0,0.0,0.0,0.0,0.0,0.0,0.0,0.0,0.0,0.0,0.0,0.0,0.0,0.0,0.0,0.0,0.0,0.0,0.0,-0.9687,-0.9697,0.0,0.0,0.0,0.0,0.0,0.0,0.0,0.0,0.0,0.0,0.0,-1.507,-1.6425,0.0,0.0,0.0,0.0,0.0,0.0,0.0,0.0,0.0,0.0,0.0,0.0,-1.8503,-1.9286,-2.0679,-2.1549,-2.1764,-2.184,-2.152,-2.0777,-2.0144,-1.8958,-1.7266,0.0,0.0,0.0,0.0,0.0,0.0,0.0,0.0,0.0,0.0,0.0,0.0,0.0,0.0,0.0,0.0,0.0,0.0,0.0,0.0,0.0,0.0,0.0,0.0,0.0,-1.0697,0.0,0.0,0.0,0.0,0.0,0.0,0.0,0.0,0.0,0.0,0.0,-2.0162,-2.1695,-2.2376,-2.3082,-2.4085,-2.4269,-2.4818,0.0,0.0,0.0,0.0,0.0,0.0,0.0,0.0,0.0,0.0,0.0,0.0,0.0,0.0,-2.1644,-1.9604,-1.9752,-2.0297,-2.0574,0.0,0.0,0.0,0.0,0.0,0.0,0.0,0.0,0.0,0.0,0.0,0.0,0.0,0.0,-1.148,0.0,-1.192,0.0,0.0,0.0,0.0,0.0,0.0,0.0,0.0,-1.5298,-1.6561,-1.7526,-1.8909,-1.9447,0.0,-1.9635,-1.8895,0.0,0.0,0.0,0.0,0.0,0.0,0.0,0.0,-1.9596,-2.0149,-2.1479,-2.2178,-2.2162,-2.199,-2.1653,-2.1159,-2.0261,-1.9043,-1.7512,-1.713,-1.6459,0.0,0.0,0.0,0.0,0.0,0.0,0.0,0.0,0.0,0.0,0.0,0.0,0.0,0.0,0.0,0.0,0.0,0.0,0.0,0.0,0.0,0.0,0.0,-1.1361,0.0,0.0,0.0,0.0,0.0,0.0,0.0,0.0,0.0,-1.8693,-1.9667,-2.0893,-2.242,-2.2943,-2.3556,-2.4632,0.0,0.0,0.0,0.0,0.0,0.0,0.0,-2.4889,-2.4163,-2.5111,-2.5795,-2.5291,-2.4856,-2.4734,-2.5196,0.0,0.0,-2.1957,-2.201,-2.2548,-2.2802,-2.2661,-2.2539,-2.2825,-2.3333,-2.3708,0.0,0.0,0.0,0.0,0.0,0.0,0.0,0.0,-1.3315,-1.2772,0.0,-1.3245,0.0,0.0,0.0,0.0,0.0,-1.4187,0.0,0.0,-1.9179,-2.0446,-1.9893,-2.0774,-2.1381,-2.1635,-2.1045,-2.0684,-2.0501,-1.9756,0.0,0.0,0.0,0.0,0.0,0.0,-2.0924,-2.1041,-2.2296,-2.2924,-2.2857,-2.2195,-2.1827,-2.1728,-2.039,-1.9313,-1.8551,-1.7479,-1.716,-1.7754,-1.6361,0.0,0.0,0.0,0.0,0.0,0.0,0.0,0.0,0.0,0.0,0.0,0.0,0.0,0.0,0.0,0.0,0.0,0.0,0.0,0.0,-1.3251,0.0,0.0,0.0,0.0,0.0,0.0,0.0,0.0,0.0,0.0,-1.8903,-2.0042,-2.1519,-2.311,0.0,0.0,0.0,0.0,-2.5844,-2.5673,-2.4904,-2.4425,-2.4542,-2.4964,-2.5428,-2.5872,0.0,0.0,-2.807,-2.6135,-2.4792,-2.4751,-2.5894,-2.6243,-2.4891,-2.4064,-2.3839,-2.4507,-2.412,-2.3814,-2.4448,-2.4794,-2.4773,-1.4325,0.0,0.0,0.0,0.0,-1.3217,-1.4368,-1.602,-1.6041,-1.5813,-1.5461,-1.5934,0.0,0.0,0.0,0.0,0.0,0.0,-1.6636,-1.8332,-1.9791,-2.1064,-2.2223,-2.3152,-2.3533,-2.3374,-2.3374,-2.3054,-2.245,-2.2765,-2.1404,-1.846,0.0,0.0,0.0,0.0,-2.1526,-2.277,-2.3388,-2.3437,-2.2907,-2.2754,-2.2182,-2.1194,-2.0689,-2.0113,-1.9391,-1.9527,-1.9303,-1.8606,-1.862,0.0,0.0,0.0,0.0,0.0,0.0,0.0,0.0,0.0,0.0,0.0,0.0,0.0,0.0,0.0,0.0,0.0,0.0,0.0,-1.3811,-1.5257,-1.5649,0.0,0.0,0.0,0.0,0.0,0.0,0.0,0.0,0.0,-2.0979,-2.1081,-2.1524,0.0,0.0,-2.3611,-2.4358,-2.5465,-2.6499,-2.7366,-2.7276,0.0,-2.8365,-2.8372,-2.8288,-2.8416,-2.9247,-2.998,-3.0323,-2.9223,-2.8466,-2.8978,-2.8518,-2.7893,-2.7524,-2.7255,-2.7127,-2.735,-2.724,-2.7145,-2.7368,-2.7423,-2.7387,-1.7587,-1.6248,-1.4879,-1.4699,-1.5307,-1.5474,-1.6488,-1.8031,-1.7977,-1.7765,-1.7456,-1.802,-1.7078,-1.5088,-1.5256,0.0,0.0,0.0,-1.844,-2.0589,-2.1044,-2.2087,-2.355,-2.4199,-2.4491,-2.4519,-2.4751,-2.46,-2.4144,-2.3942,-2.2958,-2.1251,0.0,0.0,-2.1066,-2.1962,-2.2937,-2.3998,-2.4303,-2.4216,-2.3768,-2.3252,-2.2418,-2.1299,-2.0938,-2.0545,-2.0113,-2.0246,-2.01,-1.963,-1.9579,-1.8767,0.0,0.0,0.0,0.0,0.0,0.0,0.0,0.0,0.0,0.0,0.0,-1.4068,0.0,0.0,0.0,0.0,-1.2735,-1.4302,-1.5383,-1.624,0.0,0.0,0.0,0.0,0.0,0.0,0.0,-1.8622,-2.0483,-2.1919,-2.241,-2.248,-2.2906,-2.3987,-2.4296,-2.4641,-2.5231,0.0,-2.7119,-2.7704,-2.7778,-2.8048,-2.8817,-2.8874,-2.8987,-2.9556,-2.958,-2.9861,-3.0589,-2.9944,-2.9518,-2.9807,-2.9264,-2.8587,-2.8587,-2.8587,-2.8587,-2.8587,-2.8587,-2.8587,-2.8587,-2.8587,-2.8587,-2.0393,-2.0454,-1.711,-1.6503,-1.7751,-1.7501,-1.817,-1.9442,-1.9297,-1.8877,-1.8331,-1.9544,-1.875,-1.6502,-1.6686,0.0,-1.9147,-1.9379,-2.0599,-2.2602,-2.281,-2.3334,-2.4105,-2.4261,-2.4589,-2.5052,-2.5262,-2.5432,-2.5449,-2.3935,-2.354,-2.4258,-2.4275,-2.3525,-2.2171,-2.3692,-2.4607,-2.47,-2.4955,-2.5045,-2.5077,-2.3653,-2.2576,-2.1897,-2.1151,-2.0815,-2.0782,-2.0141,-2.0081,-2.0716,-1.9715,-1.8818,-1.8078,0.0,0.0,0.0,0.0,0.0,0.0,0.0,0.0,0.0,0.0,0.0,0.0,0.0,0.0,0.0,-1.3047,0.0,-1.7674,-1.689,0.0,0.0,0.0,-1.9404,-2.1567,-2.1844,-2.1916,-2.1988,0.0,0.0,-2.3452,-2.4169,-2.5164,-2.6574,-2.6626,-2.6635,-2.696,-2.7401,-2.7656,-2.734,-2.7245,-2.7265,-2.7793,-2.8064,-2.8732,-2.9744,-2.9282,-2.9236,-2.9797,-2.9344,-2.8775,-2.8848,-2.8641,-2.8587,-2.8587,-2.8587,-2.8587,-2.8587,-2.8587,-2.8587,-2.8587,-2.8587,-2.8587,-2.142,-2.1871,-2.0499,-2.0054,-2.0291,-2.0054,-2.0321,-2.0959,-2.066,-2.0367,-2.0172,-2.0703,-2.0444,-1.9686,-1.9885,-2.0478,-2.1355,-2.1674,-2.2304,-2.3241,-2.3486,-2.3731,-2.4009,-2.4317,-2.4523,-2.4695,-2.5005,-2.5123,-2.5107,-2.4778,-2.4405,-2.4017,-2.4201,-2.3811,-2.2865,-2.327,-2.3892,-2.4695,-2.4761,-2.4818,-2.4891,-2.3572,-2.2731,-2.2549,-2.1883,-2.1532,-2.1516,-2.1367,-2.1321,-2.1444,-2.1242,-2.0602,-1.9556,-1.8307,0.0,0.0,0.0,0.0,0.0,0.0,0.0,0.0,0.0,-1.6396,-1.4837,0.0,-1.5148,0.0,-1.4239,-1.6973,-2.0733,-2.0737,0.0,0.0,-2.086,-2.1303,-2.2558,-2.316,-2.3566,-2.3771,-2.4375,-2.5041,-2.5629,-2.5889,-2.6544,-2.7893,-2.689,-2.6219,-2.6883,-2.7437,-2.798,-2.8413,-2.8795,-2.9338,-2.9783,-3.0141,-3.0264,-3.0649,-3.0514,-3.0514,-3.0659,-3.0025,-2.9518,-2.9481,-2.8993,-2.8641,-2.8587,-2.8587,-2.8587,-2.8518,-2.8543,-2.8587,-2.8587,-2.8587,-2.8587,-2.1713,-2.2115,-2.1735,-2.168,-2.1707,-2.1519,-2.139,-2.1394,-2.1223,-2.1037,-2.0941,-2.1282,-2.1391,-2.1364,-2.1643,-2.1961,-2.2323,-2.2672,-2.2993,-2.3304,-2.361,-2.3782,-2.3925,-2.4109,-2.4261,-2.4467,-2.4645,-2.4883,-2.523,-2.5004,-2.4812,-2.4895,-2.4654,-2.4221,-2.3657,-2.3318,-2.3442,-2.4025,-2.4441,-2.4709,-2.484,-2.3836,-2.3056,-2.2601,-2.195,-2.1542,-2.1413,-2.1345,-2.1335,-2.1319,-2.1298,-2.0713,-1.9501,-1.8583,-1.7477,0.0,0.0,0.0,0.0,0.0,0.0,0.0,0.0,0.0,0.0,0.0,-1.6821,-1.5742,-1.666,-1.8537,-2.155,-2.1803,-2.2062,-2.2872,-2.2948,-2.3551,-2.5081,-2.5606,-2.5896,-2.6023,-2.6417,-2.6845,-2.7282,-2.7359,-2.7645,-2.8485,-2.7684,-2.7204,-2.7613,-2.7978,-2.8324,-2.8759,-2.9089,-2.9409,-2.988,-2.9934,-2.9934,-2.9934,-2.9934,-2.9934,-2.9916,-2.959,-2.9264,-2.9246,-2.8876,-2.8562,-2.8562,-2.8536,-2.851,-2.8484,-2.8484,-2.851,-2.851,-2.851,-2.851,-2.1631,-2.1895,-2.1886,-2.2049,-2.2396,-2.2221,-2.1901,-2.1403,-2.1314,-2.1172,-2.1006,-2.1541,-2.1793,-2.1983,-2.237,-2.2569,-2.2601,-2.2918,-2.3083,-2.3127,-2.3436,-2.3696,-2.3797,-2.3855,-2.3967,-2.4261,-2.4353,-2.4791,-2.5501,-2.4952,-2.5108,-2.5791,-2.51,-2.4482,-2.4003,-2.3397,-2.3133,-2.3173,-2.4029,-2.4596,-2.4811,-2.3983,-2.313,-2.2261,-2.166,-2.1214,-2.0906,-2.0812,-2.077,-2.0784,-2.0705,-2.0216,-1.9198,-1.8531,-1.7957,0.0,-1.6966,0.0,0.0,0.0,0.0,0.0,0.0,0.0,0.0,-1.8333,-1.8906,-2.0099,-1.9621,-2.0021,-2.1866,-2.2068,-2.2893,-2.4897,-2.5087,-2.5849,-2.7814,-2.8099,-2.8099,-2.8099,-2.8246,-2.8398,-2.8326,-2.8432,-2.8492,-2.8562,-2.8496,-2.842,-2.8558,-2.854,-2.8583,-2.8587,-2.8605,-2.8706,-2.8706,-2.8652,-2.867,-2.8616,-2.8688,-2.8562,-2.8652,-2.8634,-2.858,-2.8598,-2.8528,-2.8484,-2.8484,-2.8432,-2.838,-2.838,-2.8398,-2.838,-2.8406,-2.8424,-2.8424,-2.1866,-2.2145,-2.1863,-2.1999,-2.2408,-2.2567,-2.234,-2.1901,-2.1393,-2.1017,-2.0858,-2.1299,-2.1554,-2.1698,-2.1983,-2.2217,-2.2463,-2.2768,-2.2979,-2.3127,-2.3421,-2.3696,-2.3797,-2.3925,-2.3982,-2.4097,-2.4615,-2.4935,-2.5116,-2.5588,-2.531,-2.4429,-2.4414,-2.377,-2.2598,0.0,0.0,0.0,-2.3929,-2.4401,-2.4298,-2.2962,-2.2148,-2.1879,-2.1304,0.0,-2.082,-2.0802,-2.0778,-2.0727,-2.0714,0.0,0.0,0.0,0.0,0.0,0.0,0.0,0.0,0.0,0.0,0.0,-2.0289,-1.9623,-1.85,-1.9056,-2.0273,-2.21,-2.2289,-2.314,-2.5234,-2.5516,-2.5975,-2.7007,-2.7211,-2.7497,-2.7979,-2.8071,-2.8099,-2.8099,-2.8191,-2.8246,-2.8237,-2.83,-2.8371,-2.845,-2.8432,-2.8476,-2.851,-2.8562,-2.8562,-2.8536,-2.8484,-2.845,-2.845,-2.845,-2.8432,-2.845,-2.8432,-2.845,-2.845,-2.845,-2.8432,-2.845,-2.8432,-2.8406,-2.8406,-2.8424,-2.838,-2.8327,-2.8327,-2.8327,-2.838,-2.8424,-2.8424,-2.1729,0.0,-2.1783,-2.1886,0.0,-2.2555,-2.2578,-2.2377,-2.1612,-2.1153,-2.0862,-2.122,-2.1472,-2.1645,-2.1753,-2.1902,-2.2137,-2.254,-2.2768,-2.2873,-2.3113,-2.329,-2.3348,-2.3494,-2.3702,-2.406,-2.4537,-2.5062,-2.5678,-2.5801,-2.5601,-2.5017,-2.4768,-2.4196,-2.3375,-2.3489,-2.3533,-2.3473,-2.3918,-2.4376,-2.4728,-2.3687,-2.3017,-2.2829,-2.2212,0.0,0.0,0.0,0.0,0.0,0.0,0.0,0.0,-2.1867,0.0,-2.1859,-2.176,-2.179,-2.1935,-2.24,-2.2729,-2.2816,-2.2237,-2.1145,-1.9477,-2.0703,-2.2194,-2.3598,-2.4192,-2.516,-2.6593,-2.6892,-2.7121,-2.7577,-2.7707,-2.7813,-2.7929,-2.7957,-2.7986,-2.794,-2.8007,-2.8081,-2.8099,-2.8209,-2.8273,-2.8345,-2.838,-2.8424,-2.8432,-2.8484,-2.8484,-2.8458,-2.8432,-2.8424,-2.8424,-2.8424,-2.8424,-2.8424,-2.8424,-2.8424,-2.8424,-2.8424,-2.8424,-2.8398,-2.8371,-2.8371,-2.8353,-2.8345,-2.8291,-2.8264,-2.8246,-2.8264,-2.8291,-2.8291,-2.8291,-2.1397,-2.1695,-2.1684,-2.1706,-2.1862,-2.2359,-2.2555,-2.2529,0.0,0.0,0.0,-2.1258,-2.155,-2.1773,-2.1645,-2.1718,-2.1877,-2.2386,-2.2623,-2.2583,-2.2999,-2.3165,-2.3064,-2.3154,-2.3549,-2.4239,-2.444,-2.5201,-2.6278,-2.6009,-2.5978,-2.6077,-2.5485,-2.4946,-2.457,-2.4549,-2.4439,-2.4182,-2.3915,-2.4198,-2.4975,-2.4308,-2.3801,-2.3589,-2.3059,-2.2677,-2.2444,-2.241,-2.2401,-2.2407,-2.2412,-2.2538,-2.2768,-2.2852,-2.2936,-2.3032,-2.3119,-2.3491,-2.413,-2.3947,-2.413,-2.4909,-2.4031,-2.2786,-2.1148,-2.2626,-2.3943,-2.4734,-2.5654,-2.6433,-2.7129,-2.7293,-2.7434,-2.7539,-2.7587,-2.7694,-2.7813,-2.7859,-2.7824,-2.7748,-2.7836,-2.7968,-2.7986,-2.8099,-2.8182,-2.8246,-2.8318,-2.8371,-2.8353,-2.838,-2.838,-2.838,-2.8371,-2.8371,-2.8371,-2.8371,-2.8353,-2.8371,-2.8353,-2.8371,-2.8371,-2.8371,-2.8371,-2.8371,-2.8345,-2.8291,-2.8291,-2.8237,-2.8182,-2.8182,-2.8182,-2.8182,-2.8182,-2.8182,-2.8209,-2.0946,-2.0962,-2.144,-2.156,-2.1526,-2.1889,-2.208,-2.2213,-2.2317,-2.1996,-2.1436,-2.1712,-2.1889,-2.2001,-2.1799,-2.1805,-2.2072,-2.263,-2.2642,-2.2334,-2.3717,-2.411,-2.367,-2.3717,-2.4051,-2.4675,-2.4834,-2.5297,-2.6079,-2.6781,-2.6887,-2.634,-2.5903,-2.5167,-2.4254,-2.4287,-2.4358,-2.4445,-2.3819,-2.3522,-2.3601,-2.2862,-2.2409,-2.2279,-2.2371,-2.2357,-2.2254,-2.2366,-2.2427,-2.2484,-2.2461,-2.2901,-2.3818,-2.3992,-2.412,-2.4346,-2.4497,-2.4381,-2.3852,-2.4448,-2.4963,-2.5129,-2.5063,-2.4658,-2.3907,-2.4198,-2.4751,-2.5499,-2.6294,-2.692,-2.7085,-2.7198,-2.7293,-2.7448,-2.7557,-2.763,-2.7719,-2.7748,-2.7748,-2.7701,-2.7748,-2.7806,-2.79,-2.7986,-2.8071,-2.8109,-2.8209,-2.8237,-2.8237,-2.8273,-2.8282,-2.83,-2.8264,-2.8237,-2.8237,-2.8237,-2.8237,-2.8254,-2.8237,-2.8237,-2.8237,-2.8237,-2.8237,-2.8237,-2.8237,-2.8209,-2.8209,-2.8209,-2.8182,-2.8182,-2.8182,-2.8182,-2.8182,-2.8182,-2.8182,-2.0741,-2.0907,-2.1035,-2.1163,-2.1212,-2.1631,-2.1956,-2.2128,-2.2309,-2.2213,-2.1958,-2.2046,-2.2173,-2.2278,-2.2014,-2.2088,-2.2352,-2.2638,-2.2746,-2.2779,-2.3442,-2.3755,-2.3717,-2.3851,-2.4291,-2.4977,-2.5207,-2.564,-2.6271,-2.6761,-2.6564,-2.5644,-2.4908,-2.4551,-2.447,-2.4106,-2.4009,-2.4234,-2.4069,-2.3994,-2.3957,-2.3529,-2.3333,-2.3365,-2.345,-2.3518,-2.35,-2.3635,-2.3719,-2.3752,-2.3902,-2.4231,-2.4715,-2.4921,-2.5067,-2.5155,-2.5317,-2.5242,-2.4772,-2.5209,-2.5584,-2.5725,-2.5429,-2.5163,-2.4894,-2.4652,-2.4814,-2.5556,-2.6044,-2.6466,-2.6906,-2.7023,-2.712,-2.7324,-2.7355,-2.7448,-2.7569,-2.763,-2.7677,-2.7659,-2.7672,-2.773,-2.7795,-2.7871,-2.7975,-2.8042,-2.8126,-2.8182,-2.8182,-2.8237,-2.8264,-2.8219,-2.8227,-2.8209,-2.8182,-2.8182,-2.8182,-2.8182,-2.8182,-2.8182,-2.8182,-2.8182,-2.8182,-2.8182,-2.8182,-2.8182,-2.8182,-2.8182,-2.8182,-2.8182,-2.8182,-2.8182,-2.8182,-2.8182,-2.8182,-2.0382,-2.0563,-2.0512,-2.0579,-2.0786,-2.1232,-2.1726,-2.2049,-2.2099,-2.2165,-2.23,-2.2334,-2.2439,-2.2551,-2.2329,-2.2282,-2.2489,-2.2707,-2.2857,-2.2964,-2.3259,-2.3486,-2.3642,-2.3903,-2.4497,-2.5212,-2.5431,-2.583,-2.6361,-2.6563,-2.617,-2.5214,-2.4246,-2.4104,-2.4597,-2.3895,-2.3653,-2.3882,-2.4151,-2.4317,-2.4317,-2.4276,-2.4276,-2.4333,-2.4426,-2.4482,-2.4549,-2.4686,-2.4766,-2.4822,-2.506,-2.5217,-2.5294,-2.5464,-2.5578,-2.5616,-2.5787,-2.5824,-2.5712,-2.5824,-2.597,-2.6132,-2.5673,-2.5394,-2.5413,-2.5063,-2.5009,-2.5476,-2.5795,-2.6183,-2.6723,-2.6876,-2.6975,-2.7166,-2.7181,-2.7293,-2.7465,-2.7557,-2.7587,-2.7587,-2.7612,-2.7642,-2.7672,-2.7766,-2.79,-2.8014,-2.8126,-2.8182,-2.8182,-2.8182,-2.8182,-2.8182,-2.8182,-2.8182,-2.8182,-2.8182,-2.8182,-2.8182,-2.8182,-2.8182,-2.8182,-2.8182,-2.8182,-2.8182,-2.8182,-2.8182,-2.8182,-2.8182,-2.8182,-2.8182,-2.8182,-2.8182,-2.8182,-2.8182,-2.8182,-1.9716,-1.9429,-1.9715,-1.991,-1.9943,-2.0495,-2.106,-2.1714,-2.1842,-2.2015,-2.22,-2.2555,-2.2701,-2.2807,-2.2576,-2.2522,-2.2566,-2.2963,-2.2884,-2.2625,-2.3771,-2.4182,-2.381,-2.4123,-2.4682,-2.5356,-2.5275,-2.5558,-2.6082,-2.6336,-2.6217,-2.5684,-2.5009,-2.4465,-2.4109,-2.3614,-2.3451,-2.3638,-2.3653,-2.3724,-2.3882,-2.3982,-2.3982,-2.3882,-2.4177,-2.4317,-2.4302,-2.4508,-2.467,-2.4782,-2.4822,-2.4966,-2.5256,-2.5333,-2.541,-2.5578,-2.5787,-2.5917,-2.5954,-2.5917,-2.5881,-2.5917,-2.5924,-2.5914,-2.5931,-2.5969,-2.5862,-2.5748,-2.6201,-2.6573,-2.6725,-2.6825,-2.6942,-2.7103,-2.7166,-2.7293,-2.7465,-2.7496,-2.7478,-2.7496,-2.7526,-2.7544,-2.7539,-2.7642,-2.7806,-2.8014,-2.8099,-2.8154,-2.8182,-2.8182,-2.82,-2.82,-2.8182,-2.8182,-2.8182,-2.8182,-2.8182,-2.8182,-2.8182,-2.8182,-2.8182,-2.8182,-2.8182,-2.8182,-2.8182,-2.8182,-2.8182,-2.8182,-2.8182,-2.8182,-2.8182,-2.8182,-2.8182,-2.8227,-2.8209,-1.9195,-1.8967,-1.9145,-1.9244,-1.9285,-1.9683,-2.0085,-2.0613,-2.0858,-2.1187,-2.1411,-2.1651,-2.2087,-2.258,-2.2708,-2.2799,-2.2845,-2.3081,-2.3167,-2.309,-2.3703,-2.4,-2.4019,-2.4276,-2.4662,-2.5048,-2.497,-2.5094,-2.5287,-2.5244,-2.5441,-2.5826,-2.507,-2.4745,-2.5053,-2.4212,-2.379,-2.3955,-2.3585,-2.3436,-2.3523,-2.3653,-2.3782,-2.3839,-2.3925,-2.4051,-2.4094,-2.4261,-2.4385,-2.4482,-2.4605,-2.4766,-2.4982,-2.51,-2.5201,-2.541,-2.56,-2.5733,-2.5828,-2.5791,-2.5791,-2.5791,-2.5864,-2.5954,-2.6026,-2.6063,-2.6038,-2.6031,-2.6336,-2.6623,-2.6674,-2.6742,-2.6809,-2.7038,-2.712,-2.7152,-2.7376,-2.7438,-2.7438,-2.7452,-2.7483,-2.7496,-2.7526,-2.7569,-2.7689,-2.7795,-2.7911,-2.7996,-2.8071,-2.8126,-2.8154,-2.8182,-2.8182,-2.8182,-2.8182,-2.8182,-2.8182,-2.8182,-2.8182,-2.8182,-2.8182,-2.8182,-2.8182,-2.8182,-2.8182,-2.8182,-2.8182,-2.8182,-2.8182,-2.8182,-2.8182,-2.8182,-2.8182,-2.8237,-2.8264,-1.8695,-1.8504,-1.8432,-1.855,-1.8851,-1.8869,-1.925,-1.9677,-1.9976,-2.0237,-2.0635,-2.0828,-2.1366,-2.2166,-2.2555,-2.2787,-2.2969,-2.3017,-2.3138,-2.339,-2.3378,-2.3556,-2.3897,-2.4163,-2.4408,-2.4607,-2.4708,-2.4708,-2.4667,-2.4473,-2.4806,-2.5397,-2.4787,-2.4651,-2.5121,-2.424,-2.376,-2.3741,-2.3347,-2.3127,-2.3216,-2.3334,-2.348,-2.3653,-2.3696,-2.3782,-2.3882,-2.4009,-2.4135,-2.4234,-2.4343,-2.4508,-2.4645,-2.4766,-2.4926,-2.5162,-2.541,-2.5546,-2.5605,-2.568,-2.5701,-2.568,-2.577,-2.5844,-2.5881,-2.5901,-2.5974,-2.6101,-2.6293,-2.6417,-2.6623,-2.6589,-2.6708,-2.6908,-2.6892,-2.6992,-2.7154,-2.725,-2.7282,-2.7282,-2.731,-2.7404,-2.7404,-2.7448,-2.7557,-2.7587,-2.7719,-2.7789,-2.7911,-2.7968,-2.7996,-2.8035,-2.8053,-2.8099,-2.8182,-2.8182,-2.8182,-2.8182,-2.8182,-2.8182,-2.8182,-2.8182,-2.8182,-2.8182,-2.8182,-2.8182,-2.8182,-2.8182,-2.8182,-2.8182,-2.8182,-2.8209,-2.8237,-2.8291,-2.83,-1.8231,-1.785,-1.7426,-1.7882,-1.8841,-1.829,-1.8576,-1.9318,-1.9266,-1.942,-1.9857,-2.026,-2.0884,-2.1627,-2.202,-2.2395,-2.269,-2.269,-2.28,-2.2909,-2.2909,-2.309,-2.3463,-2.3708,-2.393,-2.4131,-2.4363,-2.4465,-2.4465,-2.4483,-2.4483,-2.4584,-2.4299,-2.3972,-2.3834,-2.3504,-2.305,-2.2951,-2.2838,-2.2814,-2.2904,-2.2949,-2.3083,-2.3304,-2.3523,-2.3595,-2.3638,-2.3882,-2.3982,-2.4024,-2.4024,-2.4109,-2.4302,-2.4359,-2.4533,-2.4879,-2.5146,-2.5333,-2.5416,-2.5551,-2.5642,-2.56,-2.5605,-2.568,-2.5637,-2.5696,-2.5738,-2.5738,-2.5937,-2.6154,-2.6434,-2.6485,-2.6554,-2.664,-2.664,-2.6708,-2.6876,-2.6975,-2.7024,-2.704,-2.707,-2.7135,-2.7135,-2.7293,-2.7404,-2.7496,-2.76,-2.7701,-2.7719,-2.773,-2.773,-2.776,-2.776,-2.7818,-2.8126,-2.8304,-2.8269,-2.818,-2.817,-2.819,-2.82,-2.8182,-2.8182,-2.8182,-2.8154,-2.8154,-2.8182,-2.8182,-2.8182,-2.8182,-2.8182,-2.8209,-2.8237,-2.8273,-2.8327,-1.8127,-1.789,-1.7325,-1.7315,-1.7823,-1.783,-1.8072,-1.836,-1.8881,-1.911,-1.9281,-1.9712,-2.0204,-2.0771,-2.1464,-2.2004,-2.2476,-2.2416,-2.2432,-2.2494,-2.2543,-2.2726,-2.2982,-2.3245,-2.3424,-2.3616,-2.3747,-2.3852,-2.391,-2.3897,-2.4073,-2.4337,-2.4266,-2.4195,-2.4204,-2.397,-2.3691,-2.3315,-2.3082,-2.2828,-2.2598,-2.2586,-2.2692,-2.2828,-2.3127,-2.3304,-2.3304,-2.3451,-2.3581,-2.3683,-2.3683,-2.3711,-2.3867,-2.4021,-2.4302,-2.463,-2.4871,-2.5029,-2.5123,-2.5185,-2.524,-2.5201,-2.5224,-2.5339,-2.5432,-2.547,-2.5546,-2.5754,-2.5775,-2.5901,-2.6099,-2.6277,-2.6434,-2.6572,-2.6606,-2.664,-2.6742,-2.6808,-2.6825,-2.6825,-2.6892,-2.6975,-2.7023,-2.7105,-2.7169,-2.7247,-2.7276,-2.7369,-2.7478,-2.7539,-2.7569,-2.763,-2.7672,-2.773,-2.7836,-2.8376,-2.857,-2.8253,-2.8111,-2.8147,-2.8176,-2.7993,-2.7911,-2.795,-2.7996,-2.8071,-2.8099,-2.8182,-2.8182,-2.8182,-2.8182,-2.8209,-2.8237,-2.8273,-2.8327,-1.8021,-1.8099,-1.7432,-1.7338,-1.7757,-1.7807,-1.7912,-1.8048,-1.8627,-1.8804,-1.8724,-1.9121,-1.9682,-2.0142,-2.0552,-2.1123,-2.181,-2.2092,-2.2154,-2.2135,-2.2173,-2.2371,-2.2555,-2.2739,-2.2909,-2.309,-2.321,-2.3271,-2.339,-2.3437,-2.3603,-2.3897,-2.4002,-2.4084,-2.4103,-2.4023,-2.3797,-2.3305,-2.2949,-2.2623,-2.2331,-2.2141,-2.2184,-2.237,-2.2586,-2.2859,-2.3024,-2.3172,-2.326,-2.3422,-2.3422,-2.3451,-2.3508,-2.3739,-2.4009,-2.4219,-2.4467,-2.4655,-2.4806,-2.4886,-2.5005,-2.495,-2.4966,-2.5084,-2.5224,-2.5256,-2.5355,-2.5584,-2.5642,-2.568,-2.5828,-2.6063,-2.6277,-2.6399,-2.6434,-2.6503,-2.6556,-2.659,-2.6624,-2.6691,-2.6742,-2.6792,-2.6826,-2.6859,-2.6892,-2.6956,-2.7006,-2.712,-2.7247,-2.731,-2.7341,-2.7404,-2.7417,-2.743,-2.7552,-2.8004,-2.8605,-2.8426,-2.8035,-2.8057,-2.8062,-2.7864,-2.7689,-2.7701,-2.7789,-2.7893,-2.7996,-2.8109,-2.8154,-2.8182,-2.8182,-2.8209,-2.8237,-2.8291,-2.8345,-1.8031,-1.8285,-1.7773,-1.7961,-1.8518,-1.8028,-1.8067,-1.8348,-1.8369,-1.8332,-1.8273,-1.8582,-1.9221,-1.989,-1.9761,-1.9854,-2.0743,-2.161,-2.1869,-2.1722,-2.1773,-2.191,-2.2111,-2.2111,-2.2297,-2.2482,-2.2726,-2.2909,-2.2896,-2.3017,-2.3125,-2.3198,-2.3437,-2.3456,-2.2961,-2.3302,-2.3239,-2.2764,-2.2389,-2.2156,-2.2011,-2.1659,-2.1554,-2.1793,-2.1935,-2.2249,-2.2814,-2.2994,-2.3142,-2.3275,-2.3275,-2.3275,-2.3319,-2.3466,-2.3538,-2.3696,-2.4036,-2.4276,-2.4359,-2.467,-2.4791,-2.4735,-2.4871,-2.4886,-2.4926,-2.4966,-2.5045,-2.524,-2.5339,-2.5438,-2.5626,-2.5844,-2.597,-2.6026,-2.6168,-2.6258,-2.6295,-2.6349,-2.6435,-2.6537,-2.6554,-2.652,-2.652,-2.6589,-2.6657,-2.6742,-2.6825,-2.6909,-2.699,-2.704,-2.7007,-2.704,-2.7087,-2.7184,-2.7362,-2.7604,-2.8224,-2.8568,-2.8128,-2.7901,-2.7944,-2.7823,-2.7531,-2.7522,-2.7582,-2.7719,-2.7893,-2.7996,-2.8025,-2.8053,-2.8109,-2.8136,-2.8136,-2.8146,-2.8273,-1.784,-1.7883,-1.7657,-1.7569,-1.7705,-1.745,-1.7308,-1.7081,-1.7388,-1.7614,-1.7837,-1.8225,-1.8886,-1.9613,-2.0088,-2.0222,-2.0175,-2.1023,-2.113,-2.0533,-2.0786,-2.1003,-2.1129,-2.1325,-2.1726,-2.2185,-2.2371,-2.2432,-2.2432,-2.2555,-2.2665,-2.2848,-2.303,-2.3122,-2.3052,-2.3321,-2.3096,-2.2247,-2.2258,-2.1957,-2.1292,-2.1139,-2.1166,-2.1251,-2.1361,-2.1602,-2.1888,-2.2449,-2.2797,-2.2947,-2.2962,-2.2992,-2.3127,-2.3216,-2.3334,-2.3494,-2.3683,-2.3797,-2.3824,-2.3952,-2.412,-2.412,-2.4162,-2.4302,-2.4467,-2.4508,-2.4605,-2.4806,-2.4831,-2.4934,-2.5208,-2.5346,-2.5551,-2.5864,-2.6023,-2.6059,-2.6129,-2.6096,-2.6099,-2.6187,-2.6274,-2.631,-2.6364,-2.645,-2.6537,-2.6606,-2.6674,-2.6708,-2.6792,-2.6876,-2.6926,-2.6909,-2.6959,-2.6959,-2.7096,-2.7249,-2.757,-2.804,-2.7881,-2.7771,-2.7809,-2.7687,-2.7397,-2.7324,-2.7417,-2.7539,-2.7719,-2.7836,-2.7893,-2.7893,-2.7893,-2.7904,-2.7933,-2.8035,-2.8164,-1.7286,-1.7423,-1.7376,-1.7301,-1.7209,-1.7268,-1.7072,-1.6793,-1.7188,-1.7361,-1.7442,-1.7761,-1.8332,-1.8864,-1.9341,-1.9525,-1.9576,-2.0072,-1.9879,-1.9369,-2.0033,-2.0363,-2.0468,-2.0604,-2.1008,-2.1537,-2.18,-2.1987,-2.2061,-2.2247,-2.2371,-2.2494,-2.2616,-2.2714,-2.2836,-2.2992,-2.2673,-2.2046,-2.2189,-2.1856,-2.1043,-2.0963,-2.0959,-2.0898,-2.0957,-2.1068,-2.1251,-2.1807,-2.2231,-2.2552,-2.2644,-2.2826,-2.2962,-2.3007,-2.3097,-2.3305,-2.3378,-2.3451,-2.348,-2.361,-2.361,-2.3696,-2.3696,-2.3824,-2.4051,-2.4135,-2.4219,-2.4426,-2.4523,-2.463,-2.4855,-2.5169,-2.5323,-2.5378,-2.5749,-2.5975,-2.6176,-2.6274,-2.6492,-2.6681,-2.6652,-2.6545,-2.6604,-2.6341,-2.6397,-2.6452,-2.6503,-2.6537,-2.6589,-2.6691,-2.6742,-2.6759,-2.6759,-2.6759,-2.6792,-2.6894,-2.6996,-2.7284,-2.7486,-2.7603,-2.7722,-2.7429,-2.7105,-2.7152,-2.7247,-2.7324,-2.7491,-2.7612,-2.7719,-2.7672,-2.7672,-2.7789,-2.7876,-2.795,-2.8053,-1.664,-1.6968,-1.7049,-1.7072,-1.7083,-1.7284,-1.7201,-1.7136,-1.7278,-1.7186,-1.7031,-1.7149,-1.7539,-1.7907,-1.7944,-1.8266,-1.8779,-1.9042,-1.8862,-1.8826,-1.9535,-2.0059,-2.0043,-2.0049,-2.026,-2.0635,-2.1071,-2.14,-2.1675,-2.1937,-2.2123,-2.2123,-2.2185,-2.2247,-2.242,-2.242,-2.2262,-2.1925,-2.2035,-2.1619,-2.0718,-2.0805,-2.081,-2.0536,-2.0573,-2.066,-2.0858,-2.1118,-2.1506,-2.2077,-2.237,-2.2583,-2.2704,-2.2749,-2.2826,-2.3097,-2.3201,-2.3246,-2.3319,-2.3407,-2.348,-2.3466,-2.3523,-2.3638,-2.3739,-2.3839,-2.3882,-2.4135,-2.4204,-2.4343,-2.4589,-2.495,-2.5029,-2.4751,-2.524,-2.5935,-2.6706,-2.6825,-2.7038,-2.7512,-2.7349,-2.6995,-2.7092,-2.6603,-2.6313,-2.6358,-2.636,-2.6347,-2.6434,-2.6503,-2.652,-2.6554,-2.6589,-2.6623,-2.6657,-2.6674,-2.6775,-2.6894,-2.7097,-2.7267,-2.7419,-2.7113,-2.6959,-2.7007,-2.7072,-2.7135,-2.723,-2.7386,-2.7478,-2.7461,-2.7552,-2.773,-2.7806,-2.7853,-2.7968,-1.5726,-1.5891,-1.6558,-1.6693,-1.6468,-1.6523,-1.632,-1.6097,-1.6081,-1.6385,-1.6569,-1.6867,-1.7226,-1.7812,-1.8098,-1.833,-1.8425,-1.8871,-1.896,-1.8711,-1.9051,-1.9242,-1.9284,-1.9476,-1.9634,-1.9834,-2.0096,-2.0442,-2.0786,-2.1233,-2.1474,-2.16,-2.18,-2.2049,-2.2247,-2.2161,-2.1958,-2.1511,-2.1262,-2.09,-2.0293,-2.0064,-1.9935,-1.99,-2.0067,-2.0169,-2.0271,-2.0573,-2.1068,-2.1698,-2.1888,-2.2091,-2.2324,-2.2338,-2.2491,-2.2781,-2.2902,-2.2947,-2.2994,-2.2995,-2.3068,-2.3201,-2.3113,-2.3275,-2.3392,-2.3538,-2.3538,-2.361,-2.3696,-2.3867,-2.4094,-2.4162,-2.4078,-2.4021,-2.4735,-2.5628,-2.6364,-2.6708,-2.7023,-2.7607,-2.7615,-2.7613,-2.7473,-2.7158,-2.6688,-2.6718,-2.6495,-2.6305,-2.6443,-2.6364,-2.6399,-2.6485,-2.652,-2.652,-2.652,-2.652,-2.6571,-2.6657,-2.6741,-2.6792,-2.6911,-2.6843,-2.6842,-2.6909,-2.6942,-2.699,-2.704,-2.7137,-2.7184,-2.7261,-2.7338,-2.7461,-2.7582,-2.7659,-2.7853,-1.4468,-1.4713,-1.5394,-1.5457,-1.5255,-1.5393,-1.5298,-1.5033,-1.5219,-1.5467,-1.5873,-1.6288,-1.6727,-1.7359,-1.7595,-1.7848,-1.7935,-1.8303,-1.8364,-1.8372,-1.8476,-1.8554,-1.8653,-1.8844,-1.8962,-1.9029,-1.9187,-1.9507,-1.9911,-2.0237,-2.0495,-2.0635,-2.0828,-2.1158,-2.1463,-2.1292,-2.1087,-2.0843,-2.0649,-2.0306,-1.9558,-1.9665,-1.9564,-1.9522,-1.9604,-1.972,-1.9823,-2.0067,-2.056,-2.1202,-2.1458,-2.165,-2.1855,-2.1949,-2.2105,-2.2445,-2.2278,-2.2138,-2.2246,-2.2133,-2.2047,-2.2164,-2.2221,-2.2469,-2.2702,-2.295,-2.2965,-2.3319,-2.3377,-2.3538,-2.3668,-2.3625,-2.3566,-2.3739,-2.4271,-2.5058,-2.6036,-2.6278,-2.6736,-2.7283,-2.7664,-2.7818,-2.7875,-2.7532,-2.7392,-2.7273,-2.6857,-2.6685,-2.6611,-2.6455,-2.6329,-2.638,-2.638,-2.638,-2.6345,-2.6345,-2.6399,-2.652,-2.6623,-2.6623,-2.6657,-2.6674,-2.6725,-2.6792,-2.6809,-2.6842,-2.6876,-2.6942,-2.7007,-2.7087,-2.7135,-2.7244,-2.743,-2.7569,-2.7719,-1.3124,-1.3535,-1.388,-1.3908,-1.394,-1.4239,-1.4289,-1.4115,-1.4589,-1.4825,-1.5012,-1.5498,-1.5921,-1.6539,-1.6458,-1.6702,-1.7326,-1.7334,-1.7536,-1.7734,-1.7912,-1.8011,-1.8072,-1.8288,-1.8331,-1.8272,-1.8417,-1.8802,-1.9193,-1.9285,-1.9428,-1.9681,-1.9671,-1.9933,-2.0417,-2.0124,-1.9939,-1.9991,-1.9948,-1.9663,-1.9105,-1.9245,-1.93,-1.9206,-1.9186,-1.9396,-1.95,-1.9656,-1.9952,-2.0795,-2.0957,-2.1015,-2.1197,-2.1315,-2.1568,-2.1749,-2.1537,-2.1479,-2.1549,-2.1382,-2.1112,-2.1398,-2.1439,-2.1465,-2.225,-2.2541,-2.2746,-2.3157,-2.326,-2.3319,-2.3363,-2.3407,-2.3494,-2.3566,-2.3852,-2.4468,-2.5253,-2.5764,-2.6271,-2.6989,-2.7374,-2.7557,-2.7818,-2.7867,-2.7859,-2.7778,-2.7346,-2.6951,-2.6765,-2.6619,-2.6432,-2.6239,-2.6239,-2.6203,-2.6203,-2.6203,-2.6293,-2.6399,-2.6554,-2.6623,-2.6691,-2.6708,-2.6708,-2.6708,-2.6759,-2.6759,-2.6742,-2.6825,-2.6892,-2.6975,-2.7055,-2.723,-2.7386,-2.7509,-2.763,-1.21,-1.2437,-1.3045,-1.3353,-1.3562,-1.3723,-1.3844,-1.3778,-1.4117,-1.4241,-1.4365,-1.4606,-1.4792,-1.5029,-1.5331,-1.5524,-1.5869,-1.6359,-1.6985,-1.7666,-1.77,-1.7669,-1.7655,-1.7881,-1.7944,-1.7856,-1.84,-1.8684,-1.8634,-1.8927,-1.926,-1.9162,-1.9198,-1.9518,-1.9661,-1.9457,-1.9364,-1.9309,-1.8952,-1.8759,-1.8622,-1.849,-1.8635,-1.8774,-1.8934,-1.9146,-1.9368,-1.9344,-1.9448,-1.9708,-1.9952,-2.0104,-2.0106,-2.0512,-2.082,-2.0901,-2.1274,-2.1545,-2.1764,-2.1601,-2.1826,-2.1898,-2.1826,-2.2392,-2.2686,-2.2746,-2.2833,-2.3068,-2.3142,-2.3231,-2.3275,-2.3319,-2.3363,-2.3407,-2.3494,-2.3641,-2.4096,-2.5022,-2.5947,-2.6533,-2.6812,-2.7135,-2.7853,-2.7482,-2.763,-2.8062,-2.7791,-2.7284,-2.6958,-2.6733,-2.6389,-2.6085,-2.6079,-2.6079,-2.6079,-2.6115,-2.6258,-2.6364,-2.6485,-2.6589,-2.6657,-2.6674,-2.6674,-2.6674,-2.6708,-2.6708,-2.6708,-2.6691,-2.6775,-2.6892,-2.6975,-2.712,-2.7261,-2.7386,-2.7539,-1.1332,-1.1413,-1.2015,-1.2266,-1.2448,-1.2802,-1.2887,-1.2979,-1.3307,-1.3476,-1.3652,-1.3899,-1.4146,-1.4398,-1.4643,-1.4803,-1.4977,-1.5484,-1.5982,-1.6476,-1.6722,-1.6871,-1.6983,-1.7426,-1.7579,-1.7225,-1.7378,-1.7585,-1.7718,-1.7875,-1.7898,-1.8144,-1.8317,-1.8586,-1.8859,-1.8718,-1.8701,-1.8631,-1.8121,-1.7821,-1.7787,-1.7623,-1.7788,-1.8236,-1.8494,-1.8709,-1.8999,-1.8934,-1.8987,-1.904,-1.9186,-1.9377,-1.9497,-1.9927,-2.0152,-2.0319,-2.0233,-2.0606,-2.0745,-2.0657,-2.052,-2.107,-2.1087,-2.1391,-2.1713,-2.2008,-2.2343,-2.262,-2.2888,-2.3082,-2.3112,-2.3201,-2.3216,-2.3246,-2.3305,-2.3334,-2.3569,-2.4258,-2.4976,-2.5493,-2.5839,-2.6279,-2.6628,-2.6738,-2.7296,-2.7696,-2.7427,-2.6925,-2.6901,-2.6623,-2.6121,-2.5848,-2.5909,-2.5917,-2.5917,-2.6043,-2.6222,-2.6329,-2.6468,-2.652,-2.6572,-2.6589,-2.6623,-2.664,-2.6674,-2.6674,-2.6674,-2.6691,-2.6725,-2.6859,-2.6975,-2.7055,-2.7135,-2.7293,-2.7417,-1.0646,-1.0641,-1.0982,-1.1154,-1.1332,-1.1682,-1.1952,-1.2037,-1.2369,-1.2705,-1.2881,-1.3313,-1.3555,-1.3971,-1.3977,-1.4146,-1.4482,-1.4748,-1.4999,-1.5325,-1.5741,-1.5966,-1.6183,-1.6611,-1.691,-1.6681,-1.691,-1.695,-1.6819,-1.659,-1.6944,-1.6963,-1.7176,-1.7647,-1.7881,-1.778,-1.7691,-1.7719,-1.728,-1.7027,-1.6867,-1.6818,-1.7078,-1.7556,-1.7776,-1.8104,-1.8344,-1.8398,-1.8452,-1.8494,-1.8494,-1.8881,-1.9303,-1.9604,-1.9659,-1.9813,-1.9534,-1.9744,-1.9876,-1.9534,-1.9355,-1.9468,-1.964,-2.0005,-2.0688,-2.1172,-2.1579,-2.2058,-2.2484,-2.2765,-2.2908,-2.3216,-2.3337,-2.3443,-2.3462,-2.3525,-2.36,-2.3762,-2.404,-2.4119,-2.4673,-2.517,-2.5608,-2.5926,-2.665,-2.7221,-2.6896,-2.6673,-2.6612,-2.6514,-2.6029,-2.5573,-2.5594,-2.5717,-2.577,-2.5807,-2.6026,-2.6222,-2.6329,-2.6364,-2.6399,-2.6434,-2.6468,-2.6623,-2.6657,-2.664,-2.6674,-2.6691,-2.6742,-2.6842,-2.6909,-2.6925,-2.7038,-2.7166,-2.731,-1.0212,-1.0381,-1.0467,-1.0733,-1.1003,-1.117,-1.1424,-1.1693,-1.1854,-1.2026,-1.2209,-1.2295,-1.2546,-1.2711,-1.246,-1.2887,-1.3561,-1.3822,-1.4153,-1.4566,-1.4901,-1.5151,-1.5484,-1.5726,-1.6032,-1.6676,-1.6891,-1.6911,-1.6676,-1.6763,-1.656,-1.6501,-1.6612,-1.689,-1.6924,-1.6741,-1.6693,-1.6635,-1.6297,-1.6194,-1.6165,-1.6285,-1.6513,-1.6989,-1.7157,-1.739,-1.7634,-1.7689,-1.7843,-1.8147,-1.8201,-1.8429,-1.8762,-1.9081,-1.916,-1.9105,-1.9345,-1.956,-1.975,-1.9775,-1.9937,-2.026,-2.0302,-2.051,-2.0912,-2.122,-2.1452,-2.1753,-2.2171,-2.2545,-2.295,-2.3336,-2.3822,-2.4041,-2.4169,-2.4384,-2.444,-2.4241,-2.3924,-2.3837,-2.3925,-2.4088,-2.4744,-2.5302,-2.5864,-2.6443,-2.6535,-2.6258,-2.6047,-2.6096,-2.5973,-2.5575,-2.5262,-2.5438,-2.5567,-2.5605,-2.5717,-2.5954,-2.6063,-2.6099,-2.6187,-2.6239,-2.6293,-2.6417,-2.6555,-2.6607,-2.664,-2.6708,-2.6708,-2.6792,-2.6792,-2.6825,-2.6957,-2.712,-2.7215,-0.9336,-0.9423,-0.9689,-0.9956,-1.0304,-1.0559,-1.0911,-1.1267,-1.1348,-1.1521,-1.1785,-1.1871,-1.1952,-1.2123,-1.2037,-1.2295,-1.2625,-1.2966,-1.33,-1.3633,-1.4055,-1.4391,-1.472,-1.4894,-1.5105,-1.5413,-1.5817,-1.6268,-1.613,-1.5987,-1.5956,-1.5899,-1.6044,-1.6166,-1.6145,-1.6306,-1.5965,-1.5705,-1.56,-1.552,-1.5342,-1.5536,-1.5884,-1.6151,-1.6436,-1.6729,-1.6965,-1.719,-1.7346,-1.7623,-1.7788,-1.7952,-1.8182,-1.8483,-1.872,-1.8686,-1.8988,-1.9385,-1.9613,-1.9617,-1.9574,-2.0162,-2.0167,-2.0118,-2.0436,-2.0832,-2.1425,-2.2025,-2.2339,-2.2715,-2.3016,-2.3403,-2.3606,-2.3782,-2.4049,-2.4311,-2.4383,-2.4253,-2.4053,-2.3746,-2.3671,-2.3866,-2.4282,-2.476,-2.5164,-2.56,-2.6051,-2.5863,-2.5572,-2.5584,-2.5685,-2.5139,-2.4775,-2.4974,-2.5169,-2.5301,-2.5416,-2.5605,-2.5754,-2.5791,-2.5844,-2.5881,-2.6026,-2.6206,-2.633,-2.6469,-2.664,-2.6708,-2.6708,-2.6708,-2.6742,-2.6775,-2.6925,-2.7072,-2.7169,-0.8456,-0.8456,-0.899,-0.9345,-0.9602,-0.9864,-1.0269,-1.0687,-1.0666,-1.0883,-1.1294,-1.1277,-1.1352,-1.1623,-1.1708,-1.1719,-1.177,-1.198,-1.2193,-1.2427,-1.2843,-1.329,-1.3698,-1.3961,-1.409,-1.4069,-1.4221,-1.4582,-1.5079,-1.5094,-1.4929,-1.5007,-1.5338,-1.5373,-1.5266,-1.5556,-1.5336,-1.5239,-1.5079,-1.4994,-1.4694,-1.4784,-1.502,-1.541,-1.571,-1.5999,-1.6285,-1.6446,-1.6673,-1.6899,-1.7134,-1.7301,-1.7468,-1.7854,-1.8139,-1.829,-1.8452,-1.8927,-1.9088,-1.9114,-1.9203,-1.9843,-1.9599,-1.9597,-1.9957,-2.0734,-2.1373,-2.2338,-2.2696,-2.2696,-2.2802,-2.3232,-2.3487,-2.3581,-2.3782,-2.395,-2.4319,-2.4399,-2.4247,-2.3969,-2.3598,-2.3783,-2.4221,-2.4523,-2.5014,-2.5328,-2.576,-2.5471,-2.5197,-2.5243,-2.5153,-2.4539,-2.4261,-2.4492,-2.4695,-2.491,-2.5029,-2.5246,-2.5362,-2.5454,-2.5454,-2.5492,-2.568,-2.5901,-2.6118,-2.6295,-2.6487,-2.6708,-2.6708,-2.6708,-2.6708,-2.6775,-2.6892,-2.6975,-2.704,-0.7921,-0.7921,-0.8456,-0.8903,-0.9253,-0.9074,-0.9329,-0.979,-0.9592,-0.9642,-1.0028,-0.9998,-1.0259,-1.0593,-1.0833,-1.0853,-1.0918,-1.0952,-1.1123,-1.1338,-1.1444,-1.1865,-1.2263,-1.2439,-1.2725,-1.2794,-1.3008,-1.3397,-1.3665,-1.4014,-1.4162,-1.4175,-1.4394,-1.4608,-1.4348,-1.455,-1.4396,-1.4374,-1.424,-1.4306,-1.4437,-1.4469,-1.4588,-1.4824,-1.501,-1.5196,-1.541,-1.5584,-1.5816,-1.6093,-1.6161,-1.6265,-1.6482,-1.6765,-1.6944,-1.7335,-1.7897,-1.8649,-1.8779,-1.8708,-1.897,-1.955,-1.9679,-2.0103,-2.0477,-2.0797,-2.1207,-2.1107,-2.185,-2.2356,-2.263,-2.3295,-2.3817,-2.4076,-2.4155,-2.4544,-2.4902,-2.4214,-2.4138,-2.4068,-2.371,-2.3934,-2.4353,-2.4606,-2.4869,-2.5165,-2.5316,-2.5077,-2.4911,-2.5025,-2.4925,-2.44,-2.397,-2.412,-2.4328,-2.4492,-2.4726,-2.4871,-2.4989,-2.5068,-2.5107,-2.5185,-2.5416,-2.5626,-2.5848,-2.6101,-2.6383,-2.6572,-2.6674,-2.6708,-2.6674,-2.6759,-2.6876,-2.6942,-2.6975,-0.6207,-0.6586,-0.7014,-0.7351,-0.762,-0.7613,-0.7834,-0.8348,-0.8581,-0.8734,-0.9078,-0.9404,-0.973,-0.9963,-1.0136,-1.0111,-1.0172,-1.0172,-1.035,-1.0511,-1.0624,-1.0837,-1.12,-1.1308,-1.1462,-1.1443,-1.1474,-1.136,-1.1866,-1.2777,-1.3366,-1.3368,-1.3462,-1.346,-1.3474,-1.3599,-1.3377,-1.3207,-1.3081,-1.3354,-1.3683,-1.3803,-1.3932,-1.4181,-1.4309,-1.4488,-1.4656,-1.4883,-1.5167,-1.5449,-1.5623,-1.5758,-1.5989,-1.6265,-1.6482,-1.6379,-1.6877,-1.7679,-1.8483,-1.8374,-1.8736,-1.9168,-1.9471,-1.9672,-2.0552,-2.1119,-2.1611,-2.2083,-2.234,-2.2524,-2.2655,-2.3297,-2.3564,-2.3852,-2.406,-2.435,-2.4573,-2.4186,-2.3852,-2.3809,-2.3799,-2.3868,-2.3997,-2.4241,-2.4618,-2.5141,-2.54,-2.5433,-2.5125,-2.4946,-2.4774,-2.4522,-2.4085,-2.3824,-2.3994,-2.4162,-2.4374,-2.4539,-2.4677,-2.4757,-2.4766,-2.4871,-2.5107,-2.5301,-2.5492,-2.5848,-2.6243,-2.6435,-2.6521,-2.6589,-2.6657,-2.6742,-2.6809,-2.6876,-2.6942,-0.4718,-0.5263,-0.5753,-0.611,-0.6276,-0.6411,-0.6714,-0.7088,-0.7432,-0.7744,-0.8035,-0.8426,-0.8774,-0.9052,-0.8935,-0.9001,-0.9237,-0.9361,-0.9541,-0.9717,-0.9983,-1.01,-1.0298,-1.0342,-1.0285,-1.0032,-1.0357,-1.0237,-1.0436,-1.1198,-1.2103,-1.2378,-1.2599,-1.2566,-1.2492,-1.2721,-1.2716,-1.2167,-1.2348,-1.2601,-1.2867,-1.3025,-1.3147,-1.3398,-1.3588,-1.3769,-1.395,-1.4181,-1.451,-1.4796,-1.4972,-1.5118,-1.5186,-1.5526,-1.568,-1.569,-1.6026,-1.6644,-1.7407,-1.7723,-1.8159,-1.8655,-1.9329,-1.9724,-2.0532,-2.126,-2.1777,-2.2396,-2.2628,-2.2738,-2.2969,-2.315,-2.3258,-2.339,-2.3497,-2.3675,-2.3846,-2.3712,-2.3464,-2.3205,-2.3177,-2.3202,-2.3393,-2.3705,-2.4269,-2.5005,-2.5394,-2.5575,-2.5301,-2.4893,-2.4951,-2.4746,-2.4687,-2.4312,-2.4189,-2.4258,-2.431,-2.4388,-2.4502,-2.4508,-2.4575,-2.4636,-2.4791,-2.4989,-2.5185,-2.5454,-2.5828,-2.6134,-2.6399,-2.6452,-2.6521,-2.664,-2.6708,-2.6809,-2.6909,-0.371,-0.4229,-0.5272,-0.5794,-0.6039,-0.6022,-0.6072,-0.6213,-0.6306,-0.641,-0.6556,-0.6758,-0.7167,-0.7375,-0.7493,-0.7646,-0.7991,-0.7979,-0.8282,-0.869,-0.8979,-0.9129,-0.9312,-0.9419,-0.9409,-0.9203,-0.9401,-0.9448,-0.9549,-0.9841,-1.0513,-1.0962,-1.1477,-1.182,-1.1807,-1.1806,-1.195,-1.1598,-1.184,-1.1885,-1.2056,-1.2174,-1.2428,-1.249,-1.2736,-1.292,-1.3103,-1.3459,-1.3683,-1.3923,-1.4163,-1.424,-1.4369,-1.4715,-1.4883,-1.5001,-1.5235,-1.575,-1.6233,-1.6779,-1.7291,-1.8068,-1.8985,-1.9784,-2.0315,-2.119,-2.1729,-2.1901,-2.2161,-2.242,-2.2665,-2.286,-2.2969,-2.3017,-2.3078,-2.3318,-2.3458,-2.3449,-2.3166,-2.2714,-2.2576,-2.255,-2.2485,-2.2834,-2.346,-2.4198,-2.4617,-2.4848,-2.4988,-2.4794,-2.5106,-2.5206,-2.5314,-2.5091,-2.4717,-2.4762,-2.497,-2.4844,-2.4777,-2.4633,-2.4518,-2.4565,-2.4605,-2.4751,-2.495,-2.5162,-2.5394,-2.568,-2.5974,-2.6225,-2.6382,-2.6486,-2.6606,-2.6759,-2.6842,-0.3362,-0.3703,-0.4278,-0.4563,-0.482,-0.478,-0.4821,-0.4921,-0.5162,-0.5523,-0.5854,-0.6089,-0.6349,-0.6532,-0.6761,-0.6817,-0.7102,-0.7211,-0.7308,-0.7488,-0.7688,-0.7952,-0.8043,-0.8195,-0.8203,-0.8198,-0.8354,-0.8399,-0.825,-0.8703,-0.9013,-0.9533,-1.0282,-1.0548,-1.063,-1.0796,-1.0842,-1.1002,-1.1023,-1.103,-1.136,-1.1553,-1.1809,-1.1988,-1.2251,-1.2436,-1.2552,-1.2797,-1.2964,-1.3199,-1.3459,-1.3597,-1.3726,-1.4079,-1.4309,-1.4428,-1.4666,-1.4911,-1.5264,-1.5914,-1.6644,-1.7589,-1.8581,-1.9375,-1.9732,-2.0258,-2.0824,-2.1135,-2.1463,-2.1765,-2.2149,-2.2359,-2.2494,-2.2665,-2.2787,-2.2969,-2.3027,-2.3047,-2.2964,-2.2572,-2.2223,-2.2008,-2.1887,-2.1826,-2.2627,-2.3351,-2.3715,-2.4098,-2.4304,-2.4534,-2.4834,-2.5103,-2.5183,-2.5265,-2.4939,-2.5227,-2.559,-2.5274,-2.4938,-2.4826,-2.4591,-2.4425,-2.4441,-2.4605,-2.4726,-2.4926,-2.5107,-2.5285,-2.5589,-2.5937,-2.6154,-2.626,-2.6452,-2.6657,-2.6775,-0.2895,-0.316,-0.3492,-0.3758,-0.3946,-0.4006,-0.3995,-0.4134,-0.4391,-0.4776,-0.5237,-0.5392,-0.5473,-0.5702,-0.586,-0.6015,-0.6103,-0.6251,-0.6402,-0.6567,-0.6802,-0.6868,-0.6945,-0.7099,-0.7265,-0.7249,-0.733,-0.7407,-0.7403,-0.7787,-0.8016,-0.8327,-0.8703,-0.915,-0.9894,-0.9752,-0.9892,-1.011,-1.0196,-1.0168,-1.0518,-1.073,-1.0856,-1.117,-1.1365,-1.1622,-1.1809,-1.1988,-1.229,-1.2597,-1.2911,-1.3172,-1.3363,-1.3606,-1.389,-1.4019,-1.4216,-1.4363,-1.4814,-1.5398,-1.6217,-1.7042,-1.7812,-1.8405,-1.885,-1.934,-1.9998,-2.0431,-2.0677,-2.0985,-2.1428,-2.1639,-2.1913,-2.2025,-2.242,-2.2604,-2.2665,-2.2699,-2.2611,-2.243,-2.2146,-2.1882,-2.1822,-2.1748,-2.1799,-2.249,-2.2899,-2.3284,-2.3639,-2.3928,-2.4324,-2.4631,-2.4857,-2.4926,-2.5025,-2.5235,-2.5297,-2.4777,-2.4595,-2.4819,-2.4691,-2.4499,-2.4364,-2.4441,-2.4564,-2.4686,-2.4831,-2.5029,-2.5339,-2.5717,-2.5901,-2.6118,-2.6399,-2.6623,-2.6708,-0.2312,-0.2682,-0.3086,-0.3537,-0.3837,-0.394,-0.3991,-0.4068,-0.4128,-0.4233,-0.4462,-0.4389,-0.4387,-0.454,-0.4774,-0.4927,-0.516,-0.5318,-0.5547,-0.5774,-0.6012,-0.6167,-0.624,-0.6314,-0.6388,-0.6546,-0.6626,-0.671,-0.6784,-0.7015,-0.7096,-0.7257,-0.7638,-0.8152,-0.9437,-0.968,-0.9653,-0.9491,-0.9502,-0.9454,-0.9562,-0.9746,-0.9964,-1.0161,-1.0415,-1.0737,-1.0926,-1.124,-1.1545,-1.1926,-1.2428,-1.2613,-1.2744,-1.3094,-1.3346,-1.3458,-1.3752,-1.4232,-1.487,-1.5331,-1.5885,-1.6544,-1.7327,-1.7665,-1.8041,-1.8623,-1.9299,-1.9573,-1.9835,-2.0161,-2.0473,-2.0794,-2.106,-2.1325,-2.1726,-2.1975,-2.1966,-2.2115,-2.1982,-2.2177,-2.2159,-2.2039,-2.2001,-2.1837,-2.1457,-2.1703,-2.2069,-2.2437,-2.276,-2.3041,-2.3378,-2.3914,-2.4192,-2.45,-2.463,-2.4993,-2.5003,-2.4446,-2.4283,-2.4492,-2.4609,-2.4496,-2.4395,-2.4337,-2.4385,-2.4467,-2.4605,-2.4742,-2.5123,-2.5492,-2.5791,-2.6063,-2.6345,-2.6554,-2.6606,-0.1024,-0.1506,-0.1666,-0.2071,-0.2653,-0.3239,-0.3574,-0.3639,-0.3649,-0.3841,-0.3997,-0.3999,-0.4079,-0.4233,-0.4309,-0.446,-0.4538,-0.4616,-0.4849,-0.4924,-0.5082,-0.5162,-0.5237,-0.5386,-0.5461,-0.5544,-0.5702,-0.578,-0.5622,-0.6009,-0.6247,-0.6405,-0.6788,-0.7491,-0.7996,-0.8171,-0.8147,-0.8155,-0.8299,-0.8534,-0.8788,-0.9108,-0.9344,-0.9542,-0.9798,-0.9996,-1.0123,-1.0448,-1.08,-1.1115,-1.1615,-1.1864,-1.1996,-1.2351,-1.2507,-1.2711,-1.2995,-1.3741,-1.4615,-1.5301,-1.5599,-1.6289,-1.693,-1.7302,-1.7678,-1.7668,-1.8162,-1.8643,-1.8977,-1.9233,-1.9628,-1.9911,-2.0172,-2.0291,-2.0613,-2.0869,-2.0962,-2.1192,-2.1272,-2.1782,-2.1946,-2.1616,-2.1448,-2.143,-2.1158,-2.1095,-2.147,-2.1509,-2.1772,-2.1893,-2.2171,-2.2916,-2.3406,-2.3828,-2.4118,-2.4269,-2.4423,-2.4112,-2.4036,-2.4235,-2.4328,-2.428,-2.4271,-2.4155,-2.4234,-2.4287,-2.4482,-2.4686,-2.5005,-2.5317,-2.5605,-2.5844,-2.6115,-2.6329,-2.6452,0.0,-0.0392,-0.0548,-0.0861,-0.1413,-0.239,-0.2807,-0.2878,-0.2997,-0.3214,-0.345,-0.3686,-0.3845,-0.3999,-0.4073,-0.407,-0.4073,-0.3995,-0.3919,-0.3995,-0.4077,-0.4155,-0.4231,-0.4384,-0.446,-0.454,-0.4696,-0.4693,-0.4616,-0.5079,-0.5234,-0.547,-0.6015,-0.628,-0.6738,-0.7076,-0.756,-0.7651,-0.7869,-0.8064,-0.8286,-0.852,-0.8832,-0.9094,-0.9284,-0.9474,-0.9574,-0.979,-1.004,-1.0288,-1.0667,-1.1045,-1.124,-1.1464,-1.1725,-1.2,-1.2466,-1.3129,-1.3933,-1.4421,-1.4764,-1.5493,-1.6455,-1.701,-1.7254,-1.7304,-1.7579,-1.792,-1.8114,-1.8442,-1.8777,-1.9065,-1.9396,-1.9518,-1.9781,-2.0031,-2.0344,-2.0515,-2.0707,-2.1239,-2.1404,-2.1081,-2.0861,-2.0844,-2.0784,-2.0822,-2.0847,-2.0862,-2.0904,-2.1116,-2.1305,-2.1912,-2.2435,-2.2686,-2.2993,-2.3229,-2.3425,-2.3644,-2.3741,-2.3821,-2.3983,-2.3985,-2.3995,-2.4,-2.4082,-2.4177,-2.44,-2.4645,-2.4846,-2.5084,-2.5355,-2.5584,-2.5844,-2.6063,-2.626,0.0627,0.0548,0.0235,0.0078,-0.0157,-0.1178,-0.1728,-0.1884,-0.204,-0.2352,-0.2746,-0.2902,-0.3137,-0.3604,-0.3526,-0.3448,-0.345,-0.3295,-0.3295,-0.3217,-0.3374,-0.3295,-0.3374,-0.3528,-0.3682,-0.3682,-0.3761,-0.3997,-0.3843,-0.4073,-0.4226,-0.4302,-0.4924,-0.5217,-0.5668,-0.6329,-0.6962,-0.6989,-0.7317,-0.7411,-0.7486,-0.7913,-0.814,-0.8342,-0.8518,-0.8786,-0.8931,-0.9148,-0.9432,-0.9709,-1.0148,-1.0345,-1.0604,-1.0989,-1.1185,-1.1425,-1.1919,-1.248,-1.2979,-1.3384,-1.3898,-1.4668,-1.5679,-1.6341,-1.6691,-1.6682,-1.689,-1.7235,-1.7501,-1.7716,-1.7998,-1.8405,-1.8808,-1.9008,-1.9208,-1.9518,-1.977,-2.002,-2.0161,-2.0395,-2.0603,-2.0415,-2.0264,-2.0258,-2.0609,-2.0452,-2.0539,-2.073,-2.081,-2.0847,-2.1011,-2.1149,-2.1502,-2.1483,-2.1759,-2.2173,-2.2408,-2.2609,-2.3107,-2.3249,-2.3475,-2.3584,-2.357,-2.3671,-2.387,-2.4067,-2.4234,-2.4441,-2.4645,-2.4871,-2.5068,-2.5355,-2.5621,-2.5881,-2.6099,0.1803,0.1488,0.141,0.1176,0.0863,0.0549,0.0,-0.0705,-0.0861,-0.1175,-0.1724,-0.1803,-0.2194,-0.2588,-0.2588,-0.2744,-0.2824,-0.2982,-0.3061,-0.2982,-0.2824,-0.2982,-0.3061,-0.3061,-0.3217,-0.3215,-0.3294,-0.3294,-0.3295,-0.3372,-0.368,-0.4146,-0.4146,-0.4302,-0.4691,-0.5234,-0.5645,-0.6057,-0.6426,-0.6659,-0.6773,-0.7078,-0.7371,-0.7528,-0.77,-0.7899,-0.812,-0.8291,-0.8582,-0.9017,-0.9268,-0.946,-0.9837,-0.9977,-1.0085,-1.0515,-1.1047,-1.1695,-1.2241,-1.2793,-1.3223,-1.3677,-1.4574,-1.4996,-1.5409,-1.5762,-1.6044,-1.6464,-1.6811,-1.7019,-1.7295,-1.7716,-1.7988,-1.8124,-1.8327,-1.8596,-1.8824,-1.8961,-1.9149,-1.949,-1.9646,-1.9941,-1.975,-2.0239,-2.0475,-2.0241,-2.0219,-2.0532,-2.0716,-2.0758,-2.0707,-2.0822,-2.0768,-2.0848,-2.0957,-2.1314,-2.1456,-2.165,-2.2138,-2.2536,-2.2644,-2.279,-2.3049,-2.3319,-2.3596,-2.3839,-2.4024,-2.4234,-2.4426,-2.4574,-2.4815,-2.5107,-2.5394,-2.5626,-2.5864,0.2567,0.2352,0.2353,0.2196,0.1881,0.1788,0.1314,0.0773,0.0312,-0.0157,-0.0627,-0.0783,-0.1096,-0.1488,-0.1488,-0.1567,-0.1724,-0.1567,-0.1645,-0.1803,-0.2117,-0.1961,-0.2041,-0.2198,-0.2041,-0.2196,-0.2275,-0.2196,-0.2354,-0.2511,-0.2743,-0.2898,-0.3132,-0.3288,-0.3444,-0.3667,-0.3984,-0.4577,-0.5155,-0.5565,-0.592,-0.622,-0.6525,-0.67,-0.6809,-0.7014,-0.7197,-0.7366,-0.7601,-0.7847,-0.8037,-0.8226,-0.8549,-0.8753,-0.9098,-0.9509,-0.9989,-1.0508,-1.1056,-1.1344,-1.2012,-1.2625,-1.3072,-1.3484,-1.4173,-1.4689,-1.5259,-1.5824,-1.6026,-1.6306,-1.6664,-1.695,-1.7028,-1.7166,-1.7382,-1.7588,-1.7707,-1.7822,-1.8141,-1.8568,-1.8913,-1.923,-1.9592,-2.0109,-2.0442,-2.0204,-2.0275,-2.0598,-2.0717,-2.068,-2.0576,-2.0489,-2.0374,-2.0334,-2.0472,-2.0646,-2.0858,-2.1118,-2.1415,-2.176,-2.1807,-2.2231,-2.2735,-2.3037,-2.3319,-2.3478,-2.3631,-2.3979,-2.4219,-2.4307,-2.4284,-2.4367,-2.4719,-2.5211,-2.547,0.3149,0.3217,0.3141,0.2982,0.2817,0.2533,0.2359,0.2357,0.1401,0.0784,0.0469,0.0235,-0.0078,-0.0392,-0.0392,-0.0392,-0.047,-0.047,-0.0548,-0.0313,-0.0627,-0.0705,-0.0784,-0.0628,-0.0941,-0.0785,-0.0864,-0.1256,-0.11,-0.1335,-0.1492,-0.1257,-0.1725,-0.2038,-0.2117,-0.2427,-0.2774,-0.3013,-0.391,-0.4552,-0.4932,-0.53,-0.5665,-0.5779,-0.5986,-0.6188,-0.6283,-0.6392,-0.6334,-0.6465,-0.6662,-0.6924,-0.7312,-0.7707,-0.8182,-0.8495,-0.8936,-0.9254,-0.9622,-0.9886,-1.0356,-1.0859,-1.127,-1.1992,-1.2855,-1.381,-1.4466,-1.4903,-1.5117,-1.5463,-1.5816,-1.6105,-1.6315,-1.6464,-1.6673,-1.6881,-1.712,-1.7118,-1.7185,-1.7561,-1.791,-1.8218,-1.8499,-1.8888,-1.9437,-1.9704,-2.0274,-2.0639,-2.0296,-2.0263,-2.03,-2.0047,-1.9988,-1.9939,-2.0271,-2.0459,-2.051,-2.0709,-2.097,-2.1229,-2.1471,-2.1983,-2.2526,-2.2595,-2.2673,-2.2965,-2.3193,-2.326,-2.3341,-2.3644,-2.3595,-2.3529,-2.3912,-2.4467,-2.4633,0.4208,0.3995,0.3604,0.3294,0.3059,0.2809,0.2719,0.2646,0.2268,0.186,0.1535,0.1397,0.1096,0.0625,0.0625,0.0548,0.0313,0.047,0.0157,0.0078,0.0078,0.0156,-0.0078,0.0,-0.0078,-0.0235,-0.0314,-0.0471,-0.055,-0.0707,-0.0786,-0.0786,-0.1021,-0.1099,-0.1099,-0.1489,-0.1704,-0.1746,-0.2253,-0.3184,-0.3809,-0.4224,-0.4681,-0.4821,-0.5017,-0.5146,-0.5307,-0.5504,-0.5767,-0.6009,-0.6207,-0.6465,-0.6785,-0.7051,-0.7312,-0.7531,-0.7956,-0.8134,-0.8336,-0.8644,-0.9157,-0.9633,-1.026,-1.1056,-1.1939,-1.283,-1.3535,-1.389,-1.4266,-1.4617,-1.4974,-1.5251,-1.5534,-1.5754,-1.6035,-1.6245,-1.6446,-1.6419,-1.6299,-1.6596,-1.6929,-1.7146,-1.743,-1.781,-1.8315,-1.9088,-1.9988,-2.0211,-1.9368,-1.9077,-1.9574,-1.9492,-1.9491,-1.9589,-1.9926,-2.022,-2.022,-2.0409,-2.066,-2.0921,-2.1131,-2.1602,-2.2067,-2.1908,-2.1975,-2.2382,-2.2409,-2.185,-2.202,-2.2778,-2.2851,-2.2753,-2.2931,-2.3421,-2.3488,0.5058,0.4994,0.4516,0.4224,0.3986,0.3565,0.3375,0.3341,0.3186,0.292,0.2584,0.2274,0.193,0.1545,0.1545,0.1556,0.1248,0.1254,0.1243,0.1083,0.0925,0.0925,0.0849,0.0772,0.0857,0.0781,0.0549,0.0314,0.0078,-0.0079,-0.0079,-0.0078,-0.0157,-0.0235,-0.0157,-0.047,-0.07,-0.0693,-0.0842,-0.1476,-0.2433,-0.2935,-0.3301,-0.3537,-0.371,-0.3849,-0.4034,-0.4252,-0.4573,-0.4885,-0.515,-0.5484,-0.5807,-0.6137,-0.64,-0.6745,-0.7056,-0.7366,-0.7423,-0.765,-0.8201,-0.8667,-0.9066,-0.9845,-1.0248,-1.1112,-1.2209,-1.2669,-1.3375,-1.376,-1.3833,-1.4114,-1.4338,-1.4553,-1.4942,-1.5271,-1.5548,-1.5692,-1.5641,-1.5808,-1.6121,-1.6411,-1.6723,-1.7129,-1.7533,-1.7478,-1.8559,-1.8895,-1.8211,-1.798,-1.8519,-1.8864,-1.8833,-1.9064,-1.9408,-1.9708,-1.9914,-2.0169,-2.0359,-2.061,-2.0871,-2.1264,-2.1527,-2.1555,-2.1705,-2.1981,-2.1799,-2.1369,-2.1801,-2.2775,-2.2463,-2.1992,-2.2204,-2.233,-2.2077,0.581,0.5912,0.5533,0.5345,0.5248,0.4568,0.4247,0.423,0.4,0.3877,0.3675,0.3013,0.2691,0.2631,0.2636,0.2676,0.2617,0.2527,0.2437,0.2345,0.2336,0.2258,0.2186,0.2119,0.2132,0.1998,0.1855,0.1467,0.1155,0.1078,0.1078,0.0933,0.0856,0.0855,0.0934,0.0776,0.0537,0.0456,0.0226,-0.015,-0.0805,-0.143,-0.1971,-0.2276,-0.2367,-0.2432,-0.2634,-0.2893,-0.3228,-0.3489,-0.402,-0.4289,-0.4556,-0.4882,-0.5147,-0.5488,-0.5951,-0.6354,-0.6605,-0.6696,-0.7225,-0.7711,-0.7996,-0.8386,-0.8793,-0.9591,-1.0641,-1.1338,-1.2091,-1.2563,-1.2708,-1.2889,-1.3107,-1.3615,-1.3996,-1.4348,-1.4624,-1.49,-1.4932,-1.4994,-1.5258,-1.5551,-1.5813,-1.6229,-1.6465,-1.6353,-1.6507,-1.6673,-1.6859,-1.7109,-1.7518,-1.7835,-1.7988,-1.8344,-1.8881,-1.9186,-1.9436,-1.9759,-1.9965,-2.0308,-2.066,-2.1068,-2.1342,-2.1437,-2.162,-2.1619,-2.1629,-2.1366,-2.203,-2.2421,-2.1917,-2.133,-2.1374,-2.1341,-2.0624,0.6588,0.614,0.6074,0.5845,0.5542,0.538,0.5194,0.5012,0.4706,0.4572,0.456,0.4286,0.3868,0.3661,0.3664,0.3622,0.3649,0.3651,0.363,0.3595,0.3387,0.3455,0.3389,0.3117,0.3312,0.3185,0.2994,0.3076,0.2327,0.2307,0.244,0.2303,0.1928,0.1853,0.1703,0.1556,0.1487,0.1407,0.1329,0.0953,0.0437,-0.0361,-0.1321,-0.1659,-0.1899,-0.1957,-0.2146,-0.2376,-0.256,-0.2684,-0.2954,-0.3155,-0.3422,-0.3689,-0.3887,-0.4154,-0.468,-0.4945,-0.5209,-0.5411,-0.5825,-0.6395,-0.6712,-0.7142,-0.7617,-0.8202,-0.8998,-0.9411,-1.0172,-1.0926,-1.1249,-1.1768,-1.2101,-1.3035,-1.3613,-1.3742,-1.3979,-1.4005,-1.4085,-1.4065,-1.4132,-1.431,-1.4426,-1.4928,-1.5355,-1.5467,-1.5887,-1.5999,-1.6045,-1.6314,-1.6545,-1.6814,-1.7123,-1.7831,-1.8417,-1.8643,-1.891,-1.9239,-1.9527,-1.9825,-2.0218,-2.0822,-2.1073,-2.1069,-2.1008,-2.096,-2.0973,-2.1234,-2.1153,-2.1372,-2.1025,-2.0697,-2.0688,-2.0508,-1.9968]}]]